<?xml version="1.0" encoding="UTF-8" standalone="no" ?>
<gpx xmlns="http://www.topografix.com/GPX/1/1" xmlns:xsi="http://www.w3.org/2001/XMLSchema-instance" xsi:schemaLocation="http://www.topografix.com/GPX/1/1 http://www.topografix.com/GPX/1/1/gpx.xsd" version="1.1" creator="VisuGPX - https://www.visugpx.com">
  <metadata>
    <name>TADAPANI ==&gt; GHINU</name>
    <desc><![CDATA[Trek entre DHAULAGIRI et ANNAPURNA]]></desc>
  </metadata>
  <trk>
    <name><![CDATA[TADHAPANI GHINU]]></name>
    <trkseg>
      <trkpt lat="28.39651" lon="83.76553">
        <ele>2683.18</ele>
        <time>2013-11-03T02:13:38Z</time>
      </trkpt>
      <trkpt lat="28.39652" lon="83.76553">
        <ele>2678.85</ele>
        <time>2013-11-03T02:13:39Z</time>
      </trkpt>
      <trkpt lat="28.39652" lon="83.76553">
        <ele>2675.49</ele>
        <time>2013-11-03T02:13:43Z</time>
      </trkpt>
      <trkpt lat="28.39652" lon="83.76553">
        <ele>2680.77</ele>
        <time>2013-11-03T02:13:44Z</time>
      </trkpt>
      <trkpt lat="28.39651" lon="83.76553">
        <ele>2678.37</ele>
        <time>2013-11-03T02:13:59Z</time>
      </trkpt>
      <trkpt lat="28.39651" lon="83.76552">
        <ele>2677.89</ele>
        <time>2013-11-03T02:14:24Z</time>
      </trkpt>
      <trkpt lat="28.3965" lon="83.76554">
        <ele>2677.89</ele>
        <time>2013-11-03T02:14:47Z</time>
      </trkpt>
      <trkpt lat="28.3965" lon="83.76564">
        <ele>2677.89</ele>
        <time>2013-11-03T02:14:59Z</time>
      </trkpt>
      <trkpt lat="28.3965" lon="83.76565">
        <ele>2677.41</ele>
        <time>2013-11-03T02:15:01Z</time>
      </trkpt>
      <trkpt lat="28.39651" lon="83.76566">
        <ele>2677.41</ele>
        <time>2013-11-03T02:15:13Z</time>
      </trkpt>
      <trkpt lat="28.3966" lon="83.76557">
        <ele>2677.41</ele>
        <time>2013-11-03T02:15:25Z</time>
      </trkpt>
      <trkpt lat="28.39672" lon="83.7655">
        <ele>2676.45</ele>
        <time>2013-11-03T02:15:41Z</time>
      </trkpt>
      <trkpt lat="28.39683" lon="83.76548">
        <ele>2676.45</ele>
        <time>2013-11-03T02:15:48Z</time>
      </trkpt>
      <trkpt lat="28.3969" lon="83.76549">
        <ele>2675.97</ele>
        <time>2013-11-03T02:16:03Z</time>
      </trkpt>
      <trkpt lat="28.39691" lon="83.76555">
        <ele>2672.6</ele>
        <time>2013-11-03T02:16:14Z</time>
      </trkpt>
      <trkpt lat="28.39695" lon="83.76562">
        <ele>2669.24</ele>
        <time>2013-11-03T02:16:25Z</time>
      </trkpt>
      <trkpt lat="28.39695" lon="83.76567">
        <ele>2667.8</ele>
        <time>2013-11-03T02:16:30Z</time>
      </trkpt>
      <trkpt lat="28.39701" lon="83.76573">
        <ele>2664.91</ele>
        <time>2013-11-03T02:16:43Z</time>
      </trkpt>
      <trkpt lat="28.39715" lon="83.76576">
        <ele>2662.99</ele>
        <time>2013-11-03T02:16:55Z</time>
      </trkpt>
      <trkpt lat="28.39716" lon="83.76575">
        <ele>2662.99</ele>
        <time>2013-11-03T02:17:12Z</time>
      </trkpt>
      <trkpt lat="28.39717" lon="83.76576">
        <ele>2662.99</ele>
        <time>2013-11-03T02:17:40Z</time>
      </trkpt>
      <trkpt lat="28.39719" lon="83.76577">
        <ele>2662.99</ele>
        <time>2013-11-03T02:18:00Z</time>
      </trkpt>
      <trkpt lat="28.39723" lon="83.76576">
        <ele>2662.03</ele>
        <time>2013-11-03T02:18:15Z</time>
      </trkpt>
      <trkpt lat="28.39725" lon="83.76582">
        <ele>2659.62</ele>
        <time>2013-11-03T02:18:38Z</time>
      </trkpt>
      <trkpt lat="28.39723" lon="83.76582">
        <ele>2659.14</ele>
        <time>2013-11-03T02:18:59Z</time>
      </trkpt>
      <trkpt lat="28.39726" lon="83.76583">
        <ele>2657.7</ele>
        <time>2013-11-03T02:19:20Z</time>
      </trkpt>
      <trkpt lat="28.39737" lon="83.76588">
        <ele>2655.3</ele>
        <time>2013-11-03T02:19:34Z</time>
      </trkpt>
      <trkpt lat="28.39742" lon="83.76588">
        <ele>2652.9</ele>
        <time>2013-11-03T02:19:55Z</time>
      </trkpt>
      <trkpt lat="28.39758" lon="83.76583">
        <ele>2650.01</ele>
        <time>2013-11-03T02:20:12Z</time>
      </trkpt>
      <trkpt lat="28.39776" lon="83.76577">
        <ele>2649.05</ele>
        <time>2013-11-03T02:20:25Z</time>
      </trkpt>
      <trkpt lat="28.39783" lon="83.76572">
        <ele>2649.05</ele>
        <time>2013-11-03T02:20:40Z</time>
      </trkpt>
      <trkpt lat="28.398" lon="83.76572">
        <ele>2649.05</ele>
        <time>2013-11-03T02:20:55Z</time>
      </trkpt>
      <trkpt lat="28.3981" lon="83.76575">
        <ele>2648.57</ele>
        <time>2013-11-03T02:21:10Z</time>
      </trkpt>
      <trkpt lat="28.39828" lon="83.76571">
        <ele>2647.13</ele>
        <time>2013-11-03T02:21:25Z</time>
      </trkpt>
      <trkpt lat="28.39834" lon="83.76574">
        <ele>2646.65</ele>
        <time>2013-11-03T02:21:38Z</time>
      </trkpt>
      <trkpt lat="28.39848" lon="83.76576">
        <ele>2644.72</ele>
        <time>2013-11-03T02:21:56Z</time>
      </trkpt>
      <trkpt lat="28.39863" lon="83.76586">
        <ele>2641.84</ele>
        <time>2013-11-03T02:22:12Z</time>
      </trkpt>
      <trkpt lat="28.39877" lon="83.76587">
        <ele>2639.44</ele>
        <time>2013-11-03T02:22:28Z</time>
      </trkpt>
      <trkpt lat="28.39887" lon="83.76587">
        <ele>2637.51</ele>
        <time>2013-11-03T02:22:41Z</time>
      </trkpt>
      <trkpt lat="28.39899" lon="83.76583">
        <ele>2636.55</ele>
        <time>2013-11-03T02:22:55Z</time>
      </trkpt>
      <trkpt lat="28.39907" lon="83.76585">
        <ele>2635.11</ele>
        <time>2013-11-03T02:23:07Z</time>
      </trkpt>
      <trkpt lat="28.3992" lon="83.76581">
        <ele>2633.67</ele>
        <time>2013-11-03T02:23:22Z</time>
      </trkpt>
      <trkpt lat="28.39922" lon="83.7658">
        <ele>2633.19</ele>
        <time>2013-11-03T02:23:24Z</time>
      </trkpt>
      <trkpt lat="28.39938" lon="83.76573">
        <ele>2632.23</ele>
        <time>2013-11-03T02:23:40Z</time>
      </trkpt>
      <trkpt lat="28.3995" lon="83.76578">
        <ele>2631.75</ele>
        <time>2013-11-03T02:23:54Z</time>
      </trkpt>
      <trkpt lat="28.39962" lon="83.76582">
        <ele>2628.86</ele>
        <time>2013-11-03T02:24:08Z</time>
      </trkpt>
      <trkpt lat="28.3997" lon="83.76581">
        <ele>2627.42</ele>
        <time>2013-11-03T02:24:21Z</time>
      </trkpt>
      <trkpt lat="28.39981" lon="83.7658">
        <ele>2625.98</ele>
        <time>2013-11-03T02:24:34Z</time>
      </trkpt>
      <trkpt lat="28.39984" lon="83.7658">
        <ele>2625.98</ele>
        <time>2013-11-03T02:24:37Z</time>
      </trkpt>
      <trkpt lat="28.39993" lon="83.76579">
        <ele>2625.98</ele>
        <time>2013-11-03T02:24:45Z</time>
      </trkpt>
      <trkpt lat="28.40001" lon="83.76577">
        <ele>2625.02</ele>
        <time>2013-11-03T02:24:59Z</time>
      </trkpt>
      <trkpt lat="28.40002" lon="83.76577">
        <ele>2624.54</ele>
        <time>2013-11-03T02:25:17Z</time>
      </trkpt>
      <trkpt lat="28.40009" lon="83.76576">
        <ele>2623.58</ele>
        <time>2013-11-03T02:25:34Z</time>
      </trkpt>
      <trkpt lat="28.40022" lon="83.76578">
        <ele>2622.13</ele>
        <time>2013-11-03T02:25:49Z</time>
      </trkpt>
      <trkpt lat="28.40036" lon="83.76577">
        <ele>2620.69</ele>
        <time>2013-11-03T02:26:04Z</time>
      </trkpt>
      <trkpt lat="28.40041" lon="83.76575">
        <ele>2620.21</ele>
        <time>2013-11-03T02:26:08Z</time>
      </trkpt>
      <trkpt lat="28.40062" lon="83.76563">
        <ele>2617.81</ele>
        <time>2013-11-03T02:26:27Z</time>
      </trkpt>
      <trkpt lat="28.40067" lon="83.76568">
        <ele>2615.88</ele>
        <time>2013-11-03T02:26:51Z</time>
      </trkpt>
      <trkpt lat="28.40075" lon="83.76577">
        <ele>2614.44</ele>
        <time>2013-11-03T02:27:17Z</time>
      </trkpt>
      <trkpt lat="28.40079" lon="83.76579">
        <ele>2611.08</ele>
        <time>2013-11-03T02:27:31Z</time>
      </trkpt>
      <trkpt lat="28.4009" lon="83.76588">
        <ele>2609.16</ele>
        <time>2013-11-03T02:27:46Z</time>
      </trkpt>
      <trkpt lat="28.40104" lon="83.76592">
        <ele>2606.75</ele>
        <time>2013-11-03T02:27:59Z</time>
      </trkpt>
      <trkpt lat="28.40114" lon="83.76594">
        <ele>2603.87</ele>
        <time>2013-11-03T02:28:13Z</time>
      </trkpt>
      <trkpt lat="28.40118" lon="83.76592">
        <ele>2601.95</ele>
        <time>2013-11-03T02:28:31Z</time>
      </trkpt>
      <trkpt lat="28.40129" lon="83.76587">
        <ele>2600.02</ele>
        <time>2013-11-03T02:28:50Z</time>
      </trkpt>
      <trkpt lat="28.40142" lon="83.76592">
        <ele>2597.14</ele>
        <time>2013-11-03T02:29:04Z</time>
      </trkpt>
      <trkpt lat="28.40148" lon="83.76596">
        <ele>2593.77</ele>
        <time>2013-11-03T02:29:21Z</time>
      </trkpt>
      <trkpt lat="28.40153" lon="83.76597">
        <ele>2590.89</ele>
        <time>2013-11-03T02:29:35Z</time>
      </trkpt>
      <trkpt lat="28.40161" lon="83.76596">
        <ele>2588.01</ele>
        <time>2013-11-03T02:29:51Z</time>
      </trkpt>
      <trkpt lat="28.40164" lon="83.76598">
        <ele>2585.12</ele>
        <time>2013-11-03T02:30:06Z</time>
      </trkpt>
      <trkpt lat="28.40175" lon="83.76608">
        <ele>2581.76</ele>
        <time>2013-11-03T02:30:20Z</time>
      </trkpt>
      <trkpt lat="28.40179" lon="83.76614">
        <ele>2581.28</ele>
        <time>2013-11-03T02:30:38Z</time>
      </trkpt>
      <trkpt lat="28.40179" lon="83.76615">
        <ele>2577.43</ele>
        <time>2013-11-03T02:30:47Z</time>
      </trkpt>
      <trkpt lat="28.40179" lon="83.76615">
        <ele>2584.16</ele>
        <time>2013-11-03T02:30:48Z</time>
      </trkpt>
      <trkpt lat="28.40178" lon="83.76615">
        <ele>2580.8</ele>
        <time>2013-11-03T02:30:49Z</time>
      </trkpt>
      <trkpt lat="28.40178" lon="83.76615">
        <ele>2579.84</ele>
        <time>2013-11-03T02:30:51Z</time>
      </trkpt>
      <trkpt lat="28.40179" lon="83.76617">
        <ele>2579.35</ele>
        <time>2013-11-03T02:31:12Z</time>
      </trkpt>
      <trkpt lat="28.40178" lon="83.76616">
        <ele>2579.35</ele>
        <time>2013-11-03T02:31:35Z</time>
      </trkpt>
      <trkpt lat="28.40178" lon="83.76617">
        <ele>2577.43</ele>
        <time>2013-11-03T02:31:53Z</time>
      </trkpt>
      <trkpt lat="28.4018" lon="83.76622">
        <ele>2575.03</ele>
        <time>2013-11-03T02:32:09Z</time>
      </trkpt>
      <trkpt lat="28.40183" lon="83.76624">
        <ele>2572.14</ele>
        <time>2013-11-03T02:32:27Z</time>
      </trkpt>
      <trkpt lat="28.40187" lon="83.76629">
        <ele>2568.78</ele>
        <time>2013-11-03T02:32:42Z</time>
      </trkpt>
      <trkpt lat="28.40191" lon="83.76632">
        <ele>2566.86</ele>
        <time>2013-11-03T02:32:56Z</time>
      </trkpt>
      <trkpt lat="28.40193" lon="83.76629">
        <ele>2566.86</ele>
        <time>2013-11-03T02:33:18Z</time>
      </trkpt>
      <trkpt lat="28.402" lon="83.76627">
        <ele>2564.45</ele>
        <time>2013-11-03T02:33:32Z</time>
      </trkpt>
      <trkpt lat="28.40214" lon="83.76624">
        <ele>2562.05</ele>
        <time>2013-11-03T02:33:47Z</time>
      </trkpt>
      <trkpt lat="28.40218" lon="83.76628">
        <ele>2559.17</ele>
        <time>2013-11-03T02:34:01Z</time>
      </trkpt>
      <trkpt lat="28.40218" lon="83.76635">
        <ele>2557.73</ele>
        <time>2013-11-03T02:34:16Z</time>
      </trkpt>
      <trkpt lat="28.40222" lon="83.76633">
        <ele>2555.8</ele>
        <time>2013-11-03T02:34:33Z</time>
      </trkpt>
      <trkpt lat="28.40226" lon="83.7664">
        <ele>2552.92</ele>
        <time>2013-11-03T02:34:48Z</time>
      </trkpt>
      <trkpt lat="28.40226" lon="83.76639">
        <ele>2552.44</ele>
        <time>2013-11-03T02:35:11Z</time>
      </trkpt>
      <trkpt lat="28.40227" lon="83.7664">
        <ele>2551.48</ele>
        <time>2013-11-03T02:35:16Z</time>
      </trkpt>
      <trkpt lat="28.40233" lon="83.7664">
        <ele>2548.59</ele>
        <time>2013-11-03T02:35:27Z</time>
      </trkpt>
      <trkpt lat="28.40249" lon="83.76642">
        <ele>2546.19</ele>
        <time>2013-11-03T02:35:44Z</time>
      </trkpt>
      <trkpt lat="28.40258" lon="83.76647">
        <ele>2544.27</ele>
        <time>2013-11-03T02:35:54Z</time>
      </trkpt>
      <trkpt lat="28.4026" lon="83.76651">
        <ele>2541.38</ele>
        <time>2013-11-03T02:36:08Z</time>
      </trkpt>
      <trkpt lat="28.40261" lon="83.7666">
        <ele>2538.98</ele>
        <time>2013-11-03T02:36:23Z</time>
      </trkpt>
      <trkpt lat="28.40261" lon="83.76666">
        <ele>2535.61</ele>
        <time>2013-11-03T02:36:35Z</time>
      </trkpt>
      <trkpt lat="28.40249" lon="83.76672">
        <ele>2532.73</ele>
        <time>2013-11-03T02:36:51Z</time>
      </trkpt>
      <trkpt lat="28.40245" lon="83.76682">
        <ele>2529.85</ele>
        <time>2013-11-03T02:37:07Z</time>
      </trkpt>
      <trkpt lat="28.40244" lon="83.76686">
        <ele>2526.48</ele>
        <time>2013-11-03T02:37:24Z</time>
      </trkpt>
      <trkpt lat="28.4025" lon="83.76688">
        <ele>2523.6</ele>
        <time>2013-11-03T02:37:38Z</time>
      </trkpt>
      <trkpt lat="28.40261" lon="83.76691">
        <ele>2521.68</ele>
        <time>2013-11-03T02:37:55Z</time>
      </trkpt>
      <trkpt lat="28.40263" lon="83.76689">
        <ele>2521.19</ele>
        <time>2013-11-03T02:38:21Z</time>
      </trkpt>
      <trkpt lat="28.40264" lon="83.76693">
        <ele>2518.31</ele>
        <time>2013-11-03T02:38:36Z</time>
      </trkpt>
      <trkpt lat="28.40266" lon="83.76698">
        <ele>2516.39</ele>
        <time>2013-11-03T02:38:50Z</time>
      </trkpt>
      <trkpt lat="28.4027" lon="83.76707">
        <ele>2513.5</ele>
        <time>2013-11-03T02:39:00Z</time>
      </trkpt>
      <trkpt lat="28.4027" lon="83.76719">
        <ele>2511.58</ele>
        <time>2013-11-03T02:39:12Z</time>
      </trkpt>
      <trkpt lat="28.4027" lon="83.76719">
        <ele>2511.1</ele>
        <time>2013-11-03T02:39:13Z</time>
      </trkpt>
      <trkpt lat="28.40275" lon="83.76717">
        <ele>2510.62</ele>
        <time>2013-11-03T02:39:28Z</time>
      </trkpt>
      <trkpt lat="28.40271" lon="83.76717">
        <ele>2510.62</ele>
        <time>2013-11-03T02:39:48Z</time>
      </trkpt>
      <trkpt lat="28.40271" lon="83.76716">
        <ele>2510.62</ele>
        <time>2013-11-03T02:40:14Z</time>
      </trkpt>
      <trkpt lat="28.40271" lon="83.76715">
        <ele>2511.1</ele>
        <time>2013-11-03T02:40:41Z</time>
      </trkpt>
      <trkpt lat="28.40271" lon="83.76714">
        <ele>2510.62</ele>
        <time>2013-11-03T02:41:07Z</time>
      </trkpt>
      <trkpt lat="28.40271" lon="83.76715">
        <ele>2510.62</ele>
        <time>2013-11-03T02:41:30Z</time>
      </trkpt>
      <trkpt lat="28.40271" lon="83.76715">
        <ele>2510.62</ele>
        <time>2013-11-03T02:41:53Z</time>
      </trkpt>
      <trkpt lat="28.40272" lon="83.76716">
        <ele>2510.62</ele>
        <time>2013-11-03T02:42:10Z</time>
      </trkpt>
      <trkpt lat="28.4027" lon="83.76717">
        <ele>2510.62</ele>
        <time>2013-11-03T02:42:24Z</time>
      </trkpt>
      <trkpt lat="28.40269" lon="83.76717">
        <ele>2510.62</ele>
        <time>2013-11-03T02:42:51Z</time>
      </trkpt>
      <trkpt lat="28.4027" lon="83.76716">
        <ele>2510.14</ele>
        <time>2013-11-03T02:43:15Z</time>
      </trkpt>
      <trkpt lat="28.40272" lon="83.76718">
        <ele>2509.18</ele>
        <time>2013-11-03T02:43:27Z</time>
      </trkpt>
      <trkpt lat="28.40284" lon="83.76713">
        <ele>2506.77</ele>
        <time>2013-11-03T02:43:41Z</time>
      </trkpt>
      <trkpt lat="28.40286" lon="83.76706">
        <ele>2504.85</ele>
        <time>2013-11-03T02:43:48Z</time>
      </trkpt>
      <trkpt lat="28.40296" lon="83.76714">
        <ele>2501.49</ele>
        <time>2013-11-03T02:44:04Z</time>
      </trkpt>
      <trkpt lat="28.40305" lon="83.76718">
        <ele>2499.08</ele>
        <time>2013-11-03T02:44:14Z</time>
      </trkpt>
      <trkpt lat="28.40313" lon="83.7673">
        <ele>2497.64</ele>
        <time>2013-11-03T02:44:33Z</time>
      </trkpt>
      <trkpt lat="28.40313" lon="83.7673">
        <ele>2496.68</ele>
        <time>2013-11-03T02:44:56Z</time>
      </trkpt>
      <trkpt lat="28.40316" lon="83.76737">
        <ele>2493.8</ele>
        <time>2013-11-03T02:45:08Z</time>
      </trkpt>
      <trkpt lat="28.40326" lon="83.76747">
        <ele>2490.43</ele>
        <time>2013-11-03T02:45:24Z</time>
      </trkpt>
      <trkpt lat="28.4033" lon="83.7675">
        <ele>2487.55</ele>
        <time>2013-11-03T02:45:43Z</time>
      </trkpt>
      <trkpt lat="28.40332" lon="83.7675">
        <ele>2486.59</ele>
        <time>2013-11-03T02:46:04Z</time>
      </trkpt>
      <trkpt lat="28.40335" lon="83.76758">
        <ele>2484.18</ele>
        <time>2013-11-03T02:46:28Z</time>
      </trkpt>
      <trkpt lat="28.40339" lon="83.76764">
        <ele>2482.74</ele>
        <time>2013-11-03T02:46:44Z</time>
      </trkpt>
      <trkpt lat="28.40345" lon="83.76773">
        <ele>2482.26</ele>
        <time>2013-11-03T02:47:05Z</time>
      </trkpt>
      <trkpt lat="28.40344" lon="83.76771">
        <ele>2482.26</ele>
        <time>2013-11-03T02:47:26Z</time>
      </trkpt>
      <trkpt lat="28.40342" lon="83.76768">
        <ele>2482.74</ele>
        <time>2013-11-03T02:48:02Z</time>
      </trkpt>
      <trkpt lat="28.40343" lon="83.76767">
        <ele>2482.26</ele>
        <time>2013-11-03T02:48:30Z</time>
      </trkpt>
      <trkpt lat="28.40343" lon="83.76768">
        <ele>2481.3</ele>
        <time>2013-11-03T02:48:49Z</time>
      </trkpt>
      <trkpt lat="28.40345" lon="83.76767">
        <ele>2479.38</ele>
        <time>2013-11-03T02:49:06Z</time>
      </trkpt>
      <trkpt lat="28.40349" lon="83.76768">
        <ele>2476.49</ele>
        <time>2013-11-03T02:49:21Z</time>
      </trkpt>
      <trkpt lat="28.4035" lon="83.7677">
        <ele>2475.05</ele>
        <time>2013-11-03T02:49:27Z</time>
      </trkpt>
      <trkpt lat="28.40351" lon="83.76786">
        <ele>2473.61</ele>
        <time>2013-11-03T02:49:40Z</time>
      </trkpt>
      <trkpt lat="28.4035" lon="83.76799">
        <ele>2472.65</ele>
        <time>2013-11-03T02:49:55Z</time>
      </trkpt>
      <trkpt lat="28.40349" lon="83.76805">
        <ele>2470.73</ele>
        <time>2013-11-03T02:50:12Z</time>
      </trkpt>
      <trkpt lat="28.4035" lon="83.76816">
        <ele>2467.36</ele>
        <time>2013-11-03T02:50:27Z</time>
      </trkpt>
      <trkpt lat="28.4035" lon="83.76828">
        <ele>2464</ele>
        <time>2013-11-03T02:50:42Z</time>
      </trkpt>
      <trkpt lat="28.40349" lon="83.76839">
        <ele>2461.59</ele>
        <time>2013-11-03T02:50:59Z</time>
      </trkpt>
      <trkpt lat="28.40344" lon="83.76842">
        <ele>2461.11</ele>
        <time>2013-11-03T02:51:23Z</time>
      </trkpt>
      <trkpt lat="28.40341" lon="83.76847">
        <ele>2460.15</ele>
        <time>2013-11-03T02:51:39Z</time>
      </trkpt>
      <trkpt lat="28.40339" lon="83.76853">
        <ele>2459.67</ele>
        <time>2013-11-03T02:51:57Z</time>
      </trkpt>
      <trkpt lat="28.40337" lon="83.76857">
        <ele>2457.75</ele>
        <time>2013-11-03T02:52:14Z</time>
      </trkpt>
      <trkpt lat="28.40336" lon="83.76861">
        <ele>2457.27</ele>
        <time>2013-11-03T02:52:18Z</time>
      </trkpt>
      <trkpt lat="28.40328" lon="83.7687">
        <ele>2456.31</ele>
        <time>2013-11-03T02:52:36Z</time>
      </trkpt>
      <trkpt lat="28.40326" lon="83.76873">
        <ele>2455.82</ele>
        <time>2013-11-03T02:52:55Z</time>
      </trkpt>
      <trkpt lat="28.40322" lon="83.76883">
        <ele>2454.86</ele>
        <time>2013-11-03T02:53:09Z</time>
      </trkpt>
      <trkpt lat="28.40316" lon="83.76897">
        <ele>2453.42</ele>
        <time>2013-11-03T02:53:26Z</time>
      </trkpt>
      <trkpt lat="28.40301" lon="83.76913">
        <ele>2452.46</ele>
        <time>2013-11-03T02:53:43Z</time>
      </trkpt>
      <trkpt lat="28.40298" lon="83.76918">
        <ele>2451.5</ele>
        <time>2013-11-03T02:53:58Z</time>
      </trkpt>
      <trkpt lat="28.40293" lon="83.76926">
        <ele>2450.54</ele>
        <time>2013-11-03T02:54:13Z</time>
      </trkpt>
      <trkpt lat="28.40284" lon="83.76933">
        <ele>2448.62</ele>
        <time>2013-11-03T02:54:30Z</time>
      </trkpt>
      <trkpt lat="28.40281" lon="83.76936">
        <ele>2449.1</ele>
        <time>2013-11-03T02:54:36Z</time>
      </trkpt>
      <trkpt lat="28.40274" lon="83.76944">
        <ele>2448.62</ele>
        <time>2013-11-03T02:54:50Z</time>
      </trkpt>
      <trkpt lat="28.40265" lon="83.76955">
        <ele>2446.21</ele>
        <time>2013-11-03T02:55:09Z</time>
      </trkpt>
      <trkpt lat="28.40261" lon="83.76964">
        <ele>2445.25</ele>
        <time>2013-11-03T02:55:26Z</time>
      </trkpt>
      <trkpt lat="28.40255" lon="83.76967">
        <ele>2443.81</ele>
        <time>2013-11-03T02:55:42Z</time>
      </trkpt>
      <trkpt lat="28.40255" lon="83.76968">
        <ele>2442.37</ele>
        <time>2013-11-03T02:56:01Z</time>
      </trkpt>
      <trkpt lat="28.40261" lon="83.76979">
        <ele>2440.92</ele>
        <time>2013-11-03T02:56:18Z</time>
      </trkpt>
      <trkpt lat="28.40262" lon="83.7699">
        <ele>2439</ele>
        <time>2013-11-03T02:56:29Z</time>
      </trkpt>
      <trkpt lat="28.40264" lon="83.77">
        <ele>2438.52</ele>
        <time>2013-11-03T02:56:52Z</time>
      </trkpt>
      <trkpt lat="28.40264" lon="83.77013">
        <ele>2436.6</ele>
        <time>2013-11-03T02:57:08Z</time>
      </trkpt>
      <trkpt lat="28.40267" lon="83.77019">
        <ele>2433.71</ele>
        <time>2013-11-03T02:57:23Z</time>
      </trkpt>
      <trkpt lat="28.40268" lon="83.77022">
        <ele>2432.27</ele>
        <time>2013-11-03T02:57:36Z</time>
      </trkpt>
      <trkpt lat="28.40275" lon="83.77031">
        <ele>2429.39</ele>
        <time>2013-11-03T02:57:50Z</time>
      </trkpt>
      <trkpt lat="28.40277" lon="83.77032">
        <ele>2428.43</ele>
        <time>2013-11-03T02:57:54Z</time>
      </trkpt>
      <trkpt lat="28.40281" lon="83.77036">
        <ele>2426.5</ele>
        <time>2013-11-03T02:58:07Z</time>
      </trkpt>
      <trkpt lat="28.40283" lon="83.77041">
        <ele>2425.54</ele>
        <time>2013-11-03T02:58:22Z</time>
      </trkpt>
      <trkpt lat="28.40286" lon="83.77046">
        <ele>2424.1</ele>
        <time>2013-11-03T02:58:36Z</time>
      </trkpt>
      <trkpt lat="28.40292" lon="83.77055">
        <ele>2421.7</ele>
        <time>2013-11-03T02:58:51Z</time>
      </trkpt>
      <trkpt lat="28.40292" lon="83.77058">
        <ele>2419.78</ele>
        <time>2013-11-03T02:59:06Z</time>
      </trkpt>
      <trkpt lat="28.40291" lon="83.77056">
        <ele>2419.78</ele>
        <time>2013-11-03T02:59:24Z</time>
      </trkpt>
      <trkpt lat="28.40293" lon="83.77055">
        <ele>2419.3</ele>
        <time>2013-11-03T02:59:50Z</time>
      </trkpt>
      <trkpt lat="28.40297" lon="83.77058">
        <ele>2418.33</ele>
        <time>2013-11-03T03:00:08Z</time>
      </trkpt>
      <trkpt lat="28.40305" lon="83.77068">
        <ele>2415.45</ele>
        <time>2013-11-03T03:00:22Z</time>
      </trkpt>
      <trkpt lat="28.40313" lon="83.7708">
        <ele>2413.05</ele>
        <time>2013-11-03T03:00:36Z</time>
      </trkpt>
      <trkpt lat="28.40324" lon="83.77089">
        <ele>2410.16</ele>
        <time>2013-11-03T03:00:50Z</time>
      </trkpt>
      <trkpt lat="28.4033" lon="83.77099">
        <ele>2407.28</ele>
        <time>2013-11-03T03:01:04Z</time>
      </trkpt>
      <trkpt lat="28.40334" lon="83.77104">
        <ele>2404.39</ele>
        <time>2013-11-03T03:01:18Z</time>
      </trkpt>
      <trkpt lat="28.40338" lon="83.77109">
        <ele>2401.51</ele>
        <time>2013-11-03T03:01:32Z</time>
      </trkpt>
      <trkpt lat="28.40339" lon="83.77112">
        <ele>2401.03</ele>
        <time>2013-11-03T03:01:49Z</time>
      </trkpt>
      <trkpt lat="28.40348" lon="83.77111">
        <ele>2399.11</ele>
        <time>2013-11-03T03:02:11Z</time>
      </trkpt>
      <trkpt lat="28.40352" lon="83.77123">
        <ele>2396.22</ele>
        <time>2013-11-03T03:02:27Z</time>
      </trkpt>
      <trkpt lat="28.40355" lon="83.7713">
        <ele>2394.3</ele>
        <time>2013-11-03T03:02:40Z</time>
      </trkpt>
      <trkpt lat="28.40359" lon="83.77134">
        <ele>2392.38</ele>
        <time>2013-11-03T03:03:00Z</time>
      </trkpt>
      <trkpt lat="28.40362" lon="83.77141">
        <ele>2389.97</ele>
        <time>2013-11-03T03:03:15Z</time>
      </trkpt>
      <trkpt lat="28.4037" lon="83.77149">
        <ele>2387.57</ele>
        <time>2013-11-03T03:03:30Z</time>
      </trkpt>
      <trkpt lat="28.40371" lon="83.77152">
        <ele>2385.17</ele>
        <time>2013-11-03T03:03:47Z</time>
      </trkpt>
      <trkpt lat="28.40376" lon="83.77155">
        <ele>2382.28</ele>
        <time>2013-11-03T03:04:05Z</time>
      </trkpt>
      <trkpt lat="28.40382" lon="83.77165">
        <ele>2380.36</ele>
        <time>2013-11-03T03:04:19Z</time>
      </trkpt>
      <trkpt lat="28.4039" lon="83.7717">
        <ele>2377.96</ele>
        <time>2013-11-03T03:04:33Z</time>
      </trkpt>
      <trkpt lat="28.40391" lon="83.77176">
        <ele>2376.04</ele>
        <time>2013-11-03T03:04:46Z</time>
      </trkpt>
      <trkpt lat="28.40394" lon="83.77179">
        <ele>2375.07</ele>
        <time>2013-11-03T03:05:05Z</time>
      </trkpt>
      <trkpt lat="28.40399" lon="83.77186">
        <ele>2372.19</ele>
        <time>2013-11-03T03:05:19Z</time>
      </trkpt>
      <trkpt lat="28.40401" lon="83.77189">
        <ele>2371.23</ele>
        <time>2013-11-03T03:05:35Z</time>
      </trkpt>
      <trkpt lat="28.40405" lon="83.7719">
        <ele>2370.27</ele>
        <time>2013-11-03T03:05:56Z</time>
      </trkpt>
      <trkpt lat="28.40412" lon="83.77195">
        <ele>2369.79</ele>
        <time>2013-11-03T03:06:12Z</time>
      </trkpt>
      <trkpt lat="28.40413" lon="83.77196">
        <ele>2368.83</ele>
        <time>2013-11-03T03:06:30Z</time>
      </trkpt>
      <trkpt lat="28.40417" lon="83.77202">
        <ele>2366.42</ele>
        <time>2013-11-03T03:06:43Z</time>
      </trkpt>
      <trkpt lat="28.4042" lon="83.77212">
        <ele>2363.06</ele>
        <time>2013-11-03T03:06:54Z</time>
      </trkpt>
      <trkpt lat="28.40424" lon="83.77216">
        <ele>2362.58</ele>
        <time>2013-11-03T03:07:11Z</time>
      </trkpt>
      <trkpt lat="28.40425" lon="83.77221">
        <ele>2360.17</ele>
        <time>2013-11-03T03:07:27Z</time>
      </trkpt>
      <trkpt lat="28.40428" lon="83.77232">
        <ele>2357.77</ele>
        <time>2013-11-03T03:07:41Z</time>
      </trkpt>
      <trkpt lat="28.40432" lon="83.77235">
        <ele>2356.81</ele>
        <time>2013-11-03T03:07:56Z</time>
      </trkpt>
      <trkpt lat="28.40436" lon="83.77239">
        <ele>2354.41</ele>
        <time>2013-11-03T03:08:08Z</time>
      </trkpt>
      <trkpt lat="28.40442" lon="83.77244">
        <ele>2353.44</ele>
        <time>2013-11-03T03:08:22Z</time>
      </trkpt>
      <trkpt lat="28.40448" lon="83.77251">
        <ele>2351.52</ele>
        <time>2013-11-03T03:08:31Z</time>
      </trkpt>
      <trkpt lat="28.40455" lon="83.77258">
        <ele>2349.6</ele>
        <time>2013-11-03T03:08:44Z</time>
      </trkpt>
      <trkpt lat="28.40461" lon="83.77265">
        <ele>2347.2</ele>
        <time>2013-11-03T03:08:58Z</time>
      </trkpt>
      <trkpt lat="28.40463" lon="83.77271">
        <ele>2346.72</ele>
        <time>2013-11-03T03:09:06Z</time>
      </trkpt>
      <trkpt lat="28.40466" lon="83.77278">
        <ele>2345.27</ele>
        <time>2013-11-03T03:09:17Z</time>
      </trkpt>
      <trkpt lat="28.40471" lon="83.77287">
        <ele>2344.79</ele>
        <time>2013-11-03T03:09:26Z</time>
      </trkpt>
      <trkpt lat="28.40474" lon="83.77288">
        <ele>2343.83</ele>
        <time>2013-11-03T03:09:32Z</time>
      </trkpt>
      <trkpt lat="28.40472" lon="83.77298">
        <ele>2343.35</ele>
        <time>2013-11-03T03:09:41Z</time>
      </trkpt>
      <trkpt lat="28.40474" lon="83.77305">
        <ele>2342.87</ele>
        <time>2013-11-03T03:09:53Z</time>
      </trkpt>
      <trkpt lat="28.40475" lon="83.77308">
        <ele>2342.87</ele>
        <time>2013-11-03T03:10:22Z</time>
      </trkpt>
      <trkpt lat="28.40475" lon="83.77311">
        <ele>2342.39</ele>
        <time>2013-11-03T03:10:47Z</time>
      </trkpt>
      <trkpt lat="28.40475" lon="83.77312">
        <ele>2342.39</ele>
        <time>2013-11-03T03:11:15Z</time>
      </trkpt>
      <trkpt lat="28.40476" lon="83.77311">
        <ele>2342.39</ele>
        <time>2013-11-03T03:11:47Z</time>
      </trkpt>
      <trkpt lat="28.40476" lon="83.77313">
        <ele>2342.39</ele>
        <time>2013-11-03T03:12:16Z</time>
      </trkpt>
      <trkpt lat="28.40476" lon="83.77313">
        <ele>2341.91</ele>
        <time>2013-11-03T03:12:45Z</time>
      </trkpt>
      <trkpt lat="28.40476" lon="83.77314">
        <ele>2342.39</ele>
        <time>2013-11-03T03:13:18Z</time>
      </trkpt>
      <trkpt lat="28.40476" lon="83.77314">
        <ele>2341.91</ele>
        <time>2013-11-03T03:13:51Z</time>
      </trkpt>
      <trkpt lat="28.40475" lon="83.77314">
        <ele>2341.91</ele>
        <time>2013-11-03T03:14:24Z</time>
      </trkpt>
      <trkpt lat="28.40475" lon="83.77314">
        <ele>2342.39</ele>
        <time>2013-11-03T03:14:42Z</time>
      </trkpt>
      <trkpt lat="28.40476" lon="83.77314">
        <ele>2342.39</ele>
        <time>2013-11-03T03:15:06Z</time>
      </trkpt>
      <trkpt lat="28.40476" lon="83.77314">
        <ele>2341.91</ele>
        <time>2013-11-03T03:15:35Z</time>
      </trkpt>
      <trkpt lat="28.40477" lon="83.77314">
        <ele>2341.91</ele>
        <time>2013-11-03T03:16:08Z</time>
      </trkpt>
      <trkpt lat="28.40477" lon="83.77313">
        <ele>2341.91</ele>
        <time>2013-11-03T03:16:44Z</time>
      </trkpt>
      <trkpt lat="28.40477" lon="83.77313">
        <ele>2341.91</ele>
        <time>2013-11-03T03:17:03Z</time>
      </trkpt>
      <trkpt lat="28.40478" lon="83.77313">
        <ele>2341.91</ele>
        <time>2013-11-03T03:17:27Z</time>
      </trkpt>
      <trkpt lat="28.40479" lon="83.77314">
        <ele>2341.91</ele>
        <time>2013-11-03T03:17:51Z</time>
      </trkpt>
      <trkpt lat="28.40478" lon="83.77314">
        <ele>2341.91</ele>
        <time>2013-11-03T03:18:13Z</time>
      </trkpt>
      <trkpt lat="28.40479" lon="83.77314">
        <ele>2341.43</ele>
        <time>2013-11-03T03:18:31Z</time>
      </trkpt>
      <trkpt lat="28.40479" lon="83.77314">
        <ele>2341.43</ele>
        <time>2013-11-03T03:19:01Z</time>
      </trkpt>
      <trkpt lat="28.40479" lon="83.77314">
        <ele>2341.43</ele>
        <time>2013-11-03T03:19:33Z</time>
      </trkpt>
      <trkpt lat="28.40479" lon="83.77314">
        <ele>2341.43</ele>
        <time>2013-11-03T03:19:56Z</time>
      </trkpt>
      <trkpt lat="28.40479" lon="83.77313">
        <ele>2341.43</ele>
        <time>2013-11-03T03:20:28Z</time>
      </trkpt>
      <trkpt lat="28.4048" lon="83.77313">
        <ele>2341.43</ele>
        <time>2013-11-03T03:21:03Z</time>
      </trkpt>
      <trkpt lat="28.40479" lon="83.77314">
        <ele>2340.95</ele>
        <time>2013-11-03T03:21:36Z</time>
      </trkpt>
      <trkpt lat="28.40478" lon="83.77314">
        <ele>2340.95</ele>
        <time>2013-11-03T03:22:04Z</time>
      </trkpt>
      <trkpt lat="28.40478" lon="83.77314">
        <ele>2340.95</ele>
        <time>2013-11-03T03:22:35Z</time>
      </trkpt>
      <trkpt lat="28.40479" lon="83.77314">
        <ele>2340.95</ele>
        <time>2013-11-03T03:23:03Z</time>
      </trkpt>
      <trkpt lat="28.40478" lon="83.77313">
        <ele>2341.43</ele>
        <time>2013-11-03T03:23:35Z</time>
      </trkpt>
      <trkpt lat="28.40478" lon="83.77313">
        <ele>2340.95</ele>
        <time>2013-11-03T03:24:10Z</time>
      </trkpt>
      <trkpt lat="28.40477" lon="83.77313">
        <ele>2340.95</ele>
        <time>2013-11-03T03:24:47Z</time>
      </trkpt>
      <trkpt lat="28.40477" lon="83.77314">
        <ele>2340.95</ele>
        <time>2013-11-03T03:25:22Z</time>
      </trkpt>
      <trkpt lat="28.40477" lon="83.77314">
        <ele>2340.95</ele>
        <time>2013-11-03T03:25:51Z</time>
      </trkpt>
      <trkpt lat="28.40477" lon="83.77313">
        <ele>2340.95</ele>
        <time>2013-11-03T03:26:18Z</time>
      </trkpt>
      <trkpt lat="28.40477" lon="83.77313">
        <ele>2340.95</ele>
        <time>2013-11-03T03:26:50Z</time>
      </trkpt>
      <trkpt lat="28.40478" lon="83.77315">
        <ele>2339.99</ele>
        <time>2013-11-03T03:27:08Z</time>
      </trkpt>
      <trkpt lat="28.40484" lon="83.77323">
        <ele>2339.02</ele>
        <time>2013-11-03T03:27:21Z</time>
      </trkpt>
      <trkpt lat="28.40489" lon="83.77328">
        <ele>2339.51</ele>
        <time>2013-11-03T03:27:33Z</time>
      </trkpt>
      <trkpt lat="28.40496" lon="83.77337">
        <ele>2338.54</ele>
        <time>2013-11-03T03:27:45Z</time>
      </trkpt>
      <trkpt lat="28.40502" lon="83.77344">
        <ele>2337.58</ele>
        <time>2013-11-03T03:27:57Z</time>
      </trkpt>
      <trkpt lat="28.40505" lon="83.77352">
        <ele>2335.18</ele>
        <time>2013-11-03T03:28:12Z</time>
      </trkpt>
      <trkpt lat="28.40509" lon="83.77359">
        <ele>2332.78</ele>
        <time>2013-11-03T03:28:28Z</time>
      </trkpt>
      <trkpt lat="28.40509" lon="83.77359">
        <ele>2332.78</ele>
        <time>2013-11-03T03:28:46Z</time>
      </trkpt>
      <trkpt lat="28.40502" lon="83.77367">
        <ele>2331.33</ele>
        <time>2013-11-03T03:28:54Z</time>
      </trkpt>
      <trkpt lat="28.40502" lon="83.77376">
        <ele>2330.37</ele>
        <time>2013-11-03T03:29:00Z</time>
      </trkpt>
      <trkpt lat="28.40504" lon="83.7738">
        <ele>2329.89</ele>
        <time>2013-11-03T03:29:04Z</time>
      </trkpt>
      <trkpt lat="28.40504" lon="83.77389">
        <ele>2327.49</ele>
        <time>2013-11-03T03:29:16Z</time>
      </trkpt>
      <trkpt lat="28.40505" lon="83.77393">
        <ele>2326.05</ele>
        <time>2013-11-03T03:29:26Z</time>
      </trkpt>
      <trkpt lat="28.40505" lon="83.77394">
        <ele>2326.05</ele>
        <time>2013-11-03T03:29:27Z</time>
      </trkpt>
      <trkpt lat="28.40501" lon="83.77411">
        <ele>2326.05</ele>
        <time>2013-11-03T03:29:39Z</time>
      </trkpt>
      <trkpt lat="28.40499" lon="83.77415">
        <ele>2325.57</ele>
        <time>2013-11-03T03:29:53Z</time>
      </trkpt>
      <trkpt lat="28.40495" lon="83.77424">
        <ele>2325.57</ele>
        <time>2013-11-03T03:30:08Z</time>
      </trkpt>
      <trkpt lat="28.40493" lon="83.77433">
        <ele>2325.09</ele>
        <time>2013-11-03T03:30:17Z</time>
      </trkpt>
      <trkpt lat="28.40492" lon="83.77437">
        <ele>2325.09</ele>
        <time>2013-11-03T03:30:20Z</time>
      </trkpt>
      <trkpt lat="28.40489" lon="83.77438">
        <ele>2325.09</ele>
        <time>2013-11-03T03:30:34Z</time>
      </trkpt>
      <trkpt lat="28.40489" lon="83.77441">
        <ele>2325.09</ele>
        <time>2013-11-03T03:30:37Z</time>
      </trkpt>
      <trkpt lat="28.40484" lon="83.77446">
        <ele>2323.64</ele>
        <time>2013-11-03T03:30:50Z</time>
      </trkpt>
      <trkpt lat="28.40482" lon="83.77448">
        <ele>2323.64</ele>
        <time>2013-11-03T03:31:03Z</time>
      </trkpt>
      <trkpt lat="28.40478" lon="83.7746">
        <ele>2323.16</ele>
        <time>2013-11-03T03:31:11Z</time>
      </trkpt>
      <trkpt lat="28.40473" lon="83.77471">
        <ele>2320.76</ele>
        <time>2013-11-03T03:31:23Z</time>
      </trkpt>
      <trkpt lat="28.40469" lon="83.77477">
        <ele>2318.84</ele>
        <time>2013-11-03T03:31:31Z</time>
      </trkpt>
      <trkpt lat="28.40461" lon="83.77477">
        <ele>2315.47</ele>
        <time>2013-11-03T03:31:43Z</time>
      </trkpt>
      <trkpt lat="28.40461" lon="83.77479">
        <ele>2314.51</ele>
        <time>2013-11-03T03:31:56Z</time>
      </trkpt>
      <trkpt lat="28.40456" lon="83.77482">
        <ele>2312.11</ele>
        <time>2013-11-03T03:32:09Z</time>
      </trkpt>
      <trkpt lat="28.40446" lon="83.77483">
        <ele>2309.22</ele>
        <time>2013-11-03T03:32:23Z</time>
      </trkpt>
      <trkpt lat="28.40443" lon="83.77485">
        <ele>2308.26</ele>
        <time>2013-11-03T03:32:39Z</time>
      </trkpt>
      <trkpt lat="28.40439" lon="83.77486">
        <ele>2306.82</ele>
        <time>2013-11-03T03:32:45Z</time>
      </trkpt>
      <trkpt lat="28.40428" lon="83.77492">
        <ele>2303.94</ele>
        <time>2013-11-03T03:32:58Z</time>
      </trkpt>
      <trkpt lat="28.40423" lon="83.77492">
        <ele>2301.05</ele>
        <time>2013-11-03T03:33:11Z</time>
      </trkpt>
      <trkpt lat="28.4042" lon="83.77494">
        <ele>2300.57</ele>
        <time>2013-11-03T03:33:15Z</time>
      </trkpt>
      <trkpt lat="28.40419" lon="83.77496">
        <ele>2300.09</ele>
        <time>2013-11-03T03:33:28Z</time>
      </trkpt>
      <trkpt lat="28.40419" lon="83.77497">
        <ele>2300.09</ele>
        <time>2013-11-03T03:33:44Z</time>
      </trkpt>
      <trkpt lat="28.40419" lon="83.77497">
        <ele>2300.09</ele>
        <time>2013-11-03T03:34:00Z</time>
      </trkpt>
      <trkpt lat="28.40413" lon="83.77509">
        <ele>2298.17</ele>
        <time>2013-11-03T03:34:13Z</time>
      </trkpt>
      <trkpt lat="28.40413" lon="83.7751">
        <ele>2298.17</ele>
        <time>2013-11-03T03:34:14Z</time>
      </trkpt>
      <trkpt lat="28.40413" lon="83.77518">
        <ele>2295.77</ele>
        <time>2013-11-03T03:34:25Z</time>
      </trkpt>
      <trkpt lat="28.40421" lon="83.77523">
        <ele>2293.84</ele>
        <time>2013-11-03T03:34:37Z</time>
      </trkpt>
      <trkpt lat="28.40423" lon="83.77526">
        <ele>2293.84</ele>
        <time>2013-11-03T03:34:47Z</time>
      </trkpt>
      <trkpt lat="28.40427" lon="83.77535">
        <ele>2293.36</ele>
        <time>2013-11-03T03:35:01Z</time>
      </trkpt>
      <trkpt lat="28.40426" lon="83.77535">
        <ele>2293.36</ele>
        <time>2013-11-03T03:35:22Z</time>
      </trkpt>
      <trkpt lat="28.40426" lon="83.77535">
        <ele>2292.88</ele>
        <time>2013-11-03T03:35:42Z</time>
      </trkpt>
      <trkpt lat="28.40427" lon="83.77536">
        <ele>2293.36</ele>
        <time>2013-11-03T03:36:05Z</time>
      </trkpt>
      <trkpt lat="28.40426" lon="83.77535">
        <ele>2292.88</ele>
        <time>2013-11-03T03:36:33Z</time>
      </trkpt>
      <trkpt lat="28.40426" lon="83.77535">
        <ele>2292.4</ele>
        <time>2013-11-03T03:37:02Z</time>
      </trkpt>
      <trkpt lat="28.40425" lon="83.77535">
        <ele>2292.4</ele>
        <time>2013-11-03T03:37:29Z</time>
      </trkpt>
      <trkpt lat="28.40426" lon="83.77535">
        <ele>2292.4</ele>
        <time>2013-11-03T03:38:01Z</time>
      </trkpt>
      <trkpt lat="28.40426" lon="83.77535">
        <ele>2292.4</ele>
        <time>2013-11-03T03:38:04Z</time>
      </trkpt>
      <trkpt lat="28.40425" lon="83.77536">
        <ele>2291.92</ele>
        <time>2013-11-03T03:38:06Z</time>
      </trkpt>
      <trkpt lat="28.40423" lon="83.7754">
        <ele>2290</ele>
        <time>2013-11-03T03:38:18Z</time>
      </trkpt>
      <trkpt lat="28.40423" lon="83.77545">
        <ele>2288.08</ele>
        <time>2013-11-03T03:38:35Z</time>
      </trkpt>
      <trkpt lat="28.40419" lon="83.77555">
        <ele>2285.19</ele>
        <time>2013-11-03T03:38:48Z</time>
      </trkpt>
      <trkpt lat="28.40414" lon="83.7756">
        <ele>2283.27</ele>
        <time>2013-11-03T03:39:00Z</time>
      </trkpt>
      <trkpt lat="28.40419" lon="83.77559">
        <ele>2280.87</ele>
        <time>2013-11-03T03:39:11Z</time>
      </trkpt>
      <trkpt lat="28.40422" lon="83.7756">
        <ele>2280.38</ele>
        <time>2013-11-03T03:39:17Z</time>
      </trkpt>
      <trkpt lat="28.40432" lon="83.77565">
        <ele>2279.42</ele>
        <time>2013-11-03T03:39:26Z</time>
      </trkpt>
      <trkpt lat="28.40439" lon="83.77568">
        <ele>2279.42</ele>
        <time>2013-11-03T03:39:30Z</time>
      </trkpt>
      <trkpt lat="28.40454" lon="83.77574">
        <ele>2279.9</ele>
        <time>2013-11-03T03:39:43Z</time>
      </trkpt>
      <trkpt lat="28.40458" lon="83.77576">
        <ele>2279.9</ele>
        <time>2013-11-03T03:39:55Z</time>
      </trkpt>
      <trkpt lat="28.40458" lon="83.77576">
        <ele>2279.9</ele>
        <time>2013-11-03T03:40:14Z</time>
      </trkpt>
      <trkpt lat="28.40458" lon="83.77575">
        <ele>2279.9</ele>
        <time>2013-11-03T03:40:30Z</time>
      </trkpt>
      <trkpt lat="28.40458" lon="83.77575">
        <ele>2279.9</ele>
        <time>2013-11-03T03:40:51Z</time>
      </trkpt>
      <trkpt lat="28.40457" lon="83.77575">
        <ele>2279.9</ele>
        <time>2013-11-03T03:41:14Z</time>
      </trkpt>
      <trkpt lat="28.40457" lon="83.77576">
        <ele>2279.9</ele>
        <time>2013-11-03T03:41:40Z</time>
      </trkpt>
      <trkpt lat="28.40458" lon="83.77576">
        <ele>2279.42</ele>
        <time>2013-11-03T03:42:10Z</time>
      </trkpt>
      <trkpt lat="28.40458" lon="83.77576">
        <ele>2279.42</ele>
        <time>2013-11-03T03:42:33Z</time>
      </trkpt>
      <trkpt lat="28.40458" lon="83.77576">
        <ele>2279.9</ele>
        <time>2013-11-03T03:43:02Z</time>
      </trkpt>
      <trkpt lat="28.40458" lon="83.77576">
        <ele>2279.9</ele>
        <time>2013-11-03T03:43:30Z</time>
      </trkpt>
      <trkpt lat="28.40458" lon="83.77576">
        <ele>2279.9</ele>
        <time>2013-11-03T03:43:56Z</time>
      </trkpt>
      <trkpt lat="28.40458" lon="83.77575">
        <ele>2279.9</ele>
        <time>2013-11-03T03:44:14Z</time>
      </trkpt>
      <trkpt lat="28.40458" lon="83.77575">
        <ele>2279.9</ele>
        <time>2013-11-03T03:44:34Z</time>
      </trkpt>
      <trkpt lat="28.40458" lon="83.77575">
        <ele>2279.9</ele>
        <time>2013-11-03T03:45:01Z</time>
      </trkpt>
      <trkpt lat="28.40458" lon="83.77575">
        <ele>2279.9</ele>
        <time>2013-11-03T03:45:39Z</time>
      </trkpt>
      <trkpt lat="28.40458" lon="83.77576">
        <ele>2279.9</ele>
        <time>2013-11-03T03:46:02Z</time>
      </trkpt>
      <trkpt lat="28.40455" lon="83.77579">
        <ele>2279.42</ele>
        <time>2013-11-03T03:46:18Z</time>
      </trkpt>
      <trkpt lat="28.40455" lon="83.77579">
        <ele>2278.94</ele>
        <time>2013-11-03T03:46:41Z</time>
      </trkpt>
      <trkpt lat="28.40454" lon="83.77579">
        <ele>2279.42</ele>
        <time>2013-11-03T03:47:01Z</time>
      </trkpt>
      <trkpt lat="28.40455" lon="83.77579">
        <ele>2279.42</ele>
        <time>2013-11-03T03:47:18Z</time>
      </trkpt>
      <trkpt lat="28.40455" lon="83.77579">
        <ele>2279.42</ele>
        <time>2013-11-03T03:47:37Z</time>
      </trkpt>
      <trkpt lat="28.40455" lon="83.77579">
        <ele>2279.42</ele>
        <time>2013-11-03T03:47:39Z</time>
      </trkpt>
      <trkpt lat="28.40458" lon="83.77576">
        <ele>2279.9</ele>
        <time>2013-11-03T03:47:52Z</time>
      </trkpt>
      <trkpt lat="28.40459" lon="83.77576">
        <ele>2279.42</ele>
        <time>2013-11-03T03:48:15Z</time>
      </trkpt>
      <trkpt lat="28.40459" lon="83.77576">
        <ele>2279.9</ele>
        <time>2013-11-03T03:48:34Z</time>
      </trkpt>
      <trkpt lat="28.40459" lon="83.77575">
        <ele>2279.42</ele>
        <time>2013-11-03T03:48:53Z</time>
      </trkpt>
      <trkpt lat="28.40459" lon="83.77575">
        <ele>2279.42</ele>
        <time>2013-11-03T03:49:18Z</time>
      </trkpt>
      <trkpt lat="28.40459" lon="83.77576">
        <ele>2278.94</ele>
        <time>2013-11-03T03:49:43Z</time>
      </trkpt>
      <trkpt lat="28.40459" lon="83.77576">
        <ele>2279.42</ele>
        <time>2013-11-03T03:50:16Z</time>
      </trkpt>
      <trkpt lat="28.40459" lon="83.77576">
        <ele>2279.42</ele>
        <time>2013-11-03T03:50:38Z</time>
      </trkpt>
      <trkpt lat="28.40459" lon="83.77576">
        <ele>2279.42</ele>
        <time>2013-11-03T03:50:55Z</time>
      </trkpt>
      <trkpt lat="28.4046" lon="83.77578">
        <ele>2279.42</ele>
        <time>2013-11-03T03:50:57Z</time>
      </trkpt>
      <trkpt lat="28.4046" lon="83.77581">
        <ele>2278.94</ele>
        <time>2013-11-03T03:51:01Z</time>
      </trkpt>
      <trkpt lat="28.40462" lon="83.77586">
        <ele>2278.94</ele>
        <time>2013-11-03T03:51:12Z</time>
      </trkpt>
      <trkpt lat="28.40461" lon="83.77582">
        <ele>2279.42</ele>
        <time>2013-11-03T03:51:30Z</time>
      </trkpt>
      <trkpt lat="28.40459" lon="83.77577">
        <ele>2279.42</ele>
        <time>2013-11-03T03:51:41Z</time>
      </trkpt>
      <trkpt lat="28.40459" lon="83.77577">
        <ele>2279.42</ele>
        <time>2013-11-03T03:52:00Z</time>
      </trkpt>
      <trkpt lat="28.40459" lon="83.77577">
        <ele>2279.42</ele>
        <time>2013-11-03T03:52:29Z</time>
      </trkpt>
      <trkpt lat="28.40459" lon="83.77577">
        <ele>2279.42</ele>
        <time>2013-11-03T03:52:56Z</time>
      </trkpt>
      <trkpt lat="28.40458" lon="83.77577">
        <ele>2279.42</ele>
        <time>2013-11-03T03:53:22Z</time>
      </trkpt>
      <trkpt lat="28.40458" lon="83.77576">
        <ele>2279.42</ele>
        <time>2013-11-03T03:53:49Z</time>
      </trkpt>
      <trkpt lat="28.40459" lon="83.77576">
        <ele>2278.94</ele>
        <time>2013-11-03T03:54:13Z</time>
      </trkpt>
      <trkpt lat="28.40461" lon="83.77575">
        <ele>2279.42</ele>
        <time>2013-11-03T03:54:41Z</time>
      </trkpt>
      <trkpt lat="28.40464" lon="83.77572">
        <ele>2279.42</ele>
        <time>2013-11-03T03:54:51Z</time>
      </trkpt>
      <trkpt lat="28.40464" lon="83.77569">
        <ele>2279.9</ele>
        <time>2013-11-03T03:55:01Z</time>
      </trkpt>
      <trkpt lat="28.40467" lon="83.77572">
        <ele>2279.42</ele>
        <time>2013-11-03T03:55:13Z</time>
      </trkpt>
      <trkpt lat="28.40466" lon="83.77573">
        <ele>2279.42</ele>
        <time>2013-11-03T03:55:35Z</time>
      </trkpt>
      <trkpt lat="28.40465" lon="83.77575">
        <ele>2279.42</ele>
        <time>2013-11-03T03:56:02Z</time>
      </trkpt>
      <trkpt lat="28.40458" lon="83.77576">
        <ele>2279.42</ele>
        <time>2013-11-03T03:56:15Z</time>
      </trkpt>
      <trkpt lat="28.40458" lon="83.77576">
        <ele>2279.42</ele>
        <time>2013-11-03T03:56:39Z</time>
      </trkpt>
      <trkpt lat="28.40458" lon="83.77576">
        <ele>2278.94</ele>
        <time>2013-11-03T03:57:07Z</time>
      </trkpt>
      <trkpt lat="28.40458" lon="83.77576">
        <ele>2278.94</ele>
        <time>2013-11-03T03:57:36Z</time>
      </trkpt>
      <trkpt lat="28.40458" lon="83.77576">
        <ele>2278.46</ele>
        <time>2013-11-03T03:58:09Z</time>
      </trkpt>
      <trkpt lat="28.40459" lon="83.77575">
        <ele>2278.94</ele>
        <time>2013-11-03T03:58:34Z</time>
      </trkpt>
      <trkpt lat="28.40458" lon="83.77575">
        <ele>2278.94</ele>
        <time>2013-11-03T03:59:00Z</time>
      </trkpt>
      <trkpt lat="28.40458" lon="83.77575">
        <ele>2278.94</ele>
        <time>2013-11-03T03:59:29Z</time>
      </trkpt>
      <trkpt lat="28.40459" lon="83.77575">
        <ele>2278.94</ele>
        <time>2013-11-03T03:59:51Z</time>
      </trkpt>
      <trkpt lat="28.40458" lon="83.77575">
        <ele>2278.94</ele>
        <time>2013-11-03T04:00:08Z</time>
      </trkpt>
      <trkpt lat="28.40458" lon="83.77575">
        <ele>2278.94</ele>
        <time>2013-11-03T04:00:31Z</time>
      </trkpt>
      <trkpt lat="28.40458" lon="83.77575">
        <ele>2278.94</ele>
        <time>2013-11-03T04:00:49Z</time>
      </trkpt>
      <trkpt lat="28.40458" lon="83.77574">
        <ele>2278.46</ele>
        <time>2013-11-03T04:01:16Z</time>
      </trkpt>
      <trkpt lat="28.40457" lon="83.77574">
        <ele>2278.46</ele>
        <time>2013-11-03T04:01:39Z</time>
      </trkpt>
      <trkpt lat="28.40457" lon="83.77575">
        <ele>2278.46</ele>
        <time>2013-11-03T04:02:00Z</time>
      </trkpt>
      <trkpt lat="28.40457" lon="83.77575">
        <ele>2278.46</ele>
        <time>2013-11-03T04:02:26Z</time>
      </trkpt>
      <trkpt lat="28.40458" lon="83.77575">
        <ele>2278.46</ele>
        <time>2013-11-03T04:02:49Z</time>
      </trkpt>
      <trkpt lat="28.40458" lon="83.77576">
        <ele>2278.94</ele>
        <time>2013-11-03T04:03:13Z</time>
      </trkpt>
      <trkpt lat="28.40459" lon="83.77576">
        <ele>2278.46</ele>
        <time>2013-11-03T04:03:32Z</time>
      </trkpt>
      <trkpt lat="28.40459" lon="83.77576">
        <ele>2278.46</ele>
        <time>2013-11-03T04:03:54Z</time>
      </trkpt>
      <trkpt lat="28.40461" lon="83.77577">
        <ele>2278.46</ele>
        <time>2013-11-03T04:04:22Z</time>
      </trkpt>
      <trkpt lat="28.40467" lon="83.77577">
        <ele>2278.94</ele>
        <time>2013-11-03T04:04:30Z</time>
      </trkpt>
      <trkpt lat="28.40477" lon="83.77572">
        <ele>2279.42</ele>
        <time>2013-11-03T04:04:45Z</time>
      </trkpt>
      <trkpt lat="28.40477" lon="83.77572">
        <ele>2278.94</ele>
        <time>2013-11-03T04:04:59Z</time>
      </trkpt>
      <trkpt lat="28.40481" lon="83.77572">
        <ele>2276.54</ele>
        <time>2013-11-03T04:05:17Z</time>
      </trkpt>
      <trkpt lat="28.40484" lon="83.77573">
        <ele>2275.1</ele>
        <time>2013-11-03T04:05:31Z</time>
      </trkpt>
      <trkpt lat="28.40484" lon="83.77577">
        <ele>2273.66</ele>
        <time>2013-11-03T04:05:46Z</time>
      </trkpt>
      <trkpt lat="28.40489" lon="83.7758">
        <ele>2272.69</ele>
        <time>2013-11-03T04:05:59Z</time>
      </trkpt>
      <trkpt lat="28.40488" lon="83.77582">
        <ele>2270.77</ele>
        <time>2013-11-03T04:06:15Z</time>
      </trkpt>
      <trkpt lat="28.40489" lon="83.77584">
        <ele>2268.85</ele>
        <time>2013-11-03T04:06:29Z</time>
      </trkpt>
      <trkpt lat="28.40489" lon="83.77589">
        <ele>2265.96</ele>
        <time>2013-11-03T04:06:47Z</time>
      </trkpt>
      <trkpt lat="28.40491" lon="83.77593">
        <ele>2264.04</ele>
        <time>2013-11-03T04:07:01Z</time>
      </trkpt>
      <trkpt lat="28.40493" lon="83.77597">
        <ele>2263.08</ele>
        <time>2013-11-03T04:07:19Z</time>
      </trkpt>
      <trkpt lat="28.40493" lon="83.77599">
        <ele>2262.6</ele>
        <time>2013-11-03T04:07:41Z</time>
      </trkpt>
      <trkpt lat="28.40493" lon="83.776">
        <ele>2262.6</ele>
        <time>2013-11-03T04:08:10Z</time>
      </trkpt>
      <trkpt lat="28.40494" lon="83.77601">
        <ele>2261.16</ele>
        <time>2013-11-03T04:08:24Z</time>
      </trkpt>
      <trkpt lat="28.40491" lon="83.77611">
        <ele>2259.24</ele>
        <time>2013-11-03T04:08:36Z</time>
      </trkpt>
      <trkpt lat="28.4049" lon="83.77613">
        <ele>2257.79</ele>
        <time>2013-11-03T04:08:50Z</time>
      </trkpt>
      <trkpt lat="28.40492" lon="83.77616">
        <ele>2255.87</ele>
        <time>2013-11-03T04:09:04Z</time>
      </trkpt>
      <trkpt lat="28.40489" lon="83.77621">
        <ele>2253.95</ele>
        <time>2013-11-03T04:09:18Z</time>
      </trkpt>
      <trkpt lat="28.40496" lon="83.7762">
        <ele>2252.51</ele>
        <time>2013-11-03T04:09:30Z</time>
      </trkpt>
      <trkpt lat="28.40504" lon="83.77619">
        <ele>2250.58</ele>
        <time>2013-11-03T04:09:42Z</time>
      </trkpt>
      <trkpt lat="28.40509" lon="83.7762">
        <ele>2249.62</ele>
        <time>2013-11-03T04:09:52Z</time>
      </trkpt>
      <trkpt lat="28.40507" lon="83.77625">
        <ele>2248.66</ele>
        <time>2013-11-03T04:10:09Z</time>
      </trkpt>
      <trkpt lat="28.40504" lon="83.77629">
        <ele>2246.26</ele>
        <time>2013-11-03T04:10:25Z</time>
      </trkpt>
      <trkpt lat="28.40504" lon="83.7763">
        <ele>2244.82</ele>
        <time>2013-11-03T04:10:37Z</time>
      </trkpt>
      <trkpt lat="28.40504" lon="83.77633">
        <ele>2243.37</ele>
        <time>2013-11-03T04:10:52Z</time>
      </trkpt>
      <trkpt lat="28.40499" lon="83.77637">
        <ele>2241.45</ele>
        <time>2013-11-03T04:11:05Z</time>
      </trkpt>
      <trkpt lat="28.40496" lon="83.77638">
        <ele>2241.45</ele>
        <time>2013-11-03T04:11:22Z</time>
      </trkpt>
      <trkpt lat="28.40497" lon="83.77639">
        <ele>2240.97</ele>
        <time>2013-11-03T04:11:25Z</time>
      </trkpt>
      <trkpt lat="28.40495" lon="83.77643">
        <ele>2240.49</ele>
        <time>2013-11-03T04:11:28Z</time>
      </trkpt>
      <trkpt lat="28.40494" lon="83.77653">
        <ele>2237.13</ele>
        <time>2013-11-03T04:11:37Z</time>
      </trkpt>
      <trkpt lat="28.40494" lon="83.77657">
        <ele>2235.68</ele>
        <time>2013-11-03T04:11:43Z</time>
      </trkpt>
      <trkpt lat="28.40496" lon="83.77661">
        <ele>2234.72</ele>
        <time>2013-11-03T04:11:47Z</time>
      </trkpt>
      <trkpt lat="28.40496" lon="83.77668">
        <ele>2234.24</ele>
        <time>2013-11-03T04:11:58Z</time>
      </trkpt>
      <trkpt lat="28.40499" lon="83.7767">
        <ele>2232.32</ele>
        <time>2013-11-03T04:12:10Z</time>
      </trkpt>
      <trkpt lat="28.40502" lon="83.77667">
        <ele>2229.43</ele>
        <time>2013-11-03T04:12:26Z</time>
      </trkpt>
      <trkpt lat="28.40507" lon="83.77667">
        <ele>2227.99</ele>
        <time>2013-11-03T04:12:41Z</time>
      </trkpt>
      <trkpt lat="28.40508" lon="83.77667">
        <ele>2227.99</ele>
        <time>2013-11-03T04:13:05Z</time>
      </trkpt>
      <trkpt lat="28.40509" lon="83.77668">
        <ele>2227.51</ele>
        <time>2013-11-03T04:13:24Z</time>
      </trkpt>
      <trkpt lat="28.40509" lon="83.77669">
        <ele>2226.07</ele>
        <time>2013-11-03T04:13:42Z</time>
      </trkpt>
      <trkpt lat="28.40508" lon="83.77672">
        <ele>2224.63</ele>
        <time>2013-11-03T04:13:55Z</time>
      </trkpt>
      <trkpt lat="28.40507" lon="83.77678">
        <ele>2222.22</ele>
        <time>2013-11-03T04:14:05Z</time>
      </trkpt>
      <trkpt lat="28.40503" lon="83.77683">
        <ele>2220.3</ele>
        <time>2013-11-03T04:14:18Z</time>
      </trkpt>
      <trkpt lat="28.40502" lon="83.77685">
        <ele>2219.82</ele>
        <time>2013-11-03T04:14:20Z</time>
      </trkpt>
      <trkpt lat="28.40499" lon="83.77686">
        <ele>2218.38</ele>
        <time>2013-11-03T04:14:35Z</time>
      </trkpt>
      <trkpt lat="28.40499" lon="83.77683">
        <ele>2217.9</ele>
        <time>2013-11-03T04:14:50Z</time>
      </trkpt>
      <trkpt lat="28.40498" lon="83.77683">
        <ele>2217.9</ele>
        <time>2013-11-03T04:15:17Z</time>
      </trkpt>
      <trkpt lat="28.40498" lon="83.77677">
        <ele>2218.38</ele>
        <time>2013-11-03T04:15:45Z</time>
      </trkpt>
      <trkpt lat="28.40497" lon="83.7768">
        <ele>2217.9</ele>
        <time>2013-11-03T04:16:01Z</time>
      </trkpt>
      <trkpt lat="28.40495" lon="83.77686">
        <ele>2214.05</ele>
        <time>2013-11-03T04:16:14Z</time>
      </trkpt>
      <trkpt lat="28.40489" lon="83.77688">
        <ele>2211.17</ele>
        <time>2013-11-03T04:16:25Z</time>
      </trkpt>
      <trkpt lat="28.40486" lon="83.77692">
        <ele>2208.77</ele>
        <time>2013-11-03T04:16:34Z</time>
      </trkpt>
      <trkpt lat="28.40486" lon="83.77693">
        <ele>2208.29</ele>
        <time>2013-11-03T04:16:35Z</time>
      </trkpt>
      <trkpt lat="28.40489" lon="83.77697">
        <ele>2207.32</ele>
        <time>2013-11-03T04:16:41Z</time>
      </trkpt>
      <trkpt lat="28.40496" lon="83.77705">
        <ele>2206.36</ele>
        <time>2013-11-03T04:16:51Z</time>
      </trkpt>
      <trkpt lat="28.40497" lon="83.77705">
        <ele>2206.36</ele>
        <time>2013-11-03T04:16:52Z</time>
      </trkpt>
      <trkpt lat="28.40511" lon="83.77698">
        <ele>2202.52</ele>
        <time>2013-11-03T04:17:07Z</time>
      </trkpt>
      <trkpt lat="28.40521" lon="83.77692">
        <ele>2199.63</ele>
        <time>2013-11-03T04:17:22Z</time>
      </trkpt>
      <trkpt lat="28.40529" lon="83.77688">
        <ele>2196.75</ele>
        <time>2013-11-03T04:17:33Z</time>
      </trkpt>
      <trkpt lat="28.40536" lon="83.77683">
        <ele>2194.35</ele>
        <time>2013-11-03T04:17:44Z</time>
      </trkpt>
      <trkpt lat="28.40543" lon="83.77674">
        <ele>2190.98</ele>
        <time>2013-11-03T04:18:00Z</time>
      </trkpt>
      <trkpt lat="28.40546" lon="83.77673">
        <ele>2189.54</ele>
        <time>2013-11-03T04:18:16Z</time>
      </trkpt>
      <trkpt lat="28.40549" lon="83.7767">
        <ele>2187.62</ele>
        <time>2013-11-03T04:18:25Z</time>
      </trkpt>
      <trkpt lat="28.40567" lon="83.77667">
        <ele>2185.69</ele>
        <time>2013-11-03T04:18:37Z</time>
      </trkpt>
      <trkpt lat="28.40569" lon="83.77664">
        <ele>2185.21</ele>
        <time>2013-11-03T04:18:42Z</time>
      </trkpt>
      <trkpt lat="28.40573" lon="83.7766">
        <ele>2184.25</ele>
        <time>2013-11-03T04:18:57Z</time>
      </trkpt>
      <trkpt lat="28.40579" lon="83.77658">
        <ele>2183.29</ele>
        <time>2013-11-03T04:19:15Z</time>
      </trkpt>
      <trkpt lat="28.40587" lon="83.77654">
        <ele>2181.85</ele>
        <time>2013-11-03T04:19:29Z</time>
      </trkpt>
      <trkpt lat="28.40599" lon="83.7765">
        <ele>2180.41</ele>
        <time>2013-11-03T04:19:42Z</time>
      </trkpt>
      <trkpt lat="28.40605" lon="83.77648">
        <ele>2179.45</ele>
        <time>2013-11-03T04:19:57Z</time>
      </trkpt>
      <trkpt lat="28.40609" lon="83.77648">
        <ele>2178.97</ele>
        <time>2013-11-03T04:20:12Z</time>
      </trkpt>
      <trkpt lat="28.40616" lon="83.77647">
        <ele>2176.56</ele>
        <time>2013-11-03T04:20:25Z</time>
      </trkpt>
      <trkpt lat="28.40621" lon="83.77649">
        <ele>2175.6</ele>
        <time>2013-11-03T04:20:32Z</time>
      </trkpt>
      <trkpt lat="28.4063" lon="83.77653">
        <ele>2174.16</ele>
        <time>2013-11-03T04:20:43Z</time>
      </trkpt>
      <trkpt lat="28.40636" lon="83.77653">
        <ele>2174.16</ele>
        <time>2013-11-03T04:20:49Z</time>
      </trkpt>
      <trkpt lat="28.40643" lon="83.77655">
        <ele>2174.16</ele>
        <time>2013-11-03T04:20:56Z</time>
      </trkpt>
      <trkpt lat="28.40654" lon="83.77658">
        <ele>2174.16</ele>
        <time>2013-11-03T04:21:14Z</time>
      </trkpt>
      <trkpt lat="28.40663" lon="83.77658">
        <ele>2171.27</ele>
        <time>2013-11-03T04:21:30Z</time>
      </trkpt>
      <trkpt lat="28.40674" lon="83.77655">
        <ele>2169.35</ele>
        <time>2013-11-03T04:21:46Z</time>
      </trkpt>
      <trkpt lat="28.40684" lon="83.77655">
        <ele>2167.91</ele>
        <time>2013-11-03T04:22:03Z</time>
      </trkpt>
      <trkpt lat="28.40692" lon="83.77657">
        <ele>2167.43</ele>
        <time>2013-11-03T04:22:16Z</time>
      </trkpt>
      <trkpt lat="28.40694" lon="83.77658">
        <ele>2165.99</ele>
        <time>2013-11-03T04:22:21Z</time>
      </trkpt>
      <trkpt lat="28.40703" lon="83.77661">
        <ele>2164.55</ele>
        <time>2013-11-03T04:22:34Z</time>
      </trkpt>
      <trkpt lat="28.40703" lon="83.77667">
        <ele>2163.58</ele>
        <time>2013-11-03T04:22:43Z</time>
      </trkpt>
      <trkpt lat="28.40711" lon="83.77671">
        <ele>2162.62</ele>
        <time>2013-11-03T04:22:57Z</time>
      </trkpt>
      <trkpt lat="28.40712" lon="83.77675">
        <ele>2160.22</ele>
        <time>2013-11-03T04:23:10Z</time>
      </trkpt>
      <trkpt lat="28.40712" lon="83.77675">
        <ele>2160.22</ele>
        <time>2013-11-03T04:23:11Z</time>
      </trkpt>
      <trkpt lat="28.40711" lon="83.77683">
        <ele>2158.78</ele>
        <time>2013-11-03T04:23:24Z</time>
      </trkpt>
      <trkpt lat="28.40711" lon="83.77683">
        <ele>2157.82</ele>
        <time>2013-11-03T04:23:32Z</time>
      </trkpt>
      <trkpt lat="28.40718" lon="83.77681">
        <ele>2156.37</ele>
        <time>2013-11-03T04:23:47Z</time>
      </trkpt>
      <trkpt lat="28.40718" lon="83.77681">
        <ele>2155.89</ele>
        <time>2013-11-03T04:23:48Z</time>
      </trkpt>
      <trkpt lat="28.4073" lon="83.77679">
        <ele>2154.45</ele>
        <time>2013-11-03T04:24:04Z</time>
      </trkpt>
      <trkpt lat="28.40731" lon="83.77678">
        <ele>2153.49</ele>
        <time>2013-11-03T04:24:17Z</time>
      </trkpt>
      <trkpt lat="28.4074" lon="83.77678">
        <ele>2151.57</ele>
        <time>2013-11-03T04:24:29Z</time>
      </trkpt>
      <trkpt lat="28.40746" lon="83.77677">
        <ele>2149.16</ele>
        <time>2013-11-03T04:24:44Z</time>
      </trkpt>
      <trkpt lat="28.40756" lon="83.77679">
        <ele>2146.76</ele>
        <time>2013-11-03T04:24:59Z</time>
      </trkpt>
      <trkpt lat="28.40758" lon="83.77681">
        <ele>2144.36</ele>
        <time>2013-11-03T04:25:15Z</time>
      </trkpt>
      <trkpt lat="28.40758" lon="83.77685">
        <ele>2142.92</ele>
        <time>2013-11-03T04:25:29Z</time>
      </trkpt>
      <trkpt lat="28.40758" lon="83.77693">
        <ele>2140.51</ele>
        <time>2013-11-03T04:25:42Z</time>
      </trkpt>
      <trkpt lat="28.4076" lon="83.77699">
        <ele>2139.55</ele>
        <time>2013-11-03T04:25:53Z</time>
      </trkpt>
      <trkpt lat="28.4076" lon="83.77703">
        <ele>2138.11</ele>
        <time>2013-11-03T04:26:06Z</time>
      </trkpt>
      <trkpt lat="28.4076" lon="83.77704">
        <ele>2138.11</ele>
        <time>2013-11-03T04:26:32Z</time>
      </trkpt>
      <trkpt lat="28.40761" lon="83.77708">
        <ele>2136.19</ele>
        <time>2013-11-03T04:26:46Z</time>
      </trkpt>
      <trkpt lat="28.40762" lon="83.77711">
        <ele>2134.26</ele>
        <time>2013-11-03T04:26:57Z</time>
      </trkpt>
      <trkpt lat="28.40757" lon="83.77715">
        <ele>2132.82</ele>
        <time>2013-11-03T04:27:08Z</time>
      </trkpt>
      <trkpt lat="28.40756" lon="83.77717">
        <ele>2132.34</ele>
        <time>2013-11-03T04:27:12Z</time>
      </trkpt>
      <trkpt lat="28.40748" lon="83.7772">
        <ele>2131.86</ele>
        <time>2013-11-03T04:27:22Z</time>
      </trkpt>
      <trkpt lat="28.40746" lon="83.77721">
        <ele>2131.86</ele>
        <time>2013-11-03T04:27:27Z</time>
      </trkpt>
      <trkpt lat="28.4074" lon="83.77727">
        <ele>2131.38</ele>
        <time>2013-11-03T04:27:41Z</time>
      </trkpt>
      <trkpt lat="28.40735" lon="83.77729">
        <ele>2129.46</ele>
        <time>2013-11-03T04:27:57Z</time>
      </trkpt>
      <trkpt lat="28.40734" lon="83.77733">
        <ele>2127.53</ele>
        <time>2013-11-03T04:28:13Z</time>
      </trkpt>
      <trkpt lat="28.40732" lon="83.77735">
        <ele>2126.09</ele>
        <time>2013-11-03T04:28:26Z</time>
      </trkpt>
      <trkpt lat="28.40736" lon="83.77742">
        <ele>2123.69</ele>
        <time>2013-11-03T04:28:37Z</time>
      </trkpt>
      <trkpt lat="28.40741" lon="83.77749">
        <ele>2121.29</ele>
        <time>2013-11-03T04:28:51Z</time>
      </trkpt>
      <trkpt lat="28.40744" lon="83.77751">
        <ele>2119.84</ele>
        <time>2013-11-03T04:29:05Z</time>
      </trkpt>
      <trkpt lat="28.4075" lon="83.77754">
        <ele>2117.92</ele>
        <time>2013-11-03T04:29:20Z</time>
      </trkpt>
      <trkpt lat="28.40749" lon="83.77758">
        <ele>2116.96</ele>
        <time>2013-11-03T04:29:27Z</time>
      </trkpt>
      <trkpt lat="28.40748" lon="83.77761">
        <ele>2114.56</ele>
        <time>2013-11-03T04:29:41Z</time>
      </trkpt>
      <trkpt lat="28.40751" lon="83.77765">
        <ele>2112.63</ele>
        <time>2013-11-03T04:29:50Z</time>
      </trkpt>
      <trkpt lat="28.4076" lon="83.77769">
        <ele>2110.23</ele>
        <time>2013-11-03T04:30:04Z</time>
      </trkpt>
      <trkpt lat="28.40772" lon="83.77768">
        <ele>2108.31</ele>
        <time>2013-11-03T04:30:19Z</time>
      </trkpt>
      <trkpt lat="28.40774" lon="83.77772">
        <ele>2106.39</ele>
        <time>2013-11-03T04:30:33Z</time>
      </trkpt>
      <trkpt lat="28.40774" lon="83.77773">
        <ele>2105.91</ele>
        <time>2013-11-03T04:30:35Z</time>
      </trkpt>
      <trkpt lat="28.4078" lon="83.77778">
        <ele>2104.46</ele>
        <time>2013-11-03T04:30:50Z</time>
      </trkpt>
      <trkpt lat="28.40784" lon="83.77779">
        <ele>2103.5</ele>
        <time>2013-11-03T04:31:03Z</time>
      </trkpt>
      <trkpt lat="28.40784" lon="83.77782">
        <ele>2102.06</ele>
        <time>2013-11-03T04:31:16Z</time>
      </trkpt>
      <trkpt lat="28.40785" lon="83.77786">
        <ele>2100.62</ele>
        <time>2013-11-03T04:31:30Z</time>
      </trkpt>
      <trkpt lat="28.40782" lon="83.77785">
        <ele>2099.18</ele>
        <time>2013-11-03T04:31:41Z</time>
      </trkpt>
      <trkpt lat="28.40779" lon="83.77786">
        <ele>2097.25</ele>
        <time>2013-11-03T04:31:55Z</time>
      </trkpt>
      <trkpt lat="28.40776" lon="83.77786">
        <ele>2095.33</ele>
        <time>2013-11-03T04:32:11Z</time>
      </trkpt>
      <trkpt lat="28.40772" lon="83.77789">
        <ele>2094.37</ele>
        <time>2013-11-03T04:32:25Z</time>
      </trkpt>
      <trkpt lat="28.40775" lon="83.77791">
        <ele>2092.45</ele>
        <time>2013-11-03T04:32:38Z</time>
      </trkpt>
      <trkpt lat="28.40776" lon="83.77794">
        <ele>2089.56</ele>
        <time>2013-11-03T04:32:54Z</time>
      </trkpt>
      <trkpt lat="28.40777" lon="83.77796">
        <ele>2088.12</ele>
        <time>2013-11-03T04:33:05Z</time>
      </trkpt>
      <trkpt lat="28.40782" lon="83.77804">
        <ele>2085.24</ele>
        <time>2013-11-03T04:33:20Z</time>
      </trkpt>
      <trkpt lat="28.40784" lon="83.77806">
        <ele>2084.28</ele>
        <time>2013-11-03T04:33:37Z</time>
      </trkpt>
      <trkpt lat="28.40787" lon="83.77808">
        <ele>2082.83</ele>
        <time>2013-11-03T04:33:56Z</time>
      </trkpt>
      <trkpt lat="28.40796" lon="83.77811">
        <ele>2079.95</ele>
        <time>2013-11-03T04:34:13Z</time>
      </trkpt>
      <trkpt lat="28.40794" lon="83.77815">
        <ele>2078.03</ele>
        <time>2013-11-03T04:34:27Z</time>
      </trkpt>
      <trkpt lat="28.40791" lon="83.77819">
        <ele>2075.62</ele>
        <time>2013-11-03T04:34:43Z</time>
      </trkpt>
      <trkpt lat="28.40794" lon="83.77817">
        <ele>2074.18</ele>
        <time>2013-11-03T04:34:55Z</time>
      </trkpt>
      <trkpt lat="28.40794" lon="83.7782">
        <ele>2073.22</ele>
        <time>2013-11-03T04:35:06Z</time>
      </trkpt>
      <trkpt lat="28.40788" lon="83.77827">
        <ele>2070.82</ele>
        <time>2013-11-03T04:35:19Z</time>
      </trkpt>
      <trkpt lat="28.40783" lon="83.7783">
        <ele>2068.89</ele>
        <time>2013-11-03T04:35:33Z</time>
      </trkpt>
      <trkpt lat="28.40781" lon="83.77833">
        <ele>2066.97</ele>
        <time>2013-11-03T04:35:47Z</time>
      </trkpt>
      <trkpt lat="28.40783" lon="83.77836">
        <ele>2065.53</ele>
        <time>2013-11-03T04:36:00Z</time>
      </trkpt>
      <trkpt lat="28.40785" lon="83.77838">
        <ele>2063.13</ele>
        <time>2013-11-03T04:36:14Z</time>
      </trkpt>
      <trkpt lat="28.40785" lon="83.7784">
        <ele>2061.2</ele>
        <time>2013-11-03T04:36:29Z</time>
      </trkpt>
      <trkpt lat="28.40785" lon="83.77843">
        <ele>2059.28</ele>
        <time>2013-11-03T04:36:38Z</time>
      </trkpt>
      <trkpt lat="28.40788" lon="83.77845">
        <ele>2058.8</ele>
        <time>2013-11-03T04:36:50Z</time>
      </trkpt>
      <trkpt lat="28.40788" lon="83.77846">
        <ele>2058.32</ele>
        <time>2013-11-03T04:37:05Z</time>
      </trkpt>
      <trkpt lat="28.40789" lon="83.77851">
        <ele>2056.88</ele>
        <time>2013-11-03T04:37:32Z</time>
      </trkpt>
      <trkpt lat="28.40789" lon="83.77854">
        <ele>2055.44</ele>
        <time>2013-11-03T04:37:37Z</time>
      </trkpt>
      <trkpt lat="28.4079" lon="83.77856">
        <ele>2054.47</ele>
        <time>2013-11-03T04:37:39Z</time>
      </trkpt>
      <trkpt lat="28.40801" lon="83.77854">
        <ele>2051.59</ele>
        <time>2013-11-03T04:37:52Z</time>
      </trkpt>
      <trkpt lat="28.40799" lon="83.7786">
        <ele>2048.71</ele>
        <time>2013-11-03T04:38:05Z</time>
      </trkpt>
      <trkpt lat="28.40801" lon="83.77861">
        <ele>2047.26</ele>
        <time>2013-11-03T04:38:14Z</time>
      </trkpt>
      <trkpt lat="28.40796" lon="83.77867">
        <ele>2043.9</ele>
        <time>2013-11-03T04:38:29Z</time>
      </trkpt>
      <trkpt lat="28.40788" lon="83.77871">
        <ele>2042.46</ele>
        <time>2013-11-03T04:38:40Z</time>
      </trkpt>
      <trkpt lat="28.40781" lon="83.77873">
        <ele>2041.98</ele>
        <time>2013-11-03T04:38:46Z</time>
      </trkpt>
      <trkpt lat="28.40774" lon="83.77877">
        <ele>2040.05</ele>
        <time>2013-11-03T04:39:00Z</time>
      </trkpt>
      <trkpt lat="28.4078" lon="83.77884">
        <ele>2038.13</ele>
        <time>2013-11-03T04:39:17Z</time>
      </trkpt>
      <trkpt lat="28.40784" lon="83.7789">
        <ele>2036.69</ele>
        <time>2013-11-03T04:39:31Z</time>
      </trkpt>
      <trkpt lat="28.40786" lon="83.77892">
        <ele>2034.77</ele>
        <time>2013-11-03T04:39:46Z</time>
      </trkpt>
      <trkpt lat="28.40789" lon="83.77901">
        <ele>2032.36</ele>
        <time>2013-11-03T04:40:00Z</time>
      </trkpt>
      <trkpt lat="28.40788" lon="83.77901">
        <ele>2031.88</ele>
        <time>2013-11-03T04:40:18Z</time>
      </trkpt>
      <trkpt lat="28.40787" lon="83.779">
        <ele>2031.88</ele>
        <time>2013-11-03T04:40:40Z</time>
      </trkpt>
      <trkpt lat="28.40788" lon="83.779">
        <ele>2031.88</ele>
        <time>2013-11-03T04:41:01Z</time>
      </trkpt>
      <trkpt lat="28.40786" lon="83.77901">
        <ele>2030.92</ele>
        <time>2013-11-03T04:41:20Z</time>
      </trkpt>
      <trkpt lat="28.40787" lon="83.77904">
        <ele>2030.44</ele>
        <time>2013-11-03T04:41:45Z</time>
      </trkpt>
      <trkpt lat="28.40786" lon="83.77905">
        <ele>2028.52</ele>
        <time>2013-11-03T04:42:03Z</time>
      </trkpt>
      <trkpt lat="28.40787" lon="83.77907">
        <ele>2027.56</ele>
        <time>2013-11-03T04:42:23Z</time>
      </trkpt>
      <trkpt lat="28.40785" lon="83.77912">
        <ele>2024.67</ele>
        <time>2013-11-03T04:42:38Z</time>
      </trkpt>
      <trkpt lat="28.40784" lon="83.77917">
        <ele>2022.75</ele>
        <time>2013-11-03T04:42:53Z</time>
      </trkpt>
      <trkpt lat="28.40788" lon="83.77927">
        <ele>2018.91</ele>
        <time>2013-11-03T04:43:09Z</time>
      </trkpt>
      <trkpt lat="28.40788" lon="83.77932">
        <ele>2016.5</ele>
        <time>2013-11-03T04:43:24Z</time>
      </trkpt>
      <trkpt lat="28.40788" lon="83.77937">
        <ele>2015.06</ele>
        <time>2013-11-03T04:43:37Z</time>
      </trkpt>
      <trkpt lat="28.40796" lon="83.77942">
        <ele>2012.18</ele>
        <time>2013-11-03T04:43:52Z</time>
      </trkpt>
      <trkpt lat="28.40799" lon="83.77943">
        <ele>2010.25</ele>
        <time>2013-11-03T04:44:08Z</time>
      </trkpt>
      <trkpt lat="28.40799" lon="83.77943">
        <ele>2009.77</ele>
        <time>2013-11-03T04:44:17Z</time>
      </trkpt>
      <trkpt lat="28.40796" lon="83.77947">
        <ele>2006.89</ele>
        <time>2013-11-03T04:44:27Z</time>
      </trkpt>
      <trkpt lat="28.40799" lon="83.77951">
        <ele>2005.93</ele>
        <time>2013-11-03T04:44:37Z</time>
      </trkpt>
      <trkpt lat="28.40798" lon="83.77955">
        <ele>2004.49</ele>
        <time>2013-11-03T04:44:42Z</time>
      </trkpt>
      <trkpt lat="28.40808" lon="83.77955">
        <ele>2001.12</ele>
        <time>2013-11-03T04:44:56Z</time>
      </trkpt>
      <trkpt lat="28.40806" lon="83.7796">
        <ele>1999.68</ele>
        <time>2013-11-03T04:45:06Z</time>
      </trkpt>
      <trkpt lat="28.40797" lon="83.77973">
        <ele>1997.28</ele>
        <time>2013-11-03T04:45:21Z</time>
      </trkpt>
      <trkpt lat="28.40797" lon="83.77974">
        <ele>1996.8</ele>
        <time>2013-11-03T04:45:22Z</time>
      </trkpt>
      <trkpt lat="28.40794" lon="83.7798">
        <ele>1995.35</ele>
        <time>2013-11-03T04:45:39Z</time>
      </trkpt>
      <trkpt lat="28.40793" lon="83.7798">
        <ele>1994.39</ele>
        <time>2013-11-03T04:45:53Z</time>
      </trkpt>
      <trkpt lat="28.40787" lon="83.77982">
        <ele>1991.51</ele>
        <time>2013-11-03T04:46:07Z</time>
      </trkpt>
      <trkpt lat="28.40779" lon="83.77981">
        <ele>1989.59</ele>
        <time>2013-11-03T04:46:23Z</time>
      </trkpt>
      <trkpt lat="28.40776" lon="83.77984">
        <ele>1987.18</ele>
        <time>2013-11-03T04:46:39Z</time>
      </trkpt>
      <trkpt lat="28.4077" lon="83.77987">
        <ele>1984.3</ele>
        <time>2013-11-03T04:46:52Z</time>
      </trkpt>
      <trkpt lat="28.40762" lon="83.77988">
        <ele>1981.41</ele>
        <time>2013-11-03T04:47:08Z</time>
      </trkpt>
      <trkpt lat="28.40758" lon="83.7799">
        <ele>1979.97</ele>
        <time>2013-11-03T04:47:23Z</time>
      </trkpt>
      <trkpt lat="28.40764" lon="83.77996">
        <ele>1977.57</ele>
        <time>2013-11-03T04:47:35Z</time>
      </trkpt>
      <trkpt lat="28.40768" lon="83.78003">
        <ele>1975.65</ele>
        <time>2013-11-03T04:47:50Z</time>
      </trkpt>
      <trkpt lat="28.40771" lon="83.78011">
        <ele>1975.65</ele>
        <time>2013-11-03T04:47:58Z</time>
      </trkpt>
      <trkpt lat="28.40774" lon="83.78013">
        <ele>1975.65</ele>
        <time>2013-11-03T04:48:14Z</time>
      </trkpt>
      <trkpt lat="28.40777" lon="83.78015">
        <ele>1975.65</ele>
        <time>2013-11-03T04:48:26Z</time>
      </trkpt>
      <trkpt lat="28.40777" lon="83.78015">
        <ele>1975.17</ele>
        <time>2013-11-03T04:48:46Z</time>
      </trkpt>
      <trkpt lat="28.40778" lon="83.78016">
        <ele>1975.17</ele>
        <time>2013-11-03T04:49:07Z</time>
      </trkpt>
      <trkpt lat="28.40777" lon="83.78015">
        <ele>1974.69</ele>
        <time>2013-11-03T04:49:27Z</time>
      </trkpt>
      <trkpt lat="28.40779" lon="83.78011">
        <ele>1974.2</ele>
        <time>2013-11-03T04:49:51Z</time>
      </trkpt>
      <trkpt lat="28.40779" lon="83.78014">
        <ele>1974.2</ele>
        <time>2013-11-03T04:50:14Z</time>
      </trkpt>
      <trkpt lat="28.40777" lon="83.78016">
        <ele>1973.72</ele>
        <time>2013-11-03T04:50:40Z</time>
      </trkpt>
      <trkpt lat="28.40778" lon="83.78014">
        <ele>1973.72</ele>
        <time>2013-11-03T04:51:02Z</time>
      </trkpt>
      <trkpt lat="28.40781" lon="83.78012">
        <ele>1973.24</ele>
        <time>2013-11-03T04:51:27Z</time>
      </trkpt>
      <trkpt lat="28.4078" lon="83.78015">
        <ele>1973.24</ele>
        <time>2013-11-03T04:51:40Z</time>
      </trkpt>
      <trkpt lat="28.40778" lon="83.78016">
        <ele>1973.24</ele>
        <time>2013-11-03T04:51:44Z</time>
      </trkpt>
      <trkpt lat="28.40772" lon="83.78023">
        <ele>1973.24</ele>
        <time>2013-11-03T04:52:03Z</time>
      </trkpt>
      <trkpt lat="28.40773" lon="83.7802">
        <ele>1972.76</ele>
        <time>2013-11-03T04:52:27Z</time>
      </trkpt>
      <trkpt lat="28.40774" lon="83.78019">
        <ele>1972.28</ele>
        <time>2013-11-03T04:52:54Z</time>
      </trkpt>
      <trkpt lat="28.40774" lon="83.78019">
        <ele>1972.28</ele>
        <time>2013-11-03T04:53:18Z</time>
      </trkpt>
      <trkpt lat="28.40774" lon="83.78018">
        <ele>1971.8</ele>
        <time>2013-11-03T04:53:39Z</time>
      </trkpt>
      <trkpt lat="28.40777" lon="83.78016">
        <ele>1971.8</ele>
        <time>2013-11-03T04:53:55Z</time>
      </trkpt>
      <trkpt lat="28.40802" lon="83.77984">
        <ele>1971.8</ele>
        <time>2013-11-03T04:54:17Z</time>
      </trkpt>
      <trkpt lat="28.40819" lon="83.77962">
        <ele>1971.8</ele>
        <time>2013-11-03T04:54:50Z</time>
      </trkpt>
      <trkpt lat="28.40821" lon="83.77957">
        <ele>1971.8</ele>
        <time>2013-11-03T04:55:11Z</time>
      </trkpt>
      <trkpt lat="28.40818" lon="83.77959">
        <ele>1971.8</ele>
        <time>2013-11-03T04:55:41Z</time>
      </trkpt>
      <trkpt lat="28.40813" lon="83.77968">
        <ele>1971.8</ele>
        <time>2013-11-03T04:56:12Z</time>
      </trkpt>
      <trkpt lat="28.4081" lon="83.77981">
        <ele>1971.8</ele>
        <time>2013-11-03T04:56:35Z</time>
      </trkpt>
      <trkpt lat="28.40803" lon="83.77991">
        <ele>1971.8</ele>
        <time>2013-11-03T04:57:03Z</time>
      </trkpt>
      <trkpt lat="28.40793" lon="83.78003">
        <ele>1971.8</ele>
        <time>2013-11-03T04:57:27Z</time>
      </trkpt>
      <trkpt lat="28.40776" lon="83.78021">
        <ele>1971.8</ele>
        <time>2013-11-03T04:57:51Z</time>
      </trkpt>
      <trkpt lat="28.40776" lon="83.78021">
        <ele>1971.8</ele>
        <time>2013-11-03T04:58:14Z</time>
      </trkpt>
      <trkpt lat="28.40772" lon="83.78021">
        <ele>1972.28</ele>
        <time>2013-11-03T04:58:33Z</time>
      </trkpt>
      <trkpt lat="28.40773" lon="83.78019">
        <ele>1971.32</ele>
        <time>2013-11-03T04:58:59Z</time>
      </trkpt>
      <trkpt lat="28.40773" lon="83.7802">
        <ele>1971.32</ele>
        <time>2013-11-03T04:59:24Z</time>
      </trkpt>
      <trkpt lat="28.4077" lon="83.78024">
        <ele>1971.32</ele>
        <time>2013-11-03T04:59:50Z</time>
      </trkpt>
      <trkpt lat="28.40772" lon="83.78024">
        <ele>1971.32</ele>
        <time>2013-11-03T05:00:18Z</time>
      </trkpt>
      <trkpt lat="28.40772" lon="83.78022">
        <ele>1970.84</ele>
        <time>2013-11-03T05:00:44Z</time>
      </trkpt>
      <trkpt lat="28.40774" lon="83.78021">
        <ele>1970.84</ele>
        <time>2013-11-03T05:01:11Z</time>
      </trkpt>
      <trkpt lat="28.40772" lon="83.78021">
        <ele>1970.84</ele>
        <time>2013-11-03T05:01:36Z</time>
      </trkpt>
      <trkpt lat="28.40772" lon="83.7802">
        <ele>1970.84</ele>
        <time>2013-11-03T05:02:05Z</time>
      </trkpt>
      <trkpt lat="28.40772" lon="83.7802">
        <ele>1970.84</ele>
        <time>2013-11-03T05:02:31Z</time>
      </trkpt>
      <trkpt lat="28.40773" lon="83.7802">
        <ele>1970.84</ele>
        <time>2013-11-03T05:02:57Z</time>
      </trkpt>
      <trkpt lat="28.40774" lon="83.7802">
        <ele>1970.36</ele>
        <time>2013-11-03T05:03:20Z</time>
      </trkpt>
      <trkpt lat="28.40775" lon="83.78019">
        <ele>1970.36</ele>
        <time>2013-11-03T05:03:44Z</time>
      </trkpt>
      <trkpt lat="28.40779" lon="83.78013">
        <ele>1970.84</ele>
        <time>2013-11-03T05:04:09Z</time>
      </trkpt>
      <trkpt lat="28.40778" lon="83.78012">
        <ele>1970.84</ele>
        <time>2013-11-03T05:04:17Z</time>
      </trkpt>
      <trkpt lat="28.40774" lon="83.78008">
        <ele>1970.84</ele>
        <time>2013-11-03T05:04:22Z</time>
      </trkpt>
      <trkpt lat="28.4077" lon="83.78006">
        <ele>1970.84</ele>
        <time>2013-11-03T05:04:34Z</time>
      </trkpt>
      <trkpt lat="28.40771" lon="83.78002">
        <ele>1970.84</ele>
        <time>2013-11-03T05:04:57Z</time>
      </trkpt>
      <trkpt lat="28.40772" lon="83.78004">
        <ele>1970.36</ele>
        <time>2013-11-03T05:05:19Z</time>
      </trkpt>
      <trkpt lat="28.40772" lon="83.78001">
        <ele>1971.32</ele>
        <time>2013-11-03T05:05:24Z</time>
      </trkpt>
      <trkpt lat="28.40772" lon="83.78">
        <ele>1970.36</ele>
        <time>2013-11-03T05:05:41Z</time>
      </trkpt>
      <trkpt lat="28.40778" lon="83.7801">
        <ele>1969.88</ele>
        <time>2013-11-03T05:05:52Z</time>
      </trkpt>
      <trkpt lat="28.40776" lon="83.78016">
        <ele>1969.88</ele>
        <time>2013-11-03T05:06:11Z</time>
      </trkpt>
      <trkpt lat="28.40776" lon="83.78018">
        <ele>1969.4</ele>
        <time>2013-11-03T05:06:38Z</time>
      </trkpt>
      <trkpt lat="28.40776" lon="83.78019">
        <ele>1969.4</ele>
        <time>2013-11-03T05:07:08Z</time>
      </trkpt>
      <trkpt lat="28.40776" lon="83.78018">
        <ele>1969.4</ele>
        <time>2013-11-03T05:07:36Z</time>
      </trkpt>
      <trkpt lat="28.40776" lon="83.78018">
        <ele>1969.4</ele>
        <time>2013-11-03T05:08:04Z</time>
      </trkpt>
      <trkpt lat="28.40776" lon="83.78018">
        <ele>1969.4</ele>
        <time>2013-11-03T05:08:34Z</time>
      </trkpt>
      <trkpt lat="28.40778" lon="83.78016">
        <ele>1969.4</ele>
        <time>2013-11-03T05:08:56Z</time>
      </trkpt>
      <trkpt lat="28.40771" lon="83.78022">
        <ele>1969.4</ele>
        <time>2013-11-03T05:09:10Z</time>
      </trkpt>
      <trkpt lat="28.40771" lon="83.78021">
        <ele>1969.4</ele>
        <time>2013-11-03T05:09:26Z</time>
      </trkpt>
      <trkpt lat="28.40772" lon="83.7802">
        <ele>1969.4</ele>
        <time>2013-11-03T05:09:44Z</time>
      </trkpt>
      <trkpt lat="28.40772" lon="83.7802">
        <ele>1969.4</ele>
        <time>2013-11-03T05:10:09Z</time>
      </trkpt>
      <trkpt lat="28.40773" lon="83.78018">
        <ele>1968.92</ele>
        <time>2013-11-03T05:10:22Z</time>
      </trkpt>
      <trkpt lat="28.40772" lon="83.78024">
        <ele>1968.44</ele>
        <time>2013-11-03T05:10:35Z</time>
      </trkpt>
      <trkpt lat="28.40773" lon="83.78031">
        <ele>1968.44</ele>
        <time>2013-11-03T05:10:47Z</time>
      </trkpt>
      <trkpt lat="28.40773" lon="83.78035">
        <ele>1966.99</ele>
        <time>2013-11-03T05:10:52Z</time>
      </trkpt>
      <trkpt lat="28.40773" lon="83.78046">
        <ele>1964.11</ele>
        <time>2013-11-03T05:11:07Z</time>
      </trkpt>
      <trkpt lat="28.40773" lon="83.78049">
        <ele>1962.67</ele>
        <time>2013-11-03T05:11:24Z</time>
      </trkpt>
      <trkpt lat="28.40769" lon="83.78055">
        <ele>1961.71</ele>
        <time>2013-11-03T05:11:33Z</time>
      </trkpt>
      <trkpt lat="28.40766" lon="83.78063">
        <ele>1958.34</ele>
        <time>2013-11-03T05:11:45Z</time>
      </trkpt>
      <trkpt lat="28.40765" lon="83.78068">
        <ele>1955.94</ele>
        <time>2013-11-03T05:11:57Z</time>
      </trkpt>
      <trkpt lat="28.40763" lon="83.78074">
        <ele>1953.54</ele>
        <time>2013-11-03T05:12:09Z</time>
      </trkpt>
      <trkpt lat="28.40761" lon="83.78077">
        <ele>1952.09</ele>
        <time>2013-11-03T05:12:15Z</time>
      </trkpt>
      <trkpt lat="28.4077" lon="83.78079">
        <ele>1950.17</ele>
        <time>2013-11-03T05:12:25Z</time>
      </trkpt>
      <trkpt lat="28.4078" lon="83.78075">
        <ele>1949.21</ele>
        <time>2013-11-03T05:12:33Z</time>
      </trkpt>
      <trkpt lat="28.40783" lon="83.78073">
        <ele>1948.25</ele>
        <time>2013-11-03T05:12:36Z</time>
      </trkpt>
      <trkpt lat="28.40795" lon="83.78071">
        <ele>1947.29</ele>
        <time>2013-11-03T05:12:48Z</time>
      </trkpt>
      <trkpt lat="28.40796" lon="83.78071">
        <ele>1946.81</ele>
        <time>2013-11-03T05:12:49Z</time>
      </trkpt>
      <trkpt lat="28.40805" lon="83.78067">
        <ele>1943.44</ele>
        <time>2013-11-03T05:13:01Z</time>
      </trkpt>
      <trkpt lat="28.40807" lon="83.78066">
        <ele>1942.48</ele>
        <time>2013-11-03T05:13:08Z</time>
      </trkpt>
      <trkpt lat="28.40817" lon="83.78058">
        <ele>1940.56</ele>
        <time>2013-11-03T05:13:19Z</time>
      </trkpt>
      <trkpt lat="28.40824" lon="83.78052">
        <ele>1939.6</ele>
        <time>2013-11-03T05:13:26Z</time>
      </trkpt>
      <trkpt lat="28.40837" lon="83.78051">
        <ele>1937.19</ele>
        <time>2013-11-03T05:13:40Z</time>
      </trkpt>
      <trkpt lat="28.40844" lon="83.78052">
        <ele>1934.31</ele>
        <time>2013-11-03T05:13:50Z</time>
      </trkpt>
      <trkpt lat="28.40848" lon="83.78052">
        <ele>1932.39</ele>
        <time>2013-11-03T05:14:05Z</time>
      </trkpt>
      <trkpt lat="28.40849" lon="83.78054">
        <ele>1932.39</ele>
        <time>2013-11-03T05:14:28Z</time>
      </trkpt>
      <trkpt lat="28.40848" lon="83.78055">
        <ele>1931.91</ele>
        <time>2013-11-03T05:14:56Z</time>
      </trkpt>
      <trkpt lat="28.40848" lon="83.78061">
        <ele>1931.91</ele>
        <time>2013-11-03T05:15:24Z</time>
      </trkpt>
      <trkpt lat="28.40849" lon="83.78059">
        <ele>1931.91</ele>
        <time>2013-11-03T05:15:50Z</time>
      </trkpt>
      <trkpt lat="28.4085" lon="83.78057">
        <ele>1931.91</ele>
        <time>2013-11-03T05:16:07Z</time>
      </trkpt>
      <trkpt lat="28.40853" lon="83.78055">
        <ele>1929.98</ele>
        <time>2013-11-03T05:16:20Z</time>
      </trkpt>
      <trkpt lat="28.40859" lon="83.78051">
        <ele>1927.1</ele>
        <time>2013-11-03T05:16:35Z</time>
      </trkpt>
      <trkpt lat="28.40864" lon="83.7805">
        <ele>1923.74</ele>
        <time>2013-11-03T05:16:45Z</time>
      </trkpt>
      <trkpt lat="28.40864" lon="83.78057">
        <ele>1920.85</ele>
        <time>2013-11-03T05:17:00Z</time>
      </trkpt>
      <trkpt lat="28.40864" lon="83.78062">
        <ele>1917.97</ele>
        <time>2013-11-03T05:17:13Z</time>
      </trkpt>
      <trkpt lat="28.40863" lon="83.78067">
        <ele>1917.49</ele>
        <time>2013-11-03T05:17:19Z</time>
      </trkpt>
      <trkpt lat="28.40868" lon="83.78078">
        <ele>1916.53</ele>
        <time>2013-11-03T05:17:30Z</time>
      </trkpt>
      <trkpt lat="28.40872" lon="83.78088">
        <ele>1917.01</ele>
        <time>2013-11-03T05:17:41Z</time>
      </trkpt>
      <trkpt lat="28.40875" lon="83.78098">
        <ele>1917.97</ele>
        <time>2013-11-03T05:17:53Z</time>
      </trkpt>
      <trkpt lat="28.4088" lon="83.78105">
        <ele>1919.89</ele>
        <time>2013-11-03T05:18:07Z</time>
      </trkpt>
      <trkpt lat="28.40878" lon="83.78105">
        <ele>1919.89</ele>
        <time>2013-11-03T05:18:20Z</time>
      </trkpt>
      <trkpt lat="28.40883" lon="83.78103">
        <ele>1919.89</ele>
        <time>2013-11-03T05:18:38Z</time>
      </trkpt>
      <trkpt lat="28.40881" lon="83.78103">
        <ele>1919.89</ele>
        <time>2013-11-03T05:18:58Z</time>
      </trkpt>
      <trkpt lat="28.40859" lon="83.78087">
        <ele>1919.89</ele>
        <time>2013-11-03T05:19:19Z</time>
      </trkpt>
      <trkpt lat="28.40857" lon="83.78056">
        <ele>1919.89</ele>
        <time>2013-11-03T05:19:35Z</time>
      </trkpt>
      <trkpt lat="28.40855" lon="83.78043">
        <ele>1920.37</ele>
        <time>2013-11-03T05:19:59Z</time>
      </trkpt>
      <trkpt lat="28.40846" lon="83.78022">
        <ele>1920.37</ele>
        <time>2013-11-03T05:20:19Z</time>
      </trkpt>
      <trkpt lat="28.40855" lon="83.78023">
        <ele>1920.37</ele>
        <time>2013-11-03T05:20:39Z</time>
      </trkpt>
      <trkpt lat="28.40875" lon="83.78044">
        <ele>1923.25</ele>
        <time>2013-11-03T05:20:55Z</time>
      </trkpt>
      <trkpt lat="28.40879" lon="83.78049">
        <ele>1923.74</ele>
        <time>2013-11-03T05:21:08Z</time>
      </trkpt>
      <trkpt lat="28.40871" lon="83.78036">
        <ele>1923.25</ele>
        <time>2013-11-03T05:21:23Z</time>
      </trkpt>
      <trkpt lat="28.40868" lon="83.78036">
        <ele>1923.25</ele>
        <time>2013-11-03T05:21:44Z</time>
      </trkpt>
      <trkpt lat="28.4087" lon="83.78039">
        <ele>1923.25</ele>
        <time>2013-11-03T05:22:03Z</time>
      </trkpt>
      <trkpt lat="28.40872" lon="83.78044">
        <ele>1923.25</ele>
        <time>2013-11-03T05:22:22Z</time>
      </trkpt>
      <trkpt lat="28.40875" lon="83.78055">
        <ele>1926.62</ele>
        <time>2013-11-03T05:22:33Z</time>
      </trkpt>
      <trkpt lat="28.40871" lon="83.78064">
        <ele>1929.5</ele>
        <time>2013-11-03T05:22:45Z</time>
      </trkpt>
      <trkpt lat="28.40873" lon="83.78084">
        <ele>1932.87</ele>
        <time>2013-11-03T05:23:00Z</time>
      </trkpt>
      <trkpt lat="28.40872" lon="83.78097">
        <ele>1934.79</ele>
        <time>2013-11-03T05:23:10Z</time>
      </trkpt>
      <trkpt lat="28.40872" lon="83.78118">
        <ele>1937.19</ele>
        <time>2013-11-03T05:23:25Z</time>
      </trkpt>
      <trkpt lat="28.40871" lon="83.78124">
        <ele>1938.64</ele>
        <time>2013-11-03T05:23:42Z</time>
      </trkpt>
      <trkpt lat="28.40871" lon="83.78129">
        <ele>1938.64</ele>
        <time>2013-11-03T05:24:09Z</time>
      </trkpt>
      <trkpt lat="28.40835" lon="83.78086">
        <ele>1938.64</ele>
        <time>2013-11-03T05:24:39Z</time>
      </trkpt>
      <trkpt lat="28.40838" lon="83.78093">
        <ele>1940.56</ele>
        <time>2013-11-03T05:24:56Z</time>
      </trkpt>
      <trkpt lat="28.4084" lon="83.78081">
        <ele>1942</ele>
        <time>2013-11-03T05:25:11Z</time>
      </trkpt>
      <trkpt lat="28.40837" lon="83.78088">
        <ele>1944.4</ele>
        <time>2013-11-03T05:25:27Z</time>
      </trkpt>
      <trkpt lat="28.40834" lon="83.78088">
        <ele>1946.33</ele>
        <time>2013-11-03T05:25:41Z</time>
      </trkpt>
      <trkpt lat="28.40834" lon="83.78099">
        <ele>1949.21</ele>
        <time>2013-11-03T05:25:55Z</time>
      </trkpt>
      <trkpt lat="28.4085" lon="83.78148">
        <ele>1951.13</ele>
        <time>2013-11-03T05:26:07Z</time>
      </trkpt>
      <trkpt lat="28.40851" lon="83.78153">
        <ele>1953.54</ele>
        <time>2013-11-03T05:26:24Z</time>
      </trkpt>
      <trkpt lat="28.40852" lon="83.78156">
        <ele>1955.46</ele>
        <time>2013-11-03T05:26:41Z</time>
      </trkpt>
      <trkpt lat="28.40852" lon="83.78159">
        <ele>1957.38</ele>
        <time>2013-11-03T05:26:57Z</time>
      </trkpt>
      <trkpt lat="28.40852" lon="83.78161">
        <ele>1958.82</ele>
        <time>2013-11-03T05:27:14Z</time>
      </trkpt>
      <trkpt lat="28.40852" lon="83.7816">
        <ele>1961.71</ele>
        <time>2013-11-03T05:27:35Z</time>
      </trkpt>
      <trkpt lat="28.40854" lon="83.78166">
        <ele>1963.63</ele>
        <time>2013-11-03T05:27:50Z</time>
      </trkpt>
      <trkpt lat="28.40854" lon="83.78167">
        <ele>1965.07</ele>
        <time>2013-11-03T05:27:54Z</time>
      </trkpt>
      <trkpt lat="28.40853" lon="83.78171">
        <ele>1965.55</ele>
        <time>2013-11-03T05:28:12Z</time>
      </trkpt>
      <trkpt lat="28.40856" lon="83.78169">
        <ele>1966.99</ele>
        <time>2013-11-03T05:28:29Z</time>
      </trkpt>
      <trkpt lat="28.40861" lon="83.78173">
        <ele>1966.51</ele>
        <time>2013-11-03T05:29:01Z</time>
      </trkpt>
      <trkpt lat="28.40861" lon="83.78175">
        <ele>1967.96</ele>
        <time>2013-11-03T05:29:18Z</time>
      </trkpt>
      <trkpt lat="28.4086" lon="83.78183">
        <ele>1970.84</ele>
        <time>2013-11-03T05:29:34Z</time>
      </trkpt>
      <trkpt lat="28.40861" lon="83.78191">
        <ele>1972.76</ele>
        <time>2013-11-03T05:29:50Z</time>
      </trkpt>
      <trkpt lat="28.40857" lon="83.78194">
        <ele>1975.17</ele>
        <time>2013-11-03T05:30:04Z</time>
      </trkpt>
      <trkpt lat="28.40862" lon="83.78194">
        <ele>1973.72</ele>
        <time>2013-11-03T05:30:21Z</time>
      </trkpt>
      <trkpt lat="28.40865" lon="83.78193">
        <ele>1972.76</ele>
        <time>2013-11-03T05:30:40Z</time>
      </trkpt>
      <trkpt lat="28.40866" lon="83.7819">
        <ele>1972.76</ele>
        <time>2013-11-03T05:30:58Z</time>
      </trkpt>
      <trkpt lat="28.40866" lon="83.78189">
        <ele>1973.24</ele>
        <time>2013-11-03T05:31:17Z</time>
      </trkpt>
      <trkpt lat="28.40866" lon="83.78189">
        <ele>1973.24</ele>
        <time>2013-11-03T05:31:37Z</time>
      </trkpt>
      <trkpt lat="28.40861" lon="83.78192">
        <ele>1974.69</ele>
        <time>2013-11-03T05:31:58Z</time>
      </trkpt>
      <trkpt lat="28.40861" lon="83.78197">
        <ele>1978.05</ele>
        <time>2013-11-03T05:32:11Z</time>
      </trkpt>
      <trkpt lat="28.4086" lon="83.78207">
        <ele>1980.93</ele>
        <time>2013-11-03T05:32:28Z</time>
      </trkpt>
      <trkpt lat="28.40858" lon="83.78211">
        <ele>1983.34</ele>
        <time>2013-11-03T05:32:40Z</time>
      </trkpt>
      <trkpt lat="28.40859" lon="83.78214">
        <ele>1984.78</ele>
        <time>2013-11-03T05:32:54Z</time>
      </trkpt>
      <trkpt lat="28.40859" lon="83.78213">
        <ele>1986.22</ele>
        <time>2013-11-03T05:33:19Z</time>
      </trkpt>
      <trkpt lat="28.4086" lon="83.78214">
        <ele>1986.22</ele>
        <time>2013-11-03T05:33:39Z</time>
      </trkpt>
      <trkpt lat="28.40858" lon="83.78218">
        <ele>1988.62</ele>
        <time>2013-11-03T05:33:57Z</time>
      </trkpt>
      <trkpt lat="28.40849" lon="83.78222">
        <ele>1990.55</ele>
        <time>2013-11-03T05:34:13Z</time>
      </trkpt>
      <trkpt lat="28.40845" lon="83.78228">
        <ele>1993.43</ele>
        <time>2013-11-03T05:34:30Z</time>
      </trkpt>
      <trkpt lat="28.40847" lon="83.7823">
        <ele>1994.87</ele>
        <time>2013-11-03T05:34:44Z</time>
      </trkpt>
      <trkpt lat="28.4084" lon="83.78232">
        <ele>1997.28</ele>
        <time>2013-11-03T05:34:58Z</time>
      </trkpt>
      <trkpt lat="28.40837" lon="83.78237">
        <ele>1999.2</ele>
        <time>2013-11-03T05:35:15Z</time>
      </trkpt>
      <trkpt lat="28.40832" lon="83.78245">
        <ele>2000.64</ele>
        <time>2013-11-03T05:35:26Z</time>
      </trkpt>
      <trkpt lat="28.40826" lon="83.78248">
        <ele>2002.56</ele>
        <time>2013-11-03T05:35:38Z</time>
      </trkpt>
      <trkpt lat="28.40819" lon="83.78254">
        <ele>2004.01</ele>
        <time>2013-11-03T05:35:55Z</time>
      </trkpt>
      <trkpt lat="28.40816" lon="83.78254">
        <ele>2005.93</ele>
        <time>2013-11-03T05:36:09Z</time>
      </trkpt>
      <trkpt lat="28.40814" lon="83.78265">
        <ele>2008.33</ele>
        <time>2013-11-03T05:36:26Z</time>
      </trkpt>
      <trkpt lat="28.40808" lon="83.7827">
        <ele>2010.73</ele>
        <time>2013-11-03T05:36:41Z</time>
      </trkpt>
      <trkpt lat="28.40804" lon="83.78279">
        <ele>2012.66</ele>
        <time>2013-11-03T05:36:56Z</time>
      </trkpt>
      <trkpt lat="28.40802" lon="83.7829">
        <ele>2014.1</ele>
        <time>2013-11-03T05:37:09Z</time>
      </trkpt>
      <trkpt lat="28.40802" lon="83.78297">
        <ele>2014.58</ele>
        <time>2013-11-03T05:37:15Z</time>
      </trkpt>
      <trkpt lat="28.40803" lon="83.78305">
        <ele>2014.58</ele>
        <time>2013-11-03T05:37:22Z</time>
      </trkpt>
      <trkpt lat="28.40805" lon="83.78316">
        <ele>2015.54</ele>
        <time>2013-11-03T05:37:34Z</time>
      </trkpt>
      <trkpt lat="28.40805" lon="83.78318">
        <ele>2015.54</ele>
        <time>2013-11-03T05:37:36Z</time>
      </trkpt>
      <trkpt lat="28.40807" lon="83.78323">
        <ele>2016.5</ele>
        <time>2013-11-03T05:37:42Z</time>
      </trkpt>
      <trkpt lat="28.40806" lon="83.78337">
        <ele>2017.46</ele>
        <time>2013-11-03T05:37:54Z</time>
      </trkpt>
      <trkpt lat="28.40808" lon="83.78347">
        <ele>2017.46</ele>
        <time>2013-11-03T05:38:02Z</time>
      </trkpt>
      <trkpt lat="28.40806" lon="83.78356">
        <ele>2017.46</ele>
        <time>2013-11-03T05:38:15Z</time>
      </trkpt>
      <trkpt lat="28.40805" lon="83.78357">
        <ele>2017.46</ele>
        <time>2013-11-03T05:38:16Z</time>
      </trkpt>
      <trkpt lat="28.40802" lon="83.78371">
        <ele>2016.02</ele>
        <time>2013-11-03T05:38:31Z</time>
      </trkpt>
      <trkpt lat="28.40803" lon="83.78377">
        <ele>2016.5</ele>
        <time>2013-11-03T05:38:43Z</time>
      </trkpt>
      <trkpt lat="28.40801" lon="83.78385">
        <ele>2016.98</ele>
        <time>2013-11-03T05:38:55Z</time>
      </trkpt>
      <trkpt lat="28.40811" lon="83.78384">
        <ele>2016.5</ele>
        <time>2013-11-03T05:39:08Z</time>
      </trkpt>
      <trkpt lat="28.40818" lon="83.78384">
        <ele>2016.98</ele>
        <time>2013-11-03T05:39:23Z</time>
      </trkpt>
      <trkpt lat="28.40821" lon="83.78385">
        <ele>2017.46</ele>
        <time>2013-11-03T05:39:27Z</time>
      </trkpt>
      <trkpt lat="28.40832" lon="83.7839">
        <ele>2017.46</ele>
        <time>2013-11-03T05:39:38Z</time>
      </trkpt>
      <trkpt lat="28.40837" lon="83.78393">
        <ele>2017.94</ele>
        <time>2013-11-03T05:39:44Z</time>
      </trkpt>
      <trkpt lat="28.40844" lon="83.78406">
        <ele>2018.43</ele>
        <time>2013-11-03T05:39:55Z</time>
      </trkpt>
      <trkpt lat="28.40844" lon="83.78413">
        <ele>2017.94</ele>
        <time>2013-11-03T05:40:00Z</time>
      </trkpt>
      <trkpt lat="28.40844" lon="83.78423">
        <ele>2018.43</ele>
        <time>2013-11-03T05:40:12Z</time>
      </trkpt>
      <trkpt lat="28.40843" lon="83.78428">
        <ele>2019.39</ele>
        <time>2013-11-03T05:40:27Z</time>
      </trkpt>
      <trkpt lat="28.40839" lon="83.78441">
        <ele>2021.31</ele>
        <time>2013-11-03T05:40:40Z</time>
      </trkpt>
      <trkpt lat="28.40838" lon="83.78455">
        <ele>2023.23</ele>
        <time>2013-11-03T05:40:54Z</time>
      </trkpt>
      <trkpt lat="28.40839" lon="83.78461">
        <ele>2024.67</ele>
        <time>2013-11-03T05:41:07Z</time>
      </trkpt>
      <trkpt lat="28.40841" lon="83.78465">
        <ele>2026.12</ele>
        <time>2013-11-03T05:41:14Z</time>
      </trkpt>
      <trkpt lat="28.40842" lon="83.78471">
        <ele>2026.6</ele>
        <time>2013-11-03T05:41:19Z</time>
      </trkpt>
      <trkpt lat="28.40842" lon="83.78476">
        <ele>2026.6</ele>
        <time>2013-11-03T05:41:23Z</time>
      </trkpt>
      <trkpt lat="28.40844" lon="83.78489">
        <ele>2026.6</ele>
        <time>2013-11-03T05:41:36Z</time>
      </trkpt>
      <trkpt lat="28.40848" lon="83.78496">
        <ele>2026.12</ele>
        <time>2013-11-03T05:41:51Z</time>
      </trkpt>
      <trkpt lat="28.40855" lon="83.785">
        <ele>2025.15</ele>
        <time>2013-11-03T05:42:01Z</time>
      </trkpt>
      <trkpt lat="28.40863" lon="83.78512">
        <ele>2026.6</ele>
        <time>2013-11-03T05:42:15Z</time>
      </trkpt>
      <trkpt lat="28.40864" lon="83.78517">
        <ele>2027.56</ele>
        <time>2013-11-03T05:42:21Z</time>
      </trkpt>
      <trkpt lat="28.40865" lon="83.78536">
        <ele>2027.56</ele>
        <time>2013-11-03T05:42:35Z</time>
      </trkpt>
      <trkpt lat="28.40865" lon="83.78545">
        <ele>2028.04</ele>
        <time>2013-11-03T05:42:45Z</time>
      </trkpt>
      <trkpt lat="28.40875" lon="83.78554">
        <ele>2028.04</ele>
        <time>2013-11-03T05:42:58Z</time>
      </trkpt>
      <trkpt lat="28.40879" lon="83.7856">
        <ele>2029</ele>
        <time>2013-11-03T05:43:06Z</time>
      </trkpt>
      <trkpt lat="28.40881" lon="83.78563">
        <ele>2029</ele>
        <time>2013-11-03T05:43:09Z</time>
      </trkpt>
      <trkpt lat="28.40883" lon="83.78569">
        <ele>2030.44</ele>
        <time>2013-11-03T05:43:16Z</time>
      </trkpt>
      <trkpt lat="28.40885" lon="83.78573">
        <ele>2029.96</ele>
        <time>2013-11-03T05:43:20Z</time>
      </trkpt>
      <trkpt lat="28.40886" lon="83.78578">
        <ele>2030.44</ele>
        <time>2013-11-03T05:43:25Z</time>
      </trkpt>
      <trkpt lat="28.40887" lon="83.78592">
        <ele>2031.4</ele>
        <time>2013-11-03T05:43:38Z</time>
      </trkpt>
      <trkpt lat="28.40886" lon="83.78601">
        <ele>2031.88</ele>
        <time>2013-11-03T05:43:46Z</time>
      </trkpt>
      <trkpt lat="28.40887" lon="83.78615">
        <ele>2032.36</ele>
        <time>2013-11-03T05:43:59Z</time>
      </trkpt>
      <trkpt lat="28.40889" lon="83.78627">
        <ele>2032.84</ele>
        <time>2013-11-03T05:44:08Z</time>
      </trkpt>
      <trkpt lat="28.40893" lon="83.78637">
        <ele>2033.33</ele>
        <time>2013-11-03T05:44:17Z</time>
      </trkpt>
      <trkpt lat="28.40887" lon="83.78644">
        <ele>2035.25</ele>
        <time>2013-11-03T05:44:36Z</time>
      </trkpt>
      <trkpt lat="28.40879" lon="83.78655">
        <ele>2035.73</ele>
        <time>2013-11-03T05:44:52Z</time>
      </trkpt>
      <trkpt lat="28.40885" lon="83.78663">
        <ele>2038.13</ele>
        <time>2013-11-03T05:45:10Z</time>
      </trkpt>
      <trkpt lat="28.40891" lon="83.78666">
        <ele>2039.57</ele>
        <time>2013-11-03T05:45:24Z</time>
      </trkpt>
      <trkpt lat="28.40896" lon="83.78679">
        <ele>2040.05</ele>
        <time>2013-11-03T05:45:38Z</time>
      </trkpt>
      <trkpt lat="28.40903" lon="83.78678">
        <ele>2041.02</ele>
        <time>2013-11-03T05:45:53Z</time>
      </trkpt>
      <trkpt lat="28.40907" lon="83.78676">
        <ele>2041.98</ele>
        <time>2013-11-03T05:46:07Z</time>
      </trkpt>
      <trkpt lat="28.40908" lon="83.78674">
        <ele>2043.9</ele>
        <time>2013-11-03T05:46:23Z</time>
      </trkpt>
      <trkpt lat="28.40913" lon="83.7868">
        <ele>2044.38</ele>
        <time>2013-11-03T05:46:40Z</time>
      </trkpt>
      <trkpt lat="28.40922" lon="83.78689">
        <ele>2043.42</ele>
        <time>2013-11-03T05:46:53Z</time>
      </trkpt>
      <trkpt lat="28.40924" lon="83.78691">
        <ele>2043.9</ele>
        <time>2013-11-03T05:46:55Z</time>
      </trkpt>
      <trkpt lat="28.40927" lon="83.78704">
        <ele>2043.9</ele>
        <time>2013-11-03T05:47:08Z</time>
      </trkpt>
      <trkpt lat="28.40927" lon="83.78707">
        <ele>2044.38</ele>
        <time>2013-11-03T05:47:11Z</time>
      </trkpt>
      <trkpt lat="28.4093" lon="83.78717">
        <ele>2043.9</ele>
        <time>2013-11-03T05:47:22Z</time>
      </trkpt>
      <trkpt lat="28.40938" lon="83.78717">
        <ele>2042.94</ele>
        <time>2013-11-03T05:47:40Z</time>
      </trkpt>
      <trkpt lat="28.40945" lon="83.78716">
        <ele>2040.05</ele>
        <time>2013-11-03T05:47:56Z</time>
      </trkpt>
      <trkpt lat="28.40947" lon="83.7872">
        <ele>2039.09</ele>
        <time>2013-11-03T05:48:00Z</time>
      </trkpt>
      <trkpt lat="28.40956" lon="83.78733">
        <ele>2037.17</ele>
        <time>2013-11-03T05:48:13Z</time>
      </trkpt>
      <trkpt lat="28.4096" lon="83.78742">
        <ele>2036.69</ele>
        <time>2013-11-03T05:48:26Z</time>
      </trkpt>
      <trkpt lat="28.40964" lon="83.78741">
        <ele>2035.73</ele>
        <time>2013-11-03T05:48:30Z</time>
      </trkpt>
      <trkpt lat="28.40973" lon="83.7874">
        <ele>2035.25</ele>
        <time>2013-11-03T05:48:37Z</time>
      </trkpt>
      <trkpt lat="28.40986" lon="83.78726">
        <ele>2033.81</ele>
        <time>2013-11-03T05:48:56Z</time>
      </trkpt>
      <trkpt lat="28.40995" lon="83.78727">
        <ele>2030.44</ele>
        <time>2013-11-03T05:49:16Z</time>
      </trkpt>
      <trkpt lat="28.40998" lon="83.78728">
        <ele>2028.52</ele>
        <time>2013-11-03T05:49:30Z</time>
      </trkpt>
      <trkpt lat="28.41005" lon="83.78732">
        <ele>2026.12</ele>
        <time>2013-11-03T05:49:41Z</time>
      </trkpt>
      <trkpt lat="28.41012" lon="83.78737">
        <ele>2024.67</ele>
        <time>2013-11-03T05:49:49Z</time>
      </trkpt>
      <trkpt lat="28.41024" lon="83.78745">
        <ele>2024.19</ele>
        <time>2013-11-03T05:50:05Z</time>
      </trkpt>
      <trkpt lat="28.41028" lon="83.78749">
        <ele>2024.19</ele>
        <time>2013-11-03T05:50:10Z</time>
      </trkpt>
      <trkpt lat="28.4104" lon="83.78754">
        <ele>2023.23</ele>
        <time>2013-11-03T05:50:22Z</time>
      </trkpt>
      <trkpt lat="28.41043" lon="83.78758">
        <ele>2022.75</ele>
        <time>2013-11-03T05:50:26Z</time>
      </trkpt>
      <trkpt lat="28.41044" lon="83.7876">
        <ele>2022.75</ele>
        <time>2013-11-03T05:50:28Z</time>
      </trkpt>
      <trkpt lat="28.41048" lon="83.78765">
        <ele>2022.75</ele>
        <time>2013-11-03T05:50:34Z</time>
      </trkpt>
      <trkpt lat="28.41054" lon="83.78772">
        <ele>2023.71</ele>
        <time>2013-11-03T05:50:47Z</time>
      </trkpt>
      <trkpt lat="28.41057" lon="83.78775">
        <ele>2023.71</ele>
        <time>2013-11-03T05:50:52Z</time>
      </trkpt>
      <trkpt lat="28.41058" lon="83.78776">
        <ele>2024.19</ele>
        <time>2013-11-03T05:50:54Z</time>
      </trkpt>
      <trkpt lat="28.41065" lon="83.7879">
        <ele>2025.15</ele>
        <time>2013-11-03T05:51:08Z</time>
      </trkpt>
      <trkpt lat="28.41067" lon="83.78801">
        <ele>2027.08</ele>
        <time>2013-11-03T05:51:24Z</time>
      </trkpt>
      <trkpt lat="28.41065" lon="83.78809">
        <ele>2029</ele>
        <time>2013-11-03T05:51:40Z</time>
      </trkpt>
      <trkpt lat="28.41065" lon="83.78817">
        <ele>2031.4</ele>
        <time>2013-11-03T05:51:59Z</time>
      </trkpt>
      <trkpt lat="28.41065" lon="83.78823">
        <ele>2033.33</ele>
        <time>2013-11-03T05:52:15Z</time>
      </trkpt>
      <trkpt lat="28.41065" lon="83.78824">
        <ele>2034.77</ele>
        <time>2013-11-03T05:52:17Z</time>
      </trkpt>
      <trkpt lat="28.41063" lon="83.78834">
        <ele>2036.21</ele>
        <time>2013-11-03T05:52:34Z</time>
      </trkpt>
      <trkpt lat="28.41057" lon="83.78843">
        <ele>2037.65</ele>
        <time>2013-11-03T05:52:47Z</time>
      </trkpt>
      <trkpt lat="28.41055" lon="83.78858">
        <ele>2037.17</ele>
        <time>2013-11-03T05:53:03Z</time>
      </trkpt>
      <trkpt lat="28.41065" lon="83.78866">
        <ele>2035.25</ele>
        <time>2013-11-03T05:53:22Z</time>
      </trkpt>
      <trkpt lat="28.41066" lon="83.78876">
        <ele>2034.77</ele>
        <time>2013-11-03T05:53:38Z</time>
      </trkpt>
      <trkpt lat="28.41068" lon="83.78877">
        <ele>2034.77</ele>
        <time>2013-11-03T05:54:02Z</time>
      </trkpt>
      <trkpt lat="28.41069" lon="83.78877">
        <ele>2034.77</ele>
        <time>2013-11-03T05:54:27Z</time>
      </trkpt>
      <trkpt lat="28.4107" lon="83.7888">
        <ele>2033.81</ele>
        <time>2013-11-03T05:54:52Z</time>
      </trkpt>
      <trkpt lat="28.41071" lon="83.78883">
        <ele>2033.33</ele>
        <time>2013-11-03T05:55:09Z</time>
      </trkpt>
      <trkpt lat="28.41072" lon="83.78888">
        <ele>2033.33</ele>
        <time>2013-11-03T05:55:40Z</time>
      </trkpt>
      <trkpt lat="28.41073" lon="83.78885">
        <ele>2033.33</ele>
        <time>2013-11-03T05:55:58Z</time>
      </trkpt>
      <trkpt lat="28.41072" lon="83.78888">
        <ele>2032.84</ele>
        <time>2013-11-03T05:56:11Z</time>
      </trkpt>
      <trkpt lat="28.41073" lon="83.7889">
        <ele>2032.36</ele>
        <time>2013-11-03T05:56:30Z</time>
      </trkpt>
      <trkpt lat="28.4107" lon="83.78894">
        <ele>2032.36</ele>
        <time>2013-11-03T05:56:51Z</time>
      </trkpt>
      <trkpt lat="28.41067" lon="83.789">
        <ele>2033.33</ele>
        <time>2013-11-03T05:57:04Z</time>
      </trkpt>
      <trkpt lat="28.41062" lon="83.78907">
        <ele>2036.69</ele>
        <time>2013-11-03T05:57:18Z</time>
      </trkpt>
      <trkpt lat="28.41056" lon="83.78913">
        <ele>2038.61</ele>
        <time>2013-11-03T05:57:30Z</time>
      </trkpt>
      <trkpt lat="28.41049" lon="83.78921">
        <ele>2041.5</ele>
        <time>2013-11-03T05:57:41Z</time>
      </trkpt>
      <trkpt lat="28.41045" lon="83.78919">
        <ele>2041.98</ele>
        <time>2013-11-03T05:58:05Z</time>
      </trkpt>
      <trkpt lat="28.41043" lon="83.78923">
        <ele>2043.9</ele>
        <time>2013-11-03T05:58:25Z</time>
      </trkpt>
      <trkpt lat="28.4104" lon="83.78932">
        <ele>2045.34</ele>
        <time>2013-11-03T05:58:35Z</time>
      </trkpt>
      <trkpt lat="28.41035" lon="83.78936">
        <ele>2046.78</ele>
        <time>2013-11-03T05:58:47Z</time>
      </trkpt>
      <trkpt lat="28.41034" lon="83.78962">
        <ele>2046.3</ele>
        <time>2013-11-03T05:59:02Z</time>
      </trkpt>
      <trkpt lat="28.41034" lon="83.78963">
        <ele>2046.3</ele>
        <time>2013-11-03T05:59:04Z</time>
      </trkpt>
      <trkpt lat="28.41035" lon="83.7898">
        <ele>2046.3</ele>
        <time>2013-11-03T05:59:15Z</time>
      </trkpt>
      <trkpt lat="28.41037" lon="83.78984">
        <ele>2046.78</ele>
        <time>2013-11-03T05:59:19Z</time>
      </trkpt>
      <trkpt lat="28.41043" lon="83.78991">
        <ele>2048.23</ele>
        <time>2013-11-03T05:59:29Z</time>
      </trkpt>
      <trkpt lat="28.41042" lon="83.7901">
        <ele>2049.67</ele>
        <time>2013-11-03T05:59:43Z</time>
      </trkpt>
      <trkpt lat="28.41043" lon="83.79023">
        <ele>2051.11</ele>
        <time>2013-11-03T05:59:55Z</time>
      </trkpt>
      <trkpt lat="28.41047" lon="83.79029">
        <ele>2051.59</ele>
        <time>2013-11-03T06:00:12Z</time>
      </trkpt>
      <trkpt lat="28.4105" lon="83.79028">
        <ele>2051.11</ele>
        <time>2013-11-03T06:00:36Z</time>
      </trkpt>
      <trkpt lat="28.41052" lon="83.79028">
        <ele>2051.11</ele>
        <time>2013-11-03T06:00:59Z</time>
      </trkpt>
      <trkpt lat="28.41052" lon="83.79028">
        <ele>2051.59</ele>
        <time>2013-11-03T06:01:26Z</time>
      </trkpt>
      <trkpt lat="28.41052" lon="83.79026">
        <ele>2051.59</ele>
        <time>2013-11-03T06:01:48Z</time>
      </trkpt>
      <trkpt lat="28.41055" lon="83.79028">
        <ele>2052.07</ele>
        <time>2013-11-03T06:02:13Z</time>
      </trkpt>
      <trkpt lat="28.41055" lon="83.7903">
        <ele>2051.11</ele>
        <time>2013-11-03T06:02:39Z</time>
      </trkpt>
      <trkpt lat="28.41057" lon="83.79028">
        <ele>2051.59</ele>
        <time>2013-11-03T06:03:04Z</time>
      </trkpt>
      <trkpt lat="28.41058" lon="83.79028">
        <ele>2051.59</ele>
        <time>2013-11-03T06:03:30Z</time>
      </trkpt>
      <trkpt lat="28.41055" lon="83.79029">
        <ele>2052.07</ele>
        <time>2013-11-03T06:03:57Z</time>
      </trkpt>
      <trkpt lat="28.41052" lon="83.79028">
        <ele>2051.59</ele>
        <time>2013-11-03T06:04:14Z</time>
      </trkpt>
      <trkpt lat="28.41052" lon="83.79028">
        <ele>2051.59</ele>
        <time>2013-11-03T06:04:34Z</time>
      </trkpt>
      <trkpt lat="28.41051" lon="83.79029">
        <ele>2051.59</ele>
        <time>2013-11-03T06:04:57Z</time>
      </trkpt>
      <trkpt lat="28.41052" lon="83.79028">
        <ele>2051.59</ele>
        <time>2013-11-03T06:05:19Z</time>
      </trkpt>
      <trkpt lat="28.41051" lon="83.7903">
        <ele>2051.59</ele>
        <time>2013-11-03T06:05:48Z</time>
      </trkpt>
      <trkpt lat="28.4105" lon="83.7903">
        <ele>2051.59</ele>
        <time>2013-11-03T06:06:19Z</time>
      </trkpt>
      <trkpt lat="28.4105" lon="83.7903">
        <ele>2052.07</ele>
        <time>2013-11-03T06:06:38Z</time>
      </trkpt>
      <trkpt lat="28.4105" lon="83.7903">
        <ele>2052.07</ele>
        <time>2013-11-03T06:07:05Z</time>
      </trkpt>
      <trkpt lat="28.41051" lon="83.79029">
        <ele>2052.07</ele>
        <time>2013-11-03T06:07:38Z</time>
      </trkpt>
      <trkpt lat="28.41049" lon="83.79028">
        <ele>2052.55</ele>
        <time>2013-11-03T06:08:09Z</time>
      </trkpt>
      <trkpt lat="28.41048" lon="83.79028">
        <ele>2052.55</ele>
        <time>2013-11-03T06:08:27Z</time>
      </trkpt>
      <trkpt lat="28.41047" lon="83.79029">
        <ele>2053.03</ele>
        <time>2013-11-03T06:08:47Z</time>
      </trkpt>
      <trkpt lat="28.41048" lon="83.7903">
        <ele>2052.55</ele>
        <time>2013-11-03T06:09:04Z</time>
      </trkpt>
      <trkpt lat="28.41048" lon="83.79032">
        <ele>2053.51</ele>
        <time>2013-11-03T06:09:19Z</time>
      </trkpt>
      <trkpt lat="28.41048" lon="83.79033">
        <ele>2053.99</ele>
        <time>2013-11-03T06:09:35Z</time>
      </trkpt>
      <trkpt lat="28.41046" lon="83.7903">
        <ele>2053.51</ele>
        <time>2013-11-03T06:09:54Z</time>
      </trkpt>
      <trkpt lat="28.41048" lon="83.79029">
        <ele>2053.51</ele>
        <time>2013-11-03T06:10:18Z</time>
      </trkpt>
      <trkpt lat="28.41047" lon="83.79029">
        <ele>2053.99</ele>
        <time>2013-11-03T06:10:42Z</time>
      </trkpt>
      <trkpt lat="28.41049" lon="83.79031">
        <ele>2054.47</ele>
        <time>2013-11-03T06:11:07Z</time>
      </trkpt>
      <trkpt lat="28.41043" lon="83.7903">
        <ele>2054.47</ele>
        <time>2013-11-03T06:11:34Z</time>
      </trkpt>
      <trkpt lat="28.41045" lon="83.79032">
        <ele>2054.47</ele>
        <time>2013-11-03T06:11:55Z</time>
      </trkpt>
      <trkpt lat="28.41038" lon="83.79027">
        <ele>2054.47</ele>
        <time>2013-11-03T06:12:16Z</time>
      </trkpt>
      <trkpt lat="28.41053" lon="83.79032">
        <ele>2054.96</ele>
        <time>2013-11-03T06:12:42Z</time>
      </trkpt>
      <trkpt lat="28.41049" lon="83.79022">
        <ele>2054.96</ele>
        <time>2013-11-03T06:13:10Z</time>
      </trkpt>
      <trkpt lat="28.41045" lon="83.79017">
        <ele>2055.44</ele>
        <time>2013-11-03T06:13:38Z</time>
      </trkpt>
      <trkpt lat="28.41041" lon="83.79019">
        <ele>2055.44</ele>
        <time>2013-11-03T06:14:00Z</time>
      </trkpt>
      <trkpt lat="28.41041" lon="83.7902">
        <ele>2055.92</ele>
        <time>2013-11-03T06:14:28Z</time>
      </trkpt>
      <trkpt lat="28.4105" lon="83.79021">
        <ele>2056.4</ele>
        <time>2013-11-03T06:14:53Z</time>
      </trkpt>
      <trkpt lat="28.41058" lon="83.79021">
        <ele>2056.4</ele>
        <time>2013-11-03T06:15:14Z</time>
      </trkpt>
      <trkpt lat="28.41068" lon="83.79023">
        <ele>2056.4</ele>
        <time>2013-11-03T06:15:38Z</time>
      </trkpt>
      <trkpt lat="28.41056" lon="83.79024">
        <ele>2056.4</ele>
        <time>2013-11-03T06:15:55Z</time>
      </trkpt>
      <trkpt lat="28.41053" lon="83.79028">
        <ele>2056.88</ele>
        <time>2013-11-03T06:16:21Z</time>
      </trkpt>
      <trkpt lat="28.41037" lon="83.79024">
        <ele>2057.84</ele>
        <time>2013-11-03T06:16:41Z</time>
      </trkpt>
      <trkpt lat="28.41046" lon="83.79033">
        <ele>2057.36</ele>
        <time>2013-11-03T06:17:02Z</time>
      </trkpt>
      <trkpt lat="28.41052" lon="83.79035">
        <ele>2057.84</ele>
        <time>2013-11-03T06:17:23Z</time>
      </trkpt>
      <trkpt lat="28.41056" lon="83.79035">
        <ele>2057.84</ele>
        <time>2013-11-03T06:17:50Z</time>
      </trkpt>
      <trkpt lat="28.41047" lon="83.79035">
        <ele>2058.8</ele>
        <time>2013-11-03T06:18:09Z</time>
      </trkpt>
      <trkpt lat="28.4104" lon="83.7903">
        <ele>2058.32</ele>
        <time>2013-11-03T06:18:26Z</time>
      </trkpt>
      <trkpt lat="28.41032" lon="83.79015">
        <ele>2058.32</ele>
        <time>2013-11-03T06:18:50Z</time>
      </trkpt>
      <trkpt lat="28.41032" lon="83.79016">
        <ele>2058.8</ele>
        <time>2013-11-03T06:19:14Z</time>
      </trkpt>
      <trkpt lat="28.41037" lon="83.79025">
        <ele>2058.32</ele>
        <time>2013-11-03T06:19:36Z</time>
      </trkpt>
      <trkpt lat="28.41039" lon="83.79028">
        <ele>2058.8</ele>
        <time>2013-11-03T06:19:57Z</time>
      </trkpt>
      <trkpt lat="28.41044" lon="83.7903">
        <ele>2058.8</ele>
        <time>2013-11-03T06:20:20Z</time>
      </trkpt>
      <trkpt lat="28.41045" lon="83.7903">
        <ele>2057.36</ele>
        <time>2013-11-03T06:20:31Z</time>
      </trkpt>
      <trkpt lat="28.41045" lon="83.7903">
        <ele>2057.36</ele>
        <time>2013-11-03T06:20:40Z</time>
      </trkpt>
      <trkpt lat="28.41046" lon="83.7903">
        <ele>2058.32</ele>
        <time>2013-11-03T06:21:02Z</time>
      </trkpt>
      <trkpt lat="28.41046" lon="83.7903">
        <ele>2059.76</ele>
        <time>2013-11-03T06:21:24Z</time>
      </trkpt>
      <trkpt lat="28.41045" lon="83.7903">
        <ele>2058.8</ele>
        <time>2013-11-03T06:22:00Z</time>
      </trkpt>
      <trkpt lat="28.41045" lon="83.7903">
        <ele>2058.8</ele>
        <time>2013-11-03T06:22:28Z</time>
      </trkpt>
      <trkpt lat="28.41045" lon="83.79029">
        <ele>2059.28</ele>
        <time>2013-11-03T06:22:58Z</time>
      </trkpt>
      <trkpt lat="28.41045" lon="83.7903">
        <ele>2058.32</ele>
        <time>2013-11-03T06:23:19Z</time>
      </trkpt>
      <trkpt lat="28.41044" lon="83.7903">
        <ele>2058.32</ele>
        <time>2013-11-03T06:23:32Z</time>
      </trkpt>
      <trkpt lat="28.41045" lon="83.7903">
        <ele>2058.32</ele>
        <time>2013-11-03T06:24:06Z</time>
      </trkpt>
      <trkpt lat="28.41044" lon="83.7903">
        <ele>2058.8</ele>
        <time>2013-11-03T06:24:25Z</time>
      </trkpt>
      <trkpt lat="28.41044" lon="83.7903">
        <ele>2058.32</ele>
        <time>2013-11-03T06:24:53Z</time>
      </trkpt>
      <trkpt lat="28.41044" lon="83.79029">
        <ele>2059.28</ele>
        <time>2013-11-03T06:25:22Z</time>
      </trkpt>
      <trkpt lat="28.41044" lon="83.7903">
        <ele>2058.8</ele>
        <time>2013-11-03T06:25:46Z</time>
      </trkpt>
      <trkpt lat="28.41044" lon="83.7903">
        <ele>2059.28</ele>
        <time>2013-11-03T06:26:14Z</time>
      </trkpt>
      <trkpt lat="28.41044" lon="83.7903">
        <ele>2059.28</ele>
        <time>2013-11-03T06:26:41Z</time>
      </trkpt>
      <trkpt lat="28.41045" lon="83.79029">
        <ele>2057.84</ele>
        <time>2013-11-03T06:27:08Z</time>
      </trkpt>
      <trkpt lat="28.41045" lon="83.79029">
        <ele>2059.28</ele>
        <time>2013-11-03T06:27:39Z</time>
      </trkpt>
      <trkpt lat="28.41045" lon="83.79029">
        <ele>2059.76</ele>
        <time>2013-11-03T06:28:00Z</time>
      </trkpt>
      <trkpt lat="28.41046" lon="83.79029">
        <ele>2059.28</ele>
        <time>2013-11-03T06:28:17Z</time>
      </trkpt>
      <trkpt lat="28.41045" lon="83.79026">
        <ele>2059.76</ele>
        <time>2013-11-03T06:28:32Z</time>
      </trkpt>
      <trkpt lat="28.41046" lon="83.79029">
        <ele>2059.28</ele>
        <time>2013-11-03T06:29:02Z</time>
      </trkpt>
      <trkpt lat="28.41046" lon="83.79028">
        <ele>2059.28</ele>
        <time>2013-11-03T06:29:30Z</time>
      </trkpt>
      <trkpt lat="28.41047" lon="83.79028">
        <ele>2059.28</ele>
        <time>2013-11-03T06:29:58Z</time>
      </trkpt>
      <trkpt lat="28.41047" lon="83.79029">
        <ele>2059.28</ele>
        <time>2013-11-03T06:30:27Z</time>
      </trkpt>
      <trkpt lat="28.41047" lon="83.79029">
        <ele>2059.28</ele>
        <time>2013-11-03T06:30:57Z</time>
      </trkpt>
      <trkpt lat="28.41047" lon="83.7903">
        <ele>2059.76</ele>
        <time>2013-11-03T06:31:27Z</time>
      </trkpt>
      <trkpt lat="28.41047" lon="83.7903">
        <ele>2059.28</ele>
        <time>2013-11-03T06:31:59Z</time>
      </trkpt>
      <trkpt lat="28.41047" lon="83.79029">
        <ele>2059.76</ele>
        <time>2013-11-03T06:32:32Z</time>
      </trkpt>
      <trkpt lat="28.41047" lon="83.79029">
        <ele>2059.76</ele>
        <time>2013-11-03T06:33:09Z</time>
      </trkpt>
      <trkpt lat="28.41047" lon="83.79029">
        <ele>2059.76</ele>
        <time>2013-11-03T06:33:39Z</time>
      </trkpt>
      <trkpt lat="28.41047" lon="83.79028">
        <ele>2059.28</ele>
        <time>2013-11-03T06:34:03Z</time>
      </trkpt>
      <trkpt lat="28.41047" lon="83.79028">
        <ele>2059.76</ele>
        <time>2013-11-03T06:34:29Z</time>
      </trkpt>
      <trkpt lat="28.41047" lon="83.79028">
        <ele>2059.76</ele>
        <time>2013-11-03T06:34:55Z</time>
      </trkpt>
      <trkpt lat="28.41047" lon="83.79028">
        <ele>2059.76</ele>
        <time>2013-11-03T06:35:23Z</time>
      </trkpt>
      <trkpt lat="28.41047" lon="83.79028">
        <ele>2060.24</ele>
        <time>2013-11-03T06:35:54Z</time>
      </trkpt>
      <trkpt lat="28.41047" lon="83.79027">
        <ele>2060.24</ele>
        <time>2013-11-03T06:36:25Z</time>
      </trkpt>
      <trkpt lat="28.41047" lon="83.79027">
        <ele>2060.24</ele>
        <time>2013-11-03T06:36:56Z</time>
      </trkpt>
      <trkpt lat="28.41047" lon="83.79027">
        <ele>2060.72</ele>
        <time>2013-11-03T06:37:22Z</time>
      </trkpt>
      <trkpt lat="28.41047" lon="83.79027">
        <ele>2060.72</ele>
        <time>2013-11-03T06:37:54Z</time>
      </trkpt>
      <trkpt lat="28.41047" lon="83.79027">
        <ele>2061.2</ele>
        <time>2013-11-03T06:38:26Z</time>
      </trkpt>
      <trkpt lat="28.41047" lon="83.79027">
        <ele>2061.68</ele>
        <time>2013-11-03T06:39:02Z</time>
      </trkpt>
      <trkpt lat="28.41047" lon="83.79027">
        <ele>2062.17</ele>
        <time>2013-11-03T06:39:36Z</time>
      </trkpt>
      <trkpt lat="28.41047" lon="83.79027">
        <ele>2061.68</ele>
        <time>2013-11-03T06:40:07Z</time>
      </trkpt>
      <trkpt lat="28.41047" lon="83.79027">
        <ele>2061.68</ele>
        <time>2013-11-03T06:40:43Z</time>
      </trkpt>
      <trkpt lat="28.41047" lon="83.79027">
        <ele>2062.17</ele>
        <time>2013-11-03T06:41:13Z</time>
      </trkpt>
      <trkpt lat="28.41047" lon="83.79027">
        <ele>2062.17</ele>
        <time>2013-11-03T06:41:47Z</time>
      </trkpt>
      <trkpt lat="28.41047" lon="83.79027">
        <ele>2062.17</ele>
        <time>2013-11-03T06:42:21Z</time>
      </trkpt>
      <trkpt lat="28.41047" lon="83.79028">
        <ele>2062.65</ele>
        <time>2013-11-03T06:42:53Z</time>
      </trkpt>
      <trkpt lat="28.41047" lon="83.79027">
        <ele>2063.13</ele>
        <time>2013-11-03T06:43:25Z</time>
      </trkpt>
      <trkpt lat="28.41047" lon="83.79027">
        <ele>2063.13</ele>
        <time>2013-11-03T06:43:58Z</time>
      </trkpt>
      <trkpt lat="28.41047" lon="83.79027">
        <ele>2063.61</ele>
        <time>2013-11-03T06:44:26Z</time>
      </trkpt>
      <trkpt lat="28.41048" lon="83.79027">
        <ele>2063.61</ele>
        <time>2013-11-03T06:44:49Z</time>
      </trkpt>
      <trkpt lat="28.41049" lon="83.79026">
        <ele>2063.61</ele>
        <time>2013-11-03T06:45:18Z</time>
      </trkpt>
      <trkpt lat="28.41049" lon="83.79026">
        <ele>2064.09</ele>
        <time>2013-11-03T06:45:42Z</time>
      </trkpt>
      <trkpt lat="28.4105" lon="83.79026">
        <ele>2064.09</ele>
        <time>2013-11-03T06:46:07Z</time>
      </trkpt>
      <trkpt lat="28.41051" lon="83.79027">
        <ele>2064.09</ele>
        <time>2013-11-03T06:46:33Z</time>
      </trkpt>
      <trkpt lat="28.41051" lon="83.79027">
        <ele>2064.57</ele>
        <time>2013-11-03T06:47:02Z</time>
      </trkpt>
      <trkpt lat="28.41051" lon="83.79027">
        <ele>2064.57</ele>
        <time>2013-11-03T06:47:31Z</time>
      </trkpt>
      <trkpt lat="28.4105" lon="83.79027">
        <ele>2064.57</ele>
        <time>2013-11-03T06:48:08Z</time>
      </trkpt>
      <trkpt lat="28.4105" lon="83.79027">
        <ele>2065.05</ele>
        <time>2013-11-03T06:48:39Z</time>
      </trkpt>
      <trkpt lat="28.41051" lon="83.79027">
        <ele>2065.05</ele>
        <time>2013-11-03T06:49:10Z</time>
      </trkpt>
      <trkpt lat="28.4105" lon="83.79027">
        <ele>2065.53</ele>
        <time>2013-11-03T06:49:39Z</time>
      </trkpt>
      <trkpt lat="28.4105" lon="83.79027">
        <ele>2066.01</ele>
        <time>2013-11-03T06:50:09Z</time>
      </trkpt>
      <trkpt lat="28.4105" lon="83.79027">
        <ele>2066.01</ele>
        <time>2013-11-03T06:50:39Z</time>
      </trkpt>
      <trkpt lat="28.4105" lon="83.79027">
        <ele>2066.01</ele>
        <time>2013-11-03T06:51:04Z</time>
      </trkpt>
      <trkpt lat="28.4105" lon="83.79026">
        <ele>2066.01</ele>
        <time>2013-11-03T06:51:31Z</time>
      </trkpt>
      <trkpt lat="28.4105" lon="83.79031">
        <ele>2066.01</ele>
        <time>2013-11-03T06:51:54Z</time>
      </trkpt>
      <trkpt lat="28.41049" lon="83.79026">
        <ele>2066.49</ele>
        <time>2013-11-03T06:52:21Z</time>
      </trkpt>
      <trkpt lat="28.41048" lon="83.79025">
        <ele>2066.01</ele>
        <time>2013-11-03T06:52:51Z</time>
      </trkpt>
      <trkpt lat="28.41048" lon="83.79023">
        <ele>2066.49</ele>
        <time>2013-11-03T06:53:19Z</time>
      </trkpt>
      <trkpt lat="28.41049" lon="83.79021">
        <ele>2066.97</ele>
        <time>2013-11-03T06:53:50Z</time>
      </trkpt>
      <trkpt lat="28.41048" lon="83.7902">
        <ele>2066.97</ele>
        <time>2013-11-03T06:54:20Z</time>
      </trkpt>
      <trkpt lat="28.41047" lon="83.79019">
        <ele>2067.45</ele>
        <time>2013-11-03T06:54:54Z</time>
      </trkpt>
      <trkpt lat="28.41047" lon="83.79019">
        <ele>2067.93</ele>
        <time>2013-11-03T06:55:25Z</time>
      </trkpt>
      <trkpt lat="28.41047" lon="83.79019">
        <ele>2067.93</ele>
        <time>2013-11-03T06:55:47Z</time>
      </trkpt>
      <trkpt lat="28.41046" lon="83.79019">
        <ele>2068.89</ele>
        <time>2013-11-03T06:56:19Z</time>
      </trkpt>
      <trkpt lat="28.41046" lon="83.79018">
        <ele>2068.89</ele>
        <time>2013-11-03T06:56:49Z</time>
      </trkpt>
      <trkpt lat="28.41046" lon="83.79018">
        <ele>2069.38</ele>
        <time>2013-11-03T06:57:16Z</time>
      </trkpt>
      <trkpt lat="28.41045" lon="83.79018">
        <ele>2069.86</ele>
        <time>2013-11-03T06:57:46Z</time>
      </trkpt>
      <trkpt lat="28.41045" lon="83.79018">
        <ele>2069.86</ele>
        <time>2013-11-03T06:58:18Z</time>
      </trkpt>
      <trkpt lat="28.41045" lon="83.79018">
        <ele>2070.82</ele>
        <time>2013-11-03T06:58:52Z</time>
      </trkpt>
      <trkpt lat="28.41045" lon="83.79018">
        <ele>2071.3</ele>
        <time>2013-11-03T06:59:26Z</time>
      </trkpt>
      <trkpt lat="28.41045" lon="83.79018">
        <ele>2071.3</ele>
        <time>2013-11-03T07:00:01Z</time>
      </trkpt>
      <trkpt lat="28.41044" lon="83.79017">
        <ele>2071.78</ele>
        <time>2013-11-03T07:00:32Z</time>
      </trkpt>
      <trkpt lat="28.41044" lon="83.79018">
        <ele>2071.78</ele>
        <time>2013-11-03T07:01:04Z</time>
      </trkpt>
      <trkpt lat="28.41043" lon="83.79018">
        <ele>2071.78</ele>
        <time>2013-11-03T07:01:33Z</time>
      </trkpt>
      <trkpt lat="28.41043" lon="83.79018">
        <ele>2072.26</ele>
        <time>2013-11-03T07:02:03Z</time>
      </trkpt>
      <trkpt lat="28.41043" lon="83.79018">
        <ele>2072.74</ele>
        <time>2013-11-03T07:02:34Z</time>
      </trkpt>
      <trkpt lat="28.41043" lon="83.79018">
        <ele>2072.74</ele>
        <time>2013-11-03T07:03:01Z</time>
      </trkpt>
      <trkpt lat="28.41043" lon="83.79018">
        <ele>2072.74</ele>
        <time>2013-11-03T07:03:32Z</time>
      </trkpt>
      <trkpt lat="28.41043" lon="83.79018">
        <ele>2073.22</ele>
        <time>2013-11-03T07:04:04Z</time>
      </trkpt>
      <trkpt lat="28.41044" lon="83.79019">
        <ele>2073.22</ele>
        <time>2013-11-03T07:04:33Z</time>
      </trkpt>
      <trkpt lat="28.41042" lon="83.79019">
        <ele>2073.7</ele>
        <time>2013-11-03T07:04:51Z</time>
      </trkpt>
      <trkpt lat="28.41042" lon="83.7902">
        <ele>2073.7</ele>
        <time>2013-11-03T07:05:21Z</time>
      </trkpt>
      <trkpt lat="28.41042" lon="83.7902">
        <ele>2073.7</ele>
        <time>2013-11-03T07:05:52Z</time>
      </trkpt>
      <trkpt lat="28.41042" lon="83.7902">
        <ele>2074.18</ele>
        <time>2013-11-03T07:06:19Z</time>
      </trkpt>
      <trkpt lat="28.41042" lon="83.79019">
        <ele>2074.18</ele>
        <time>2013-11-03T07:06:45Z</time>
      </trkpt>
      <trkpt lat="28.41042" lon="83.79019">
        <ele>2074.18</ele>
        <time>2013-11-03T07:07:14Z</time>
      </trkpt>
      <trkpt lat="28.41042" lon="83.7902">
        <ele>2074.18</ele>
        <time>2013-11-03T07:07:44Z</time>
      </trkpt>
      <trkpt lat="28.41042" lon="83.7902">
        <ele>2074.66</ele>
        <time>2013-11-03T07:08:12Z</time>
      </trkpt>
      <trkpt lat="28.41041" lon="83.79021">
        <ele>2075.14</ele>
        <time>2013-11-03T07:08:43Z</time>
      </trkpt>
      <trkpt lat="28.41041" lon="83.79021">
        <ele>2075.14</ele>
        <time>2013-11-03T07:09:21Z</time>
      </trkpt>
      <trkpt lat="28.4104" lon="83.79021">
        <ele>2075.14</ele>
        <time>2013-11-03T07:09:55Z</time>
      </trkpt>
      <trkpt lat="28.41041" lon="83.79021">
        <ele>2075.62</ele>
        <time>2013-11-03T07:10:31Z</time>
      </trkpt>
      <trkpt lat="28.41041" lon="83.79021">
        <ele>2075.62</ele>
        <time>2013-11-03T07:11:02Z</time>
      </trkpt>
      <trkpt lat="28.41041" lon="83.79021">
        <ele>2075.62</ele>
        <time>2013-11-03T07:11:29Z</time>
      </trkpt>
      <trkpt lat="28.41041" lon="83.79021">
        <ele>2076.1</ele>
        <time>2013-11-03T07:11:57Z</time>
      </trkpt>
      <trkpt lat="28.41042" lon="83.79019">
        <ele>2075.62</ele>
        <time>2013-11-03T07:12:13Z</time>
      </trkpt>
      <trkpt lat="28.41043" lon="83.79021">
        <ele>2076.59</ele>
        <time>2013-11-03T07:12:32Z</time>
      </trkpt>
      <trkpt lat="28.41045" lon="83.79023">
        <ele>2076.1</ele>
        <time>2013-11-03T07:12:47Z</time>
      </trkpt>
      <trkpt lat="28.41045" lon="83.79023">
        <ele>2077.07</ele>
        <time>2013-11-03T07:13:07Z</time>
      </trkpt>
      <trkpt lat="28.41046" lon="83.79021">
        <ele>2077.07</ele>
        <time>2013-11-03T07:13:31Z</time>
      </trkpt>
      <trkpt lat="28.41047" lon="83.79021">
        <ele>2077.07</ele>
        <time>2013-11-03T07:14:00Z</time>
      </trkpt>
      <trkpt lat="28.41047" lon="83.79022">
        <ele>2076.59</ele>
        <time>2013-11-03T07:14:22Z</time>
      </trkpt>
      <trkpt lat="28.41048" lon="83.79023">
        <ele>2076.59</ele>
        <time>2013-11-03T07:14:50Z</time>
      </trkpt>
      <trkpt lat="28.41049" lon="83.79025">
        <ele>2076.59</ele>
        <time>2013-11-03T07:15:03Z</time>
      </trkpt>
      <trkpt lat="28.41048" lon="83.79025">
        <ele>2076.59</ele>
        <time>2013-11-03T07:15:26Z</time>
      </trkpt>
      <trkpt lat="28.41049" lon="83.79026">
        <ele>2077.07</ele>
        <time>2013-11-03T07:15:49Z</time>
      </trkpt>
      <trkpt lat="28.41047" lon="83.79025">
        <ele>2077.07</ele>
        <time>2013-11-03T07:16:09Z</time>
      </trkpt>
      <trkpt lat="28.41045" lon="83.79027">
        <ele>2077.07</ele>
        <time>2013-11-03T07:16:30Z</time>
      </trkpt>
      <trkpt lat="28.41045" lon="83.79028">
        <ele>2076.59</ele>
        <time>2013-11-03T07:16:46Z</time>
      </trkpt>
      <trkpt lat="28.41046" lon="83.79031">
        <ele>2076.59</ele>
        <time>2013-11-03T07:17:10Z</time>
      </trkpt>
      <trkpt lat="28.41047" lon="83.79033">
        <ele>2077.07</ele>
        <time>2013-11-03T07:17:29Z</time>
      </trkpt>
      <trkpt lat="28.41048" lon="83.79033">
        <ele>2077.07</ele>
        <time>2013-11-03T07:17:54Z</time>
      </trkpt>
      <trkpt lat="28.4105" lon="83.79034">
        <ele>2077.07</ele>
        <time>2013-11-03T07:18:15Z</time>
      </trkpt>
      <trkpt lat="28.41054" lon="83.79038">
        <ele>2076.59</ele>
        <time>2013-11-03T07:18:35Z</time>
      </trkpt>
      <trkpt lat="28.41058" lon="83.79042">
        <ele>2068.89</ele>
        <time>2013-11-03T07:18:46Z</time>
      </trkpt>
      <trkpt lat="28.41058" lon="83.79041">
        <ele>2082.35</ele>
        <time>2013-11-03T07:18:47Z</time>
      </trkpt>
      <trkpt lat="28.41058" lon="83.79041">
        <ele>2077.07</ele>
        <time>2013-11-03T07:18:48Z</time>
      </trkpt>
      <trkpt lat="28.41063" lon="83.79043">
        <ele>2078.51</ele>
        <time>2013-11-03T07:19:03Z</time>
      </trkpt>
      <trkpt lat="28.41068" lon="83.79044">
        <ele>2079.95</ele>
        <time>2013-11-03T07:19:13Z</time>
      </trkpt>
      <trkpt lat="28.41071" lon="83.7906">
        <ele>2081.87</ele>
        <time>2013-11-03T07:19:31Z</time>
      </trkpt>
      <trkpt lat="28.41068" lon="83.7907">
        <ele>2082.83</ele>
        <time>2013-11-03T07:19:42Z</time>
      </trkpt>
      <trkpt lat="28.41068" lon="83.79086">
        <ele>2083.79</ele>
        <time>2013-11-03T07:19:56Z</time>
      </trkpt>
      <trkpt lat="28.41068" lon="83.79101">
        <ele>2085.72</ele>
        <time>2013-11-03T07:20:12Z</time>
      </trkpt>
      <trkpt lat="28.41071" lon="83.79109">
        <ele>2088.12</ele>
        <time>2013-11-03T07:20:27Z</time>
      </trkpt>
      <trkpt lat="28.41073" lon="83.79124">
        <ele>2090.52</ele>
        <time>2013-11-03T07:20:44Z</time>
      </trkpt>
      <trkpt lat="28.41072" lon="83.79137">
        <ele>2092.93</ele>
        <time>2013-11-03T07:21:00Z</time>
      </trkpt>
      <trkpt lat="28.41072" lon="83.79147">
        <ele>2094.85</ele>
        <time>2013-11-03T07:21:13Z</time>
      </trkpt>
      <trkpt lat="28.41071" lon="83.79158">
        <ele>2095.33</ele>
        <time>2013-11-03T07:21:29Z</time>
      </trkpt>
      <trkpt lat="28.41067" lon="83.79169">
        <ele>2096.77</ele>
        <time>2013-11-03T07:21:43Z</time>
      </trkpt>
      <trkpt lat="28.41066" lon="83.79178">
        <ele>2100.14</ele>
        <time>2013-11-03T07:22:02Z</time>
      </trkpt>
      <trkpt lat="28.41066" lon="83.79183">
        <ele>2103.02</ele>
        <time>2013-11-03T07:22:16Z</time>
      </trkpt>
      <trkpt lat="28.41065" lon="83.7919">
        <ele>2103.98</ele>
        <time>2013-11-03T07:22:29Z</time>
      </trkpt>
      <trkpt lat="28.41061" lon="83.79195">
        <ele>2105.91</ele>
        <time>2013-11-03T07:22:43Z</time>
      </trkpt>
      <trkpt lat="28.41057" lon="83.79204">
        <ele>2108.79</ele>
        <time>2013-11-03T07:22:58Z</time>
      </trkpt>
      <trkpt lat="28.41052" lon="83.79208">
        <ele>2111.19</ele>
        <time>2013-11-03T07:23:14Z</time>
      </trkpt>
      <trkpt lat="28.41047" lon="83.7921">
        <ele>2112.63</ele>
        <time>2013-11-03T07:23:26Z</time>
      </trkpt>
      <trkpt lat="28.41046" lon="83.79212">
        <ele>2113.6</ele>
        <time>2013-11-03T07:23:41Z</time>
      </trkpt>
      <trkpt lat="28.41046" lon="83.79213">
        <ele>2113.6</ele>
        <time>2013-11-03T07:23:59Z</time>
      </trkpt>
      <trkpt lat="28.41045" lon="83.79213">
        <ele>2113.6</ele>
        <time>2013-11-03T07:24:19Z</time>
      </trkpt>
      <trkpt lat="28.41045" lon="83.7922">
        <ele>2114.08</ele>
        <time>2013-11-03T07:24:36Z</time>
      </trkpt>
      <trkpt lat="28.41045" lon="83.79223">
        <ele>2116.48</ele>
        <time>2013-11-03T07:24:52Z</time>
      </trkpt>
      <trkpt lat="28.41047" lon="83.7923">
        <ele>2118.4</ele>
        <time>2013-11-03T07:25:09Z</time>
      </trkpt>
      <trkpt lat="28.41054" lon="83.79244">
        <ele>2118.88</ele>
        <time>2013-11-03T07:25:24Z</time>
      </trkpt>
      <trkpt lat="28.41055" lon="83.79252">
        <ele>2120.32</ele>
        <time>2013-11-03T07:25:40Z</time>
      </trkpt>
      <trkpt lat="28.41057" lon="83.79268">
        <ele>2119.36</ele>
        <time>2013-11-03T07:25:56Z</time>
      </trkpt>
      <trkpt lat="28.41062" lon="83.79283">
        <ele>2119.84</ele>
        <time>2013-11-03T07:26:16Z</time>
      </trkpt>
      <trkpt lat="28.41064" lon="83.79287">
        <ele>2119.84</ele>
        <time>2013-11-03T07:26:28Z</time>
      </trkpt>
      <trkpt lat="28.41065" lon="83.79293">
        <ele>2119.36</ele>
        <time>2013-11-03T07:26:33Z</time>
      </trkpt>
      <trkpt lat="28.41062" lon="83.7931">
        <ele>2121.77</ele>
        <time>2013-11-03T07:26:48Z</time>
      </trkpt>
      <trkpt lat="28.41056" lon="83.79317">
        <ele>2125.13</ele>
        <time>2013-11-03T07:27:05Z</time>
      </trkpt>
      <trkpt lat="28.41053" lon="83.79331">
        <ele>2127.53</ele>
        <time>2013-11-03T07:27:24Z</time>
      </trkpt>
      <trkpt lat="28.41047" lon="83.79345">
        <ele>2128.98</ele>
        <time>2013-11-03T07:27:42Z</time>
      </trkpt>
      <trkpt lat="28.41044" lon="83.79362">
        <ele>2129.94</ele>
        <time>2013-11-03T07:28:00Z</time>
      </trkpt>
      <trkpt lat="28.41042" lon="83.79376">
        <ele>2130.9</ele>
        <time>2013-11-03T07:28:15Z</time>
      </trkpt>
      <trkpt lat="28.41038" lon="83.79388">
        <ele>2133.3</ele>
        <time>2013-11-03T07:28:33Z</time>
      </trkpt>
      <trkpt lat="28.41036" lon="83.79393">
        <ele>2134.26</ele>
        <time>2013-11-03T07:28:39Z</time>
      </trkpt>
      <trkpt lat="28.4103" lon="83.79404">
        <ele>2135.71</ele>
        <time>2013-11-03T07:28:54Z</time>
      </trkpt>
      <trkpt lat="28.41027" lon="83.79408">
        <ele>2135.23</ele>
        <time>2013-11-03T07:28:59Z</time>
      </trkpt>
      <trkpt lat="28.41008" lon="83.79422">
        <ele>2134.74</ele>
        <time>2013-11-03T07:29:17Z</time>
      </trkpt>
      <trkpt lat="28.40999" lon="83.79432">
        <ele>2134.26</ele>
        <time>2013-11-03T07:29:32Z</time>
      </trkpt>
      <trkpt lat="28.40997" lon="83.79438">
        <ele>2134.26</ele>
        <time>2013-11-03T07:29:38Z</time>
      </trkpt>
      <trkpt lat="28.40991" lon="83.79455">
        <ele>2134.26</ele>
        <time>2013-11-03T07:29:55Z</time>
      </trkpt>
      <trkpt lat="28.40988" lon="83.79459">
        <ele>2134.74</ele>
        <time>2013-11-03T07:30:00Z</time>
      </trkpt>
      <trkpt lat="28.40979" lon="83.79469">
        <ele>2133.3</ele>
        <time>2013-11-03T07:30:17Z</time>
      </trkpt>
      <trkpt lat="28.40978" lon="83.79472">
        <ele>2132.82</ele>
        <time>2013-11-03T07:30:21Z</time>
      </trkpt>
      <trkpt lat="28.40974" lon="83.79475">
        <ele>2131.86</ele>
        <time>2013-11-03T07:30:27Z</time>
      </trkpt>
      <trkpt lat="28.40968" lon="83.79476">
        <ele>2133.3</ele>
        <time>2013-11-03T07:30:43Z</time>
      </trkpt>
      <trkpt lat="28.40963" lon="83.79478">
        <ele>2136.67</ele>
        <time>2013-11-03T07:30:56Z</time>
      </trkpt>
      <trkpt lat="28.40961" lon="83.79492">
        <ele>2139.55</ele>
        <time>2013-11-03T07:31:16Z</time>
      </trkpt>
      <trkpt lat="28.40958" lon="83.79498">
        <ele>2142.92</ele>
        <time>2013-11-03T07:31:33Z</time>
      </trkpt>
      <trkpt lat="28.40955" lon="83.79505">
        <ele>2146.28</ele>
        <time>2013-11-03T07:31:53Z</time>
      </trkpt>
      <trkpt lat="28.40951" lon="83.79512">
        <ele>2148.68</ele>
        <time>2013-11-03T07:32:11Z</time>
      </trkpt>
      <trkpt lat="28.40951" lon="83.79515">
        <ele>2151.09</ele>
        <time>2013-11-03T07:32:28Z</time>
      </trkpt>
      <trkpt lat="28.40951" lon="83.79516">
        <ele>2153.01</ele>
        <time>2013-11-03T07:32:45Z</time>
      </trkpt>
      <trkpt lat="28.40951" lon="83.79516">
        <ele>2155.89</ele>
        <time>2013-11-03T07:32:58Z</time>
      </trkpt>
      <trkpt lat="28.40952" lon="83.7952">
        <ele>2158.3</ele>
        <time>2013-11-03T07:33:13Z</time>
      </trkpt>
      <trkpt lat="28.40953" lon="83.79521">
        <ele>2158.3</ele>
        <time>2013-11-03T07:33:29Z</time>
      </trkpt>
      <trkpt lat="28.40953" lon="83.79523">
        <ele>2158.78</ele>
        <time>2013-11-03T07:33:46Z</time>
      </trkpt>
      <trkpt lat="28.40953" lon="83.79524">
        <ele>2158.3</ele>
        <time>2013-11-03T07:34:05Z</time>
      </trkpt>
      <trkpt lat="28.40952" lon="83.79521">
        <ele>2159.26</ele>
        <time>2013-11-03T07:34:28Z</time>
      </trkpt>
      <trkpt lat="28.40951" lon="83.79521">
        <ele>2158.78</ele>
        <time>2013-11-03T07:34:39Z</time>
      </trkpt>
      <trkpt lat="28.4095" lon="83.79521">
        <ele>2159.26</ele>
        <time>2013-11-03T07:34:59Z</time>
      </trkpt>
      <trkpt lat="28.4095" lon="83.7952">
        <ele>2159.26</ele>
        <time>2013-11-03T07:35:18Z</time>
      </trkpt>
      <trkpt lat="28.40952" lon="83.79526">
        <ele>2161.66</ele>
        <time>2013-11-03T07:35:34Z</time>
      </trkpt>
      <trkpt lat="28.40952" lon="83.79536">
        <ele>2164.06</ele>
        <time>2013-11-03T07:35:55Z</time>
      </trkpt>
      <trkpt lat="28.4095" lon="83.79534">
        <ele>2166.95</ele>
        <time>2013-11-03T07:36:09Z</time>
      </trkpt>
      <trkpt lat="28.40959" lon="83.79538">
        <ele>2170.79</ele>
        <time>2013-11-03T07:36:27Z</time>
      </trkpt>
      <trkpt lat="28.40962" lon="83.79541">
        <ele>2172.72</ele>
        <time>2013-11-03T07:36:50Z</time>
      </trkpt>
      <trkpt lat="28.40963" lon="83.79543">
        <ele>2175.12</ele>
        <time>2013-11-03T07:37:04Z</time>
      </trkpt>
      <trkpt lat="28.40963" lon="83.79544">
        <ele>2178.48</ele>
        <time>2013-11-03T07:37:19Z</time>
      </trkpt>
      <trkpt lat="28.40963" lon="83.79549">
        <ele>2181.37</ele>
        <time>2013-11-03T07:37:34Z</time>
      </trkpt>
      <trkpt lat="28.40965" lon="83.7956">
        <ele>2183.77</ele>
        <time>2013-11-03T07:37:52Z</time>
      </trkpt>
      <trkpt lat="28.40971" lon="83.79567">
        <ele>2187.14</ele>
        <time>2013-11-03T07:38:08Z</time>
      </trkpt>
      <trkpt lat="28.40976" lon="83.79574">
        <ele>2187.62</ele>
        <time>2013-11-03T07:38:22Z</time>
      </trkpt>
      <trkpt lat="28.40987" lon="83.79585">
        <ele>2187.62</ele>
        <time>2013-11-03T07:38:40Z</time>
      </trkpt>
      <trkpt lat="28.40996" lon="83.79606">
        <ele>2188.58</ele>
        <time>2013-11-03T07:38:56Z</time>
      </trkpt>
      <trkpt lat="28.41006" lon="83.79614">
        <ele>2190.98</ele>
        <time>2013-11-03T07:39:10Z</time>
      </trkpt>
      <trkpt lat="28.41016" lon="83.79622">
        <ele>2193.39</ele>
        <time>2013-11-03T07:39:29Z</time>
      </trkpt>
      <trkpt lat="28.41022" lon="83.79625">
        <ele>2196.75</ele>
        <time>2013-11-03T07:39:43Z</time>
      </trkpt>
      <trkpt lat="28.41028" lon="83.79632">
        <ele>2199.63</ele>
        <time>2013-11-03T07:39:59Z</time>
      </trkpt>
      <trkpt lat="28.41038" lon="83.79631">
        <ele>2200.59</ele>
        <time>2013-11-03T07:40:20Z</time>
      </trkpt>
      <trkpt lat="28.4104" lon="83.79632">
        <ele>2200.59</ele>
        <time>2013-11-03T07:40:49Z</time>
      </trkpt>
      <trkpt lat="28.41032" lon="83.79644">
        <ele>2200.59</ele>
        <time>2013-11-03T07:41:12Z</time>
      </trkpt>
      <trkpt lat="28.41028" lon="83.79647">
        <ele>2200.59</ele>
        <time>2013-11-03T07:41:36Z</time>
      </trkpt>
      <trkpt lat="28.41029" lon="83.79649">
        <ele>2200.59</ele>
        <time>2013-11-03T07:41:52Z</time>
      </trkpt>
      <trkpt lat="28.41033" lon="83.79649">
        <ele>2199.63</ele>
        <time>2013-11-03T07:41:57Z</time>
      </trkpt>
      <trkpt lat="28.41035" lon="83.79652">
        <ele>2199.15</ele>
        <time>2013-11-03T07:42:01Z</time>
      </trkpt>
      <trkpt lat="28.41045" lon="83.7966">
        <ele>2197.71</ele>
        <time>2013-11-03T07:42:15Z</time>
      </trkpt>
      <trkpt lat="28.41056" lon="83.79662">
        <ele>2196.75</ele>
        <time>2013-11-03T07:42:25Z</time>
      </trkpt>
      <trkpt lat="28.41072" lon="83.79682">
        <ele>2195.31</ele>
        <time>2013-11-03T07:42:41Z</time>
      </trkpt>
      <trkpt lat="28.41077" lon="83.79685">
        <ele>2194.83</ele>
        <time>2013-11-03T07:42:55Z</time>
      </trkpt>
      <trkpt lat="28.41084" lon="83.7969">
        <ele>2194.83</ele>
        <time>2013-11-03T07:43:08Z</time>
      </trkpt>
      <trkpt lat="28.41091" lon="83.79707">
        <ele>2195.79</ele>
        <time>2013-11-03T07:43:25Z</time>
      </trkpt>
      <trkpt lat="28.41096" lon="83.79717">
        <ele>2197.71</ele>
        <time>2013-11-03T07:43:42Z</time>
      </trkpt>
      <trkpt lat="28.41096" lon="83.79729">
        <ele>2199.15</ele>
        <time>2013-11-03T07:43:56Z</time>
      </trkpt>
      <trkpt lat="28.41097" lon="83.79737">
        <ele>2198.19</ele>
        <time>2013-11-03T07:44:15Z</time>
      </trkpt>
      <trkpt lat="28.41095" lon="83.79745">
        <ele>2199.15</ele>
        <time>2013-11-03T07:44:32Z</time>
      </trkpt>
      <trkpt lat="28.41094" lon="83.79761">
        <ele>2200.11</ele>
        <time>2013-11-03T07:44:51Z</time>
      </trkpt>
      <trkpt lat="28.41091" lon="83.79768">
        <ele>2203</ele>
        <time>2013-11-03T07:45:06Z</time>
      </trkpt>
      <trkpt lat="28.41089" lon="83.79779">
        <ele>2204.44</ele>
        <time>2013-11-03T07:45:22Z</time>
      </trkpt>
      <trkpt lat="28.41086" lon="83.7979">
        <ele>2204.92</ele>
        <time>2013-11-03T07:45:34Z</time>
      </trkpt>
      <trkpt lat="28.41089" lon="83.79807">
        <ele>2203.96</ele>
        <time>2013-11-03T07:45:49Z</time>
      </trkpt>
      <trkpt lat="28.41089" lon="83.79808">
        <ele>2203.96</ele>
        <time>2013-11-03T07:45:50Z</time>
      </trkpt>
      <trkpt lat="28.41089" lon="83.79814">
        <ele>2204.44</ele>
        <time>2013-11-03T07:45:54Z</time>
      </trkpt>
      <trkpt lat="28.41087" lon="83.79829">
        <ele>2205.88</ele>
        <time>2013-11-03T07:46:07Z</time>
      </trkpt>
      <trkpt lat="28.41089" lon="83.79838">
        <ele>2205.4</ele>
        <time>2013-11-03T07:46:17Z</time>
      </trkpt>
      <trkpt lat="28.41087" lon="83.79852">
        <ele>2203.96</ele>
        <time>2013-11-03T07:46:31Z</time>
      </trkpt>
      <trkpt lat="28.41083" lon="83.79864">
        <ele>2204.44</ele>
        <time>2013-11-03T07:46:44Z</time>
      </trkpt>
      <trkpt lat="28.4108" lon="83.79878">
        <ele>2204.44</ele>
        <time>2013-11-03T07:46:58Z</time>
      </trkpt>
      <trkpt lat="28.41077" lon="83.79891">
        <ele>2203.48</ele>
        <time>2013-11-03T07:47:11Z</time>
      </trkpt>
      <trkpt lat="28.41082" lon="83.799">
        <ele>2204.44</ele>
        <time>2013-11-03T07:47:24Z</time>
      </trkpt>
      <trkpt lat="28.41085" lon="83.79916">
        <ele>2204.92</ele>
        <time>2013-11-03T07:47:41Z</time>
      </trkpt>
      <trkpt lat="28.41088" lon="83.79929">
        <ele>2204.44</ele>
        <time>2013-11-03T07:47:55Z</time>
      </trkpt>
      <trkpt lat="28.41086" lon="83.79943">
        <ele>2202.52</ele>
        <time>2013-11-03T07:48:09Z</time>
      </trkpt>
      <trkpt lat="28.41086" lon="83.79957">
        <ele>2203.96</ele>
        <time>2013-11-03T07:48:23Z</time>
      </trkpt>
      <trkpt lat="28.41085" lon="83.79961">
        <ele>2203.96</ele>
        <time>2013-11-03T07:48:27Z</time>
      </trkpt>
      <trkpt lat="28.41084" lon="83.79964">
        <ele>2204.44</ele>
        <time>2013-11-03T07:48:30Z</time>
      </trkpt>
      <trkpt lat="28.41077" lon="83.79977">
        <ele>2202.52</ele>
        <time>2013-11-03T07:48:43Z</time>
      </trkpt>
      <trkpt lat="28.41075" lon="83.79978">
        <ele>2202.52</ele>
        <time>2013-11-03T07:48:48Z</time>
      </trkpt>
      <trkpt lat="28.41072" lon="83.79979">
        <ele>2202.04</ele>
        <time>2013-11-03T07:48:51Z</time>
      </trkpt>
      <trkpt lat="28.41069" lon="83.79982">
        <ele>2203.96</ele>
        <time>2013-11-03T07:48:59Z</time>
      </trkpt>
      <trkpt lat="28.4106" lon="83.79992">
        <ele>2205.4</ele>
        <time>2013-11-03T07:49:12Z</time>
      </trkpt>
      <trkpt lat="28.41053" lon="83.80001">
        <ele>2205.88</ele>
        <time>2013-11-03T07:49:17Z</time>
      </trkpt>
      <trkpt lat="28.41049" lon="83.80002">
        <ele>2205.88</ele>
        <time>2013-11-03T07:49:32Z</time>
      </trkpt>
      <trkpt lat="28.41049" lon="83.80005">
        <ele>2206.36</ele>
        <time>2013-11-03T07:49:35Z</time>
      </trkpt>
      <trkpt lat="28.41049" lon="83.80007">
        <ele>2205.88</ele>
        <time>2013-11-03T07:49:37Z</time>
      </trkpt>
      <trkpt lat="28.41044" lon="83.80018">
        <ele>2205.88</ele>
        <time>2013-11-03T07:49:49Z</time>
      </trkpt>
      <trkpt lat="28.41043" lon="83.80033">
        <ele>2203</ele>
        <time>2013-11-03T07:50:05Z</time>
      </trkpt>
      <trkpt lat="28.41043" lon="83.80041">
        <ele>2202.52</ele>
        <time>2013-11-03T07:50:10Z</time>
      </trkpt>
      <trkpt lat="28.41048" lon="83.80058">
        <ele>2203</ele>
        <time>2013-11-03T07:50:26Z</time>
      </trkpt>
      <trkpt lat="28.41057" lon="83.80066">
        <ele>2204.92</ele>
        <time>2013-11-03T07:50:41Z</time>
      </trkpt>
      <trkpt lat="28.41065" lon="83.80075">
        <ele>2206.36</ele>
        <time>2013-11-03T07:50:55Z</time>
      </trkpt>
      <trkpt lat="28.41071" lon="83.80084">
        <ele>2208.77</ele>
        <time>2013-11-03T07:51:09Z</time>
      </trkpt>
      <trkpt lat="28.41076" lon="83.8009">
        <ele>2211.17</ele>
        <time>2013-11-03T07:51:23Z</time>
      </trkpt>
      <trkpt lat="28.41082" lon="83.80094">
        <ele>2213.57</ele>
        <time>2013-11-03T07:51:37Z</time>
      </trkpt>
      <trkpt lat="28.41089" lon="83.80093">
        <ele>2215.98</ele>
        <time>2013-11-03T07:51:48Z</time>
      </trkpt>
      <trkpt lat="28.41093" lon="83.80094">
        <ele>2217.42</ele>
        <time>2013-11-03T07:51:56Z</time>
      </trkpt>
      <trkpt lat="28.411" lon="83.80097">
        <ele>2219.82</ele>
        <time>2013-11-03T07:52:09Z</time>
      </trkpt>
      <trkpt lat="28.41108" lon="83.80099">
        <ele>2222.71</ele>
        <time>2013-11-03T07:52:24Z</time>
      </trkpt>
      <trkpt lat="28.41114" lon="83.801">
        <ele>2224.63</ele>
        <time>2013-11-03T07:52:39Z</time>
      </trkpt>
      <trkpt lat="28.41124" lon="83.80108">
        <ele>2226.55</ele>
        <time>2013-11-03T07:52:54Z</time>
      </trkpt>
      <trkpt lat="28.41131" lon="83.80111">
        <ele>2227.99</ele>
        <time>2013-11-03T07:53:09Z</time>
      </trkpt>
      <trkpt lat="28.41137" lon="83.80116">
        <ele>2229.92</ele>
        <time>2013-11-03T07:53:25Z</time>
      </trkpt>
      <trkpt lat="28.41144" lon="83.80121">
        <ele>2232.32</ele>
        <time>2013-11-03T07:53:42Z</time>
      </trkpt>
      <trkpt lat="28.4115" lon="83.80126">
        <ele>2234.24</ele>
        <time>2013-11-03T07:53:56Z</time>
      </trkpt>
      <trkpt lat="28.41151" lon="83.80129">
        <ele>2236.16</ele>
        <time>2013-11-03T07:54:12Z</time>
      </trkpt>
      <trkpt lat="28.41151" lon="83.80133">
        <ele>2237.13</ele>
        <time>2013-11-03T07:54:30Z</time>
      </trkpt>
      <trkpt lat="28.41153" lon="83.80137">
        <ele>2239.53</ele>
        <time>2013-11-03T07:54:45Z</time>
      </trkpt>
      <trkpt lat="28.41156" lon="83.80154">
        <ele>2240.97</ele>
        <time>2013-11-03T07:54:59Z</time>
      </trkpt>
      <trkpt lat="28.4116" lon="83.80161">
        <ele>2242.89</ele>
        <time>2013-11-03T07:55:14Z</time>
      </trkpt>
      <trkpt lat="28.41162" lon="83.80165">
        <ele>2245.3</ele>
        <time>2013-11-03T07:55:29Z</time>
      </trkpt>
      <trkpt lat="28.41168" lon="83.80174">
        <ele>2247.22</ele>
        <time>2013-11-03T07:55:45Z</time>
      </trkpt>
      <trkpt lat="28.41164" lon="83.80175">
        <ele>2247.22</ele>
        <time>2013-11-03T07:56:08Z</time>
      </trkpt>
      <trkpt lat="28.41162" lon="83.80171">
        <ele>2248.18</ele>
        <time>2013-11-03T07:56:25Z</time>
      </trkpt>
      <trkpt lat="28.41163" lon="83.80173">
        <ele>2249.62</ele>
        <time>2013-11-03T07:56:35Z</time>
      </trkpt>
      <trkpt lat="28.41164" lon="83.80183">
        <ele>2252.51</ele>
        <time>2013-11-03T07:56:47Z</time>
      </trkpt>
      <trkpt lat="28.41166" lon="83.80197">
        <ele>2254.91</ele>
        <time>2013-11-03T07:57:00Z</time>
      </trkpt>
      <trkpt lat="28.41168" lon="83.80206">
        <ele>2256.83</ele>
        <time>2013-11-03T07:57:13Z</time>
      </trkpt>
      <trkpt lat="28.41171" lon="83.80214">
        <ele>2258.75</ele>
        <time>2013-11-03T07:57:26Z</time>
      </trkpt>
      <trkpt lat="28.41169" lon="83.80227">
        <ele>2259.72</ele>
        <time>2013-11-03T07:57:42Z</time>
      </trkpt>
      <trkpt lat="28.41169" lon="83.80235">
        <ele>2261.64</ele>
        <time>2013-11-03T07:57:57Z</time>
      </trkpt>
      <trkpt lat="28.41173" lon="83.80237">
        <ele>2263.08</ele>
        <time>2013-11-03T07:58:12Z</time>
      </trkpt>
      <trkpt lat="28.41173" lon="83.80241">
        <ele>2265.96</ele>
        <time>2013-11-03T07:58:26Z</time>
      </trkpt>
      <trkpt lat="28.41172" lon="83.80249">
        <ele>2268.85</ele>
        <time>2013-11-03T07:58:39Z</time>
      </trkpt>
      <trkpt lat="28.4117" lon="83.80257">
        <ele>2271.73</ele>
        <time>2013-11-03T07:58:50Z</time>
      </trkpt>
      <trkpt lat="28.4117" lon="83.80258">
        <ele>2271.73</ele>
        <time>2013-11-03T07:58:51Z</time>
      </trkpt>
      <trkpt lat="28.41166" lon="83.80268">
        <ele>2273.17</ele>
        <time>2013-11-03T07:59:01Z</time>
      </trkpt>
      <trkpt lat="28.41167" lon="83.80279">
        <ele>2275.58</ele>
        <time>2013-11-03T07:59:13Z</time>
      </trkpt>
      <trkpt lat="28.41166" lon="83.8028">
        <ele>2275.58</ele>
        <time>2013-11-03T07:59:29Z</time>
      </trkpt>
      <trkpt lat="28.41165" lon="83.80282">
        <ele>2275.1</ele>
        <time>2013-11-03T07:59:44Z</time>
      </trkpt>
      <trkpt lat="28.41165" lon="83.80285">
        <ele>2275.58</ele>
        <time>2013-11-03T07:59:58Z</time>
      </trkpt>
      <trkpt lat="28.41164" lon="83.80287">
        <ele>2275.58</ele>
        <time>2013-11-03T08:00:15Z</time>
      </trkpt>
      <trkpt lat="28.41164" lon="83.80288">
        <ele>2275.58</ele>
        <time>2013-11-03T08:00:36Z</time>
      </trkpt>
      <trkpt lat="28.41163" lon="83.80289">
        <ele>2275.58</ele>
        <time>2013-11-03T08:00:56Z</time>
      </trkpt>
      <trkpt lat="28.41163" lon="83.8029">
        <ele>2275.58</ele>
        <time>2013-11-03T08:01:16Z</time>
      </trkpt>
      <trkpt lat="28.41164" lon="83.80295">
        <ele>2273.17</ele>
        <time>2013-11-03T08:01:34Z</time>
      </trkpt>
      <trkpt lat="28.41167" lon="83.80299">
        <ele>2269.81</ele>
        <time>2013-11-03T08:01:44Z</time>
      </trkpt>
      <trkpt lat="28.41167" lon="83.803">
        <ele>2269.81</ele>
        <time>2013-11-03T08:01:48Z</time>
      </trkpt>
      <trkpt lat="28.41173" lon="83.80305">
        <ele>2266.93</ele>
        <time>2013-11-03T08:02:00Z</time>
      </trkpt>
      <trkpt lat="28.41174" lon="83.80306">
        <ele>2266.45</ele>
        <time>2013-11-03T08:02:02Z</time>
      </trkpt>
      <trkpt lat="28.41178" lon="83.80311">
        <ele>2265.48</ele>
        <time>2013-11-03T08:02:19Z</time>
      </trkpt>
      <trkpt lat="28.41179" lon="83.80312">
        <ele>2265.48</ele>
        <time>2013-11-03T08:02:38Z</time>
      </trkpt>
      <trkpt lat="28.41178" lon="83.80312">
        <ele>2265</ele>
        <time>2013-11-03T08:02:54Z</time>
      </trkpt>
      <trkpt lat="28.4117" lon="83.80314">
        <ele>2263.56</ele>
        <time>2013-11-03T08:03:00Z</time>
      </trkpt>
      <trkpt lat="28.41158" lon="83.80316">
        <ele>2262.6</ele>
        <time>2013-11-03T08:03:14Z</time>
      </trkpt>
      <trkpt lat="28.4116" lon="83.80322">
        <ele>2259.24</ele>
        <time>2013-11-03T08:03:25Z</time>
      </trkpt>
      <trkpt lat="28.41161" lon="83.80327">
        <ele>2256.35</ele>
        <time>2013-11-03T08:03:40Z</time>
      </trkpt>
      <trkpt lat="28.41162" lon="83.8033">
        <ele>2254.43</ele>
        <time>2013-11-03T08:03:51Z</time>
      </trkpt>
      <trkpt lat="28.41163" lon="83.80337">
        <ele>2252.03</ele>
        <time>2013-11-03T08:04:04Z</time>
      </trkpt>
      <trkpt lat="28.41164" lon="83.80337">
        <ele>2252.03</ele>
        <time>2013-11-03T08:04:05Z</time>
      </trkpt>
      <trkpt lat="28.41175" lon="83.80335">
        <ele>2250.58</ele>
        <time>2013-11-03T08:04:19Z</time>
      </trkpt>
      <trkpt lat="28.41183" lon="83.80335">
        <ele>2249.14</ele>
        <time>2013-11-03T08:04:32Z</time>
      </trkpt>
      <trkpt lat="28.41189" lon="83.80338">
        <ele>2247.22</ele>
        <time>2013-11-03T08:04:46Z</time>
      </trkpt>
      <trkpt lat="28.41192" lon="83.80341">
        <ele>2245.3</ele>
        <time>2013-11-03T08:05:04Z</time>
      </trkpt>
      <trkpt lat="28.41193" lon="83.80347">
        <ele>2243.37</ele>
        <time>2013-11-03T08:05:18Z</time>
      </trkpt>
      <trkpt lat="28.41192" lon="83.8035">
        <ele>2241.45</ele>
        <time>2013-11-03T08:05:36Z</time>
      </trkpt>
      <trkpt lat="28.41199" lon="83.80356">
        <ele>2238.09</ele>
        <time>2013-11-03T08:05:48Z</time>
      </trkpt>
      <trkpt lat="28.41201" lon="83.80359">
        <ele>2238.09</ele>
        <time>2013-11-03T08:05:54Z</time>
      </trkpt>
      <trkpt lat="28.41203" lon="83.8036">
        <ele>2237.61</ele>
        <time>2013-11-03T08:05:56Z</time>
      </trkpt>
      <trkpt lat="28.41213" lon="83.80362">
        <ele>2235.68</ele>
        <time>2013-11-03T08:06:06Z</time>
      </trkpt>
      <trkpt lat="28.41218" lon="83.80368">
        <ele>2233.76</ele>
        <time>2013-11-03T08:06:20Z</time>
      </trkpt>
      <trkpt lat="28.41227" lon="83.80374">
        <ele>2230.88</ele>
        <time>2013-11-03T08:06:37Z</time>
      </trkpt>
      <trkpt lat="28.41231" lon="83.80374">
        <ele>2227.99</ele>
        <time>2013-11-03T08:06:50Z</time>
      </trkpt>
      <trkpt lat="28.41232" lon="83.80377">
        <ele>2226.07</ele>
        <time>2013-11-03T08:07:07Z</time>
      </trkpt>
      <trkpt lat="28.41232" lon="83.80377">
        <ele>2225.59</ele>
        <time>2013-11-03T08:07:08Z</time>
      </trkpt>
      <trkpt lat="28.41232" lon="83.80382">
        <ele>2224.63</ele>
        <time>2013-11-03T08:07:22Z</time>
      </trkpt>
      <trkpt lat="28.41233" lon="83.80383">
        <ele>2223.19</ele>
        <time>2013-11-03T08:07:27Z</time>
      </trkpt>
      <trkpt lat="28.41238" lon="83.80381">
        <ele>2220.78</ele>
        <time>2013-11-03T08:07:38Z</time>
      </trkpt>
      <trkpt lat="28.41247" lon="83.80385">
        <ele>2218.38</ele>
        <time>2013-11-03T08:07:51Z</time>
      </trkpt>
      <trkpt lat="28.41253" lon="83.80393">
        <ele>2215.01</ele>
        <time>2013-11-03T08:08:05Z</time>
      </trkpt>
      <trkpt lat="28.41253" lon="83.80395">
        <ele>2212.13</ele>
        <time>2013-11-03T08:08:18Z</time>
      </trkpt>
      <trkpt lat="28.41256" lon="83.80391">
        <ele>2208.77</ele>
        <time>2013-11-03T08:08:29Z</time>
      </trkpt>
      <trkpt lat="28.41256" lon="83.8039">
        <ele>2209.25</ele>
        <time>2013-11-03T08:08:52Z</time>
      </trkpt>
      <trkpt lat="28.41259" lon="83.80388">
        <ele>2205.88</ele>
        <time>2013-11-03T08:09:08Z</time>
      </trkpt>
      <trkpt lat="28.41266" lon="83.80386">
        <ele>2204.44</ele>
        <time>2013-11-03T08:09:15Z</time>
      </trkpt>
      <trkpt lat="28.41279" lon="83.80378">
        <ele>2201.08</ele>
        <time>2013-11-03T08:09:30Z</time>
      </trkpt>
      <trkpt lat="28.41286" lon="83.8038">
        <ele>2197.71</ele>
        <time>2013-11-03T08:09:43Z</time>
      </trkpt>
      <trkpt lat="28.413" lon="83.80377">
        <ele>2196.75</ele>
        <time>2013-11-03T08:09:58Z</time>
      </trkpt>
      <trkpt lat="28.41306" lon="83.80381">
        <ele>2197.23</ele>
        <time>2013-11-03T08:10:10Z</time>
      </trkpt>
      <trkpt lat="28.41306" lon="83.80383">
        <ele>2197.23</ele>
        <time>2013-11-03T08:10:12Z</time>
      </trkpt>
      <trkpt lat="28.41307" lon="83.80387">
        <ele>2197.71</ele>
        <time>2013-11-03T08:10:14Z</time>
      </trkpt>
      <trkpt lat="28.41311" lon="83.804">
        <ele>2198.19</ele>
        <time>2013-11-03T08:10:27Z</time>
      </trkpt>
      <trkpt lat="28.41312" lon="83.80406">
        <ele>2198.67</ele>
        <time>2013-11-03T08:10:33Z</time>
      </trkpt>
      <trkpt lat="28.4131" lon="83.80417">
        <ele>2200.59</ele>
        <time>2013-11-03T08:10:47Z</time>
      </trkpt>
      <trkpt lat="28.41308" lon="83.80426">
        <ele>2202.04</ele>
        <time>2013-11-03T08:11:00Z</time>
      </trkpt>
      <trkpt lat="28.41307" lon="83.8044">
        <ele>2202.04</ele>
        <time>2013-11-03T08:11:14Z</time>
      </trkpt>
      <trkpt lat="28.41315" lon="83.80448">
        <ele>2200.59</ele>
        <time>2013-11-03T08:11:28Z</time>
      </trkpt>
      <trkpt lat="28.41316" lon="83.80457">
        <ele>2197.71</ele>
        <time>2013-11-03T08:11:41Z</time>
      </trkpt>
      <trkpt lat="28.41317" lon="83.80468">
        <ele>2195.31</ele>
        <time>2013-11-03T08:11:52Z</time>
      </trkpt>
      <trkpt lat="28.41317" lon="83.80482">
        <ele>2191.94</ele>
        <time>2013-11-03T08:12:07Z</time>
      </trkpt>
      <trkpt lat="28.41316" lon="83.80497">
        <ele>2189.06</ele>
        <time>2013-11-03T08:12:21Z</time>
      </trkpt>
      <trkpt lat="28.41316" lon="83.8051">
        <ele>2187.62</ele>
        <time>2013-11-03T08:12:35Z</time>
      </trkpt>
      <trkpt lat="28.41315" lon="83.80524">
        <ele>2186.18</ele>
        <time>2013-11-03T08:12:46Z</time>
      </trkpt>
      <trkpt lat="28.41312" lon="83.80538">
        <ele>2185.69</ele>
        <time>2013-11-03T08:12:59Z</time>
      </trkpt>
      <trkpt lat="28.41312" lon="83.80539">
        <ele>2185.69</ele>
        <time>2013-11-03T08:13:00Z</time>
      </trkpt>
      <trkpt lat="28.41307" lon="83.80553">
        <ele>2184.25</ele>
        <time>2013-11-03T08:13:14Z</time>
      </trkpt>
      <trkpt lat="28.41302" lon="83.80565">
        <ele>2183.29</ele>
        <time>2013-11-03T08:13:29Z</time>
      </trkpt>
      <trkpt lat="28.41302" lon="83.80566">
        <ele>2182.81</ele>
        <time>2013-11-03T08:13:31Z</time>
      </trkpt>
      <trkpt lat="28.41303" lon="83.80572">
        <ele>2182.33</ele>
        <time>2013-11-03T08:13:35Z</time>
      </trkpt>
      <trkpt lat="28.41306" lon="83.8058">
        <ele>2181.85</ele>
        <time>2013-11-03T08:13:41Z</time>
      </trkpt>
      <trkpt lat="28.41312" lon="83.80593">
        <ele>2179.93</ele>
        <time>2013-11-03T08:13:53Z</time>
      </trkpt>
      <trkpt lat="28.41313" lon="83.80595">
        <ele>2179.93</ele>
        <time>2013-11-03T08:13:55Z</time>
      </trkpt>
      <trkpt lat="28.41313" lon="83.80613">
        <ele>2179.45</ele>
        <time>2013-11-03T08:14:10Z</time>
      </trkpt>
      <trkpt lat="28.41313" lon="83.80628">
        <ele>2180.89</ele>
        <time>2013-11-03T08:14:22Z</time>
      </trkpt>
      <trkpt lat="28.41309" lon="83.8064">
        <ele>2181.85</ele>
        <time>2013-11-03T08:14:35Z</time>
      </trkpt>
      <trkpt lat="28.41309" lon="83.80642">
        <ele>2181.37</ele>
        <time>2013-11-03T08:14:38Z</time>
      </trkpt>
      <trkpt lat="28.41302" lon="83.80652">
        <ele>2181.85</ele>
        <time>2013-11-03T08:14:49Z</time>
      </trkpt>
      <trkpt lat="28.41299" lon="83.8066">
        <ele>2181.37</ele>
        <time>2013-11-03T08:14:56Z</time>
      </trkpt>
      <trkpt lat="28.413" lon="83.80671">
        <ele>2180.89</ele>
        <time>2013-11-03T08:15:07Z</time>
      </trkpt>
      <trkpt lat="28.41301" lon="83.80682">
        <ele>2182.33</ele>
        <time>2013-11-03T08:15:22Z</time>
      </trkpt>
      <trkpt lat="28.41303" lon="83.80693">
        <ele>2182.33</ele>
        <time>2013-11-03T08:15:34Z</time>
      </trkpt>
      <trkpt lat="28.41301" lon="83.80708">
        <ele>2182.81</ele>
        <time>2013-11-03T08:15:47Z</time>
      </trkpt>
      <trkpt lat="28.41295" lon="83.80717">
        <ele>2184.25</ele>
        <time>2013-11-03T08:15:59Z</time>
      </trkpt>
      <trkpt lat="28.41291" lon="83.80725">
        <ele>2185.21</ele>
        <time>2013-11-03T08:16:10Z</time>
      </trkpt>
      <trkpt lat="28.41287" lon="83.80731">
        <ele>2186.66</ele>
        <time>2013-11-03T08:16:22Z</time>
      </trkpt>
      <trkpt lat="28.41279" lon="83.80741">
        <ele>2189.06</ele>
        <time>2013-11-03T08:16:34Z</time>
      </trkpt>
      <trkpt lat="28.41271" lon="83.8075">
        <ele>2189.06</ele>
        <time>2013-11-03T08:16:46Z</time>
      </trkpt>
      <trkpt lat="28.41269" lon="83.80753">
        <ele>2189.06</ele>
        <time>2013-11-03T08:16:50Z</time>
      </trkpt>
      <trkpt lat="28.41257" lon="83.80757">
        <ele>2189.54</ele>
        <time>2013-11-03T08:17:04Z</time>
      </trkpt>
      <trkpt lat="28.41245" lon="83.80765">
        <ele>2187.62</ele>
        <time>2013-11-03T08:17:19Z</time>
      </trkpt>
      <trkpt lat="28.41231" lon="83.80774">
        <ele>2187.14</ele>
        <time>2013-11-03T08:17:35Z</time>
      </trkpt>
      <trkpt lat="28.41229" lon="83.80785">
        <ele>2189.06</ele>
        <time>2013-11-03T08:17:48Z</time>
      </trkpt>
      <trkpt lat="28.4123" lon="83.80786">
        <ele>2189.06</ele>
        <time>2013-11-03T08:18:03Z</time>
      </trkpt>
      <trkpt lat="28.4123" lon="83.80787">
        <ele>2189.06</ele>
        <time>2013-11-03T08:18:21Z</time>
      </trkpt>
      <trkpt lat="28.41231" lon="83.80787">
        <ele>2189.54</ele>
        <time>2013-11-03T08:18:41Z</time>
      </trkpt>
      <trkpt lat="28.41229" lon="83.80788">
        <ele>2190.02</ele>
        <time>2013-11-03T08:18:59Z</time>
      </trkpt>
      <trkpt lat="28.41229" lon="83.80788">
        <ele>2190.5</ele>
        <time>2013-11-03T08:19:13Z</time>
      </trkpt>
      <trkpt lat="28.41228" lon="83.80788">
        <ele>2189.54</ele>
        <time>2013-11-03T08:19:31Z</time>
      </trkpt>
      <trkpt lat="28.41228" lon="83.80787">
        <ele>2189.54</ele>
        <time>2013-11-03T08:19:54Z</time>
      </trkpt>
      <trkpt lat="28.41228" lon="83.80787">
        <ele>2189.54</ele>
        <time>2013-11-03T08:20:12Z</time>
      </trkpt>
      <trkpt lat="28.41228" lon="83.80787">
        <ele>2190.02</ele>
        <time>2013-11-03T08:20:34Z</time>
      </trkpt>
      <trkpt lat="28.41227" lon="83.80787">
        <ele>2190.02</ele>
        <time>2013-11-03T08:21:00Z</time>
      </trkpt>
      <trkpt lat="28.41228" lon="83.80785">
        <ele>2190.5</ele>
        <time>2013-11-03T08:21:15Z</time>
      </trkpt>
      <trkpt lat="28.41229" lon="83.80789">
        <ele>2190.02</ele>
        <time>2013-11-03T08:21:26Z</time>
      </trkpt>
      <trkpt lat="28.41231" lon="83.80793">
        <ele>2190.5</ele>
        <time>2013-11-03T08:21:30Z</time>
      </trkpt>
      <trkpt lat="28.41239" lon="83.80813">
        <ele>2189.06</ele>
        <time>2013-11-03T08:21:45Z</time>
      </trkpt>
      <trkpt lat="28.41244" lon="83.80826">
        <ele>2186.66</ele>
        <time>2013-11-03T08:21:59Z</time>
      </trkpt>
      <trkpt lat="28.4125" lon="83.80841">
        <ele>2183.29</ele>
        <time>2013-11-03T08:22:12Z</time>
      </trkpt>
      <trkpt lat="28.41253" lon="83.80846">
        <ele>2182.81</ele>
        <time>2013-11-03T08:22:20Z</time>
      </trkpt>
      <trkpt lat="28.41257" lon="83.80857">
        <ele>2181.37</ele>
        <time>2013-11-03T08:22:29Z</time>
      </trkpt>
      <trkpt lat="28.41258" lon="83.80859">
        <ele>2180.89</ele>
        <time>2013-11-03T08:22:31Z</time>
      </trkpt>
      <trkpt lat="28.41259" lon="83.80871">
        <ele>2178.97</ele>
        <time>2013-11-03T08:22:41Z</time>
      </trkpt>
      <trkpt lat="28.41257" lon="83.8088">
        <ele>2177.04</ele>
        <time>2013-11-03T08:22:49Z</time>
      </trkpt>
      <trkpt lat="28.4126" lon="83.80885">
        <ele>2176.08</ele>
        <time>2013-11-03T08:22:53Z</time>
      </trkpt>
      <trkpt lat="28.41269" lon="83.80883">
        <ele>2175.6</ele>
        <time>2013-11-03T08:23:07Z</time>
      </trkpt>
      <trkpt lat="28.4127" lon="83.80884">
        <ele>2175.6</ele>
        <time>2013-11-03T08:23:25Z</time>
      </trkpt>
      <trkpt lat="28.41272" lon="83.80886">
        <ele>2175.6</ele>
        <time>2013-11-03T08:23:37Z</time>
      </trkpt>
      <trkpt lat="28.41276" lon="83.80893">
        <ele>2174.64</ele>
        <time>2013-11-03T08:23:45Z</time>
      </trkpt>
      <trkpt lat="28.41285" lon="83.80913">
        <ele>2171.76</ele>
        <time>2013-11-03T08:23:59Z</time>
      </trkpt>
      <trkpt lat="28.41288" lon="83.80919">
        <ele>2170.31</ele>
        <time>2013-11-03T08:24:05Z</time>
      </trkpt>
      <trkpt lat="28.41291" lon="83.80934">
        <ele>2166.95</ele>
        <time>2013-11-03T08:24:20Z</time>
      </trkpt>
      <trkpt lat="28.41296" lon="83.80944">
        <ele>2164.06</ele>
        <time>2013-11-03T08:24:32Z</time>
      </trkpt>
      <trkpt lat="28.41296" lon="83.80956">
        <ele>2161.18</ele>
        <time>2013-11-03T08:24:41Z</time>
      </trkpt>
      <trkpt lat="28.41297" lon="83.8096">
        <ele>2161.18</ele>
        <time>2013-11-03T08:24:44Z</time>
      </trkpt>
      <trkpt lat="28.41302" lon="83.80976">
        <ele>2160.7</ele>
        <time>2013-11-03T08:24:57Z</time>
      </trkpt>
      <trkpt lat="28.41302" lon="83.80985">
        <ele>2161.66</ele>
        <time>2013-11-03T08:25:04Z</time>
      </trkpt>
      <trkpt lat="28.41309" lon="83.81003">
        <ele>2163.58</ele>
        <time>2013-11-03T08:25:20Z</time>
      </trkpt>
      <trkpt lat="28.41314" lon="83.81017">
        <ele>2163.58</ele>
        <time>2013-11-03T08:25:33Z</time>
      </trkpt>
      <trkpt lat="28.41323" lon="83.81023">
        <ele>2163.1</ele>
        <time>2013-11-03T08:25:45Z</time>
      </trkpt>
      <trkpt lat="28.41331" lon="83.8103">
        <ele>2163.1</ele>
        <time>2013-11-03T08:25:58Z</time>
      </trkpt>
      <trkpt lat="28.41333" lon="83.81034">
        <ele>2162.14</ele>
        <time>2013-11-03T08:26:01Z</time>
      </trkpt>
      <trkpt lat="28.4134" lon="83.81049">
        <ele>2162.62</ele>
        <time>2013-11-03T08:26:11Z</time>
      </trkpt>
      <trkpt lat="28.41352" lon="83.8106">
        <ele>2164.06</ele>
        <time>2013-11-03T08:26:26Z</time>
      </trkpt>
      <trkpt lat="28.41356" lon="83.81067">
        <ele>2165.51</ele>
        <time>2013-11-03T08:26:35Z</time>
      </trkpt>
      <trkpt lat="28.41356" lon="83.81081">
        <ele>2166.47</ele>
        <time>2013-11-03T08:26:48Z</time>
      </trkpt>
      <trkpt lat="28.41362" lon="83.81088">
        <ele>2168.39</ele>
        <time>2013-11-03T08:27:00Z</time>
      </trkpt>
      <trkpt lat="28.41365" lon="83.81096">
        <ele>2169.35</ele>
        <time>2013-11-03T08:27:11Z</time>
      </trkpt>
      <trkpt lat="28.41366" lon="83.81103">
        <ele>2170.79</ele>
        <time>2013-11-03T08:27:24Z</time>
      </trkpt>
      <trkpt lat="28.41366" lon="83.8111">
        <ele>2171.27</ele>
        <time>2013-11-03T08:27:45Z</time>
      </trkpt>
      <trkpt lat="28.41367" lon="83.8111">
        <ele>2171.27</ele>
        <time>2013-11-03T08:28:05Z</time>
      </trkpt>
      <trkpt lat="28.4137" lon="83.81115">
        <ele>2169.83</ele>
        <time>2013-11-03T08:28:24Z</time>
      </trkpt>
      <trkpt lat="28.41369" lon="83.81116">
        <ele>2169.83</ele>
        <time>2013-11-03T08:28:38Z</time>
      </trkpt>
      <trkpt lat="28.41371" lon="83.81123">
        <ele>2167.91</ele>
        <time>2013-11-03T08:28:50Z</time>
      </trkpt>
      <trkpt lat="28.41375" lon="83.81134">
        <ele>2166.47</ele>
        <time>2013-11-03T08:28:59Z</time>
      </trkpt>
      <trkpt lat="28.41378" lon="83.81141">
        <ele>2165.51</ele>
        <time>2013-11-03T08:29:05Z</time>
      </trkpt>
      <trkpt lat="28.41378" lon="83.81152">
        <ele>2164.06</ele>
        <time>2013-11-03T08:29:17Z</time>
      </trkpt>
      <trkpt lat="28.41379" lon="83.81167">
        <ele>2161.66</ele>
        <time>2013-11-03T08:29:31Z</time>
      </trkpt>
      <trkpt lat="28.41379" lon="83.8117">
        <ele>2161.18</ele>
        <time>2013-11-03T08:29:33Z</time>
      </trkpt>
      <trkpt lat="28.41379" lon="83.81175">
        <ele>2160.7</ele>
        <time>2013-11-03T08:29:37Z</time>
      </trkpt>
      <trkpt lat="28.41387" lon="83.81188">
        <ele>2159.26</ele>
        <time>2013-11-03T08:29:48Z</time>
      </trkpt>
      <trkpt lat="28.41389" lon="83.81194">
        <ele>2158.78</ele>
        <time>2013-11-03T08:29:52Z</time>
      </trkpt>
      <trkpt lat="28.41392" lon="83.81215">
        <ele>2157.82</ele>
        <time>2013-11-03T08:30:07Z</time>
      </trkpt>
      <trkpt lat="28.41399" lon="83.81231">
        <ele>2155.89</ele>
        <time>2013-11-03T08:30:21Z</time>
      </trkpt>
      <trkpt lat="28.41399" lon="83.81242">
        <ele>2156.37</ele>
        <time>2013-11-03T08:30:33Z</time>
      </trkpt>
      <trkpt lat="28.41402" lon="83.81247">
        <ele>2156.37</ele>
        <time>2013-11-03T08:30:43Z</time>
      </trkpt>
      <trkpt lat="28.41404" lon="83.81265">
        <ele>2154.93</ele>
        <time>2013-11-03T08:30:58Z</time>
      </trkpt>
      <trkpt lat="28.41406" lon="83.81275">
        <ele>2154.45</ele>
        <time>2013-11-03T08:31:07Z</time>
      </trkpt>
      <trkpt lat="28.41406" lon="83.81287">
        <ele>2153.49</ele>
        <time>2013-11-03T08:31:15Z</time>
      </trkpt>
      <trkpt lat="28.41407" lon="83.81296">
        <ele>2153.01</ele>
        <time>2013-11-03T08:31:21Z</time>
      </trkpt>
      <trkpt lat="28.41409" lon="83.81301">
        <ele>2152.53</ele>
        <time>2013-11-03T08:31:25Z</time>
      </trkpt>
      <trkpt lat="28.41409" lon="83.81316">
        <ele>2152.05</ele>
        <time>2013-11-03T08:31:35Z</time>
      </trkpt>
      <trkpt lat="28.41417" lon="83.81333">
        <ele>2151.57</ele>
        <time>2013-11-03T08:31:50Z</time>
      </trkpt>
      <trkpt lat="28.41417" lon="83.81338">
        <ele>2151.57</ele>
        <time>2013-11-03T08:31:54Z</time>
      </trkpt>
      <trkpt lat="28.4142" lon="83.81348">
        <ele>2149.65</ele>
        <time>2013-11-03T08:32:05Z</time>
      </trkpt>
      <trkpt lat="28.41422" lon="83.81352">
        <ele>2149.16</ele>
        <time>2013-11-03T08:32:17Z</time>
      </trkpt>
      <trkpt lat="28.41421" lon="83.81352">
        <ele>2149.16</ele>
        <time>2013-11-03T08:32:33Z</time>
      </trkpt>
      <trkpt lat="28.4142" lon="83.81352">
        <ele>2149.16</ele>
        <time>2013-11-03T08:32:54Z</time>
      </trkpt>
      <trkpt lat="28.4142" lon="83.81352">
        <ele>2149.65</ele>
        <time>2013-11-03T08:33:13Z</time>
      </trkpt>
      <trkpt lat="28.4142" lon="83.81351">
        <ele>2149.16</ele>
        <time>2013-11-03T08:33:26Z</time>
      </trkpt>
      <trkpt lat="28.4142" lon="83.81351">
        <ele>2148.68</ele>
        <time>2013-11-03T08:33:49Z</time>
      </trkpt>
      <trkpt lat="28.4142" lon="83.81352">
        <ele>2148.2</ele>
        <time>2013-11-03T08:34:11Z</time>
      </trkpt>
      <trkpt lat="28.41426" lon="83.81358">
        <ele>2147.24</ele>
        <time>2013-11-03T08:34:23Z</time>
      </trkpt>
      <trkpt lat="28.41426" lon="83.81365">
        <ele>2144.84</ele>
        <time>2013-11-03T08:34:34Z</time>
      </trkpt>
      <trkpt lat="28.41425" lon="83.81371">
        <ele>2143.4</ele>
        <time>2013-11-03T08:34:49Z</time>
      </trkpt>
      <trkpt lat="28.41427" lon="83.81378">
        <ele>2141.47</ele>
        <time>2013-11-03T08:35:02Z</time>
      </trkpt>
      <trkpt lat="28.41426" lon="83.81384">
        <ele>2140.51</ele>
        <time>2013-11-03T08:35:17Z</time>
      </trkpt>
      <trkpt lat="28.41426" lon="83.81388">
        <ele>2140.03</ele>
        <time>2013-11-03T08:35:40Z</time>
      </trkpt>
      <trkpt lat="28.41428" lon="83.81393">
        <ele>2139.55</ele>
        <time>2013-11-03T08:35:45Z</time>
      </trkpt>
      <trkpt lat="28.41436" lon="83.81399">
        <ele>2139.07</ele>
        <time>2013-11-03T08:35:53Z</time>
      </trkpt>
      <trkpt lat="28.41442" lon="83.81402">
        <ele>2139.07</ele>
        <time>2013-11-03T08:35:59Z</time>
      </trkpt>
      <trkpt lat="28.41446" lon="83.81405">
        <ele>2138.59</ele>
        <time>2013-11-03T08:36:04Z</time>
      </trkpt>
      <trkpt lat="28.41457" lon="83.81414">
        <ele>2137.15</ele>
        <time>2013-11-03T08:36:19Z</time>
      </trkpt>
      <trkpt lat="28.41457" lon="83.81414">
        <ele>2137.63</ele>
        <time>2013-11-03T08:36:20Z</time>
      </trkpt>
      <trkpt lat="28.41457" lon="83.81422">
        <ele>2137.15</ele>
        <time>2013-11-03T08:36:26Z</time>
      </trkpt>
      <trkpt lat="28.41457" lon="83.81429">
        <ele>2136.67</ele>
        <time>2013-11-03T08:36:31Z</time>
      </trkpt>
      <trkpt lat="28.41454" lon="83.81443">
        <ele>2135.23</ele>
        <time>2013-11-03T08:36:45Z</time>
      </trkpt>
      <trkpt lat="28.41454" lon="83.81445">
        <ele>2135.23</ele>
        <time>2013-11-03T08:36:47Z</time>
      </trkpt>
      <trkpt lat="28.41457" lon="83.81458">
        <ele>2134.74</ele>
        <time>2013-11-03T08:37:01Z</time>
      </trkpt>
      <trkpt lat="28.41459" lon="83.81469">
        <ele>2131.38</ele>
        <time>2013-11-03T08:37:14Z</time>
      </trkpt>
      <trkpt lat="28.41457" lon="83.81474">
        <ele>2130.42</ele>
        <time>2013-11-03T08:37:19Z</time>
      </trkpt>
      <trkpt lat="28.41456" lon="83.81476">
        <ele>2129.94</ele>
        <time>2013-11-03T08:37:21Z</time>
      </trkpt>
      <trkpt lat="28.41453" lon="83.81486">
        <ele>2129.94</ele>
        <time>2013-11-03T08:37:28Z</time>
      </trkpt>
      <trkpt lat="28.41449" lon="83.81489">
        <ele>2128.98</ele>
        <time>2013-11-03T08:37:32Z</time>
      </trkpt>
      <trkpt lat="28.41447" lon="83.81496">
        <ele>2129.46</ele>
        <time>2013-11-03T08:37:37Z</time>
      </trkpt>
      <trkpt lat="28.41449" lon="83.81502">
        <ele>2129.46</ele>
        <time>2013-11-03T08:37:42Z</time>
      </trkpt>
      <trkpt lat="28.41455" lon="83.81507">
        <ele>2129.46</ele>
        <time>2013-11-03T08:37:51Z</time>
      </trkpt>
      <trkpt lat="28.41458" lon="83.81509">
        <ele>2129.46</ele>
        <time>2013-11-03T08:37:54Z</time>
      </trkpt>
      <trkpt lat="28.41465" lon="83.81511">
        <ele>2130.42</ele>
        <time>2013-11-03T08:38:00Z</time>
      </trkpt>
      <trkpt lat="28.41475" lon="83.81516">
        <ele>2130.42</ele>
        <time>2013-11-03T08:38:12Z</time>
      </trkpt>
      <trkpt lat="28.41475" lon="83.81517">
        <ele>2130.42</ele>
        <time>2013-11-03T08:38:13Z</time>
      </trkpt>
      <trkpt lat="28.41477" lon="83.81519">
        <ele>2130.42</ele>
        <time>2013-11-03T08:38:15Z</time>
      </trkpt>
      <trkpt lat="28.41483" lon="83.81524">
        <ele>2128.5</ele>
        <time>2013-11-03T08:38:26Z</time>
      </trkpt>
      <trkpt lat="28.41488" lon="83.81535">
        <ele>2126.09</ele>
        <time>2013-11-03T08:38:40Z</time>
      </trkpt>
      <trkpt lat="28.41487" lon="83.81545">
        <ele>2125.13</ele>
        <time>2013-11-03T08:38:52Z</time>
      </trkpt>
      <trkpt lat="28.41486" lon="83.81553">
        <ele>2126.09</ele>
        <time>2013-11-03T08:39:06Z</time>
      </trkpt>
      <trkpt lat="28.41485" lon="83.81558">
        <ele>2127.05</ele>
        <time>2013-11-03T08:39:21Z</time>
      </trkpt>
      <trkpt lat="28.41485" lon="83.81558">
        <ele>2126.57</ele>
        <time>2013-11-03T08:39:22Z</time>
      </trkpt>
      <trkpt lat="28.41483" lon="83.81555">
        <ele>2126.57</ele>
        <time>2013-11-03T08:39:25Z</time>
      </trkpt>
      <trkpt lat="28.41482" lon="83.81547">
        <ele>2124.65</ele>
        <time>2013-11-03T08:39:35Z</time>
      </trkpt>
      <trkpt lat="28.41479" lon="83.81548">
        <ele>2122.25</ele>
        <time>2013-11-03T08:39:47Z</time>
      </trkpt>
      <trkpt lat="28.41478" lon="83.8155">
        <ele>2121.77</ele>
        <time>2013-11-03T08:39:51Z</time>
      </trkpt>
      <trkpt lat="28.41475" lon="83.81555">
        <ele>2120.81</ele>
        <time>2013-11-03T08:40:05Z</time>
      </trkpt>
      <trkpt lat="28.41473" lon="83.81555">
        <ele>2120.81</ele>
        <time>2013-11-03T08:40:26Z</time>
      </trkpt>
      <trkpt lat="28.4147" lon="83.8156">
        <ele>2118.4</ele>
        <time>2013-11-03T08:40:40Z</time>
      </trkpt>
      <trkpt lat="28.41466" lon="83.81565">
        <ele>2117.92</ele>
        <time>2013-11-03T08:40:45Z</time>
      </trkpt>
      <trkpt lat="28.41457" lon="83.81583">
        <ele>2117.92</ele>
        <time>2013-11-03T08:40:59Z</time>
      </trkpt>
      <trkpt lat="28.41451" lon="83.81598">
        <ele>2117.44</ele>
        <time>2013-11-03T08:41:11Z</time>
      </trkpt>
      <trkpt lat="28.41447" lon="83.81606">
        <ele>2117.92</ele>
        <time>2013-11-03T08:41:24Z</time>
      </trkpt>
      <trkpt lat="28.41445" lon="83.81607">
        <ele>2117.44</ele>
        <time>2013-11-03T08:41:29Z</time>
      </trkpt>
      <trkpt lat="28.41438" lon="83.81616">
        <ele>2117.92</ele>
        <time>2013-11-03T08:41:43Z</time>
      </trkpt>
      <trkpt lat="28.41436" lon="83.81619">
        <ele>2117.44</ele>
        <time>2013-11-03T08:41:47Z</time>
      </trkpt>
      <trkpt lat="28.41429" lon="83.81639">
        <ele>2116.96</ele>
        <time>2013-11-03T08:42:02Z</time>
      </trkpt>
      <trkpt lat="28.41425" lon="83.81644">
        <ele>2116.48</ele>
        <time>2013-11-03T08:42:08Z</time>
      </trkpt>
      <trkpt lat="28.41421" lon="83.81653">
        <ele>2116</ele>
        <time>2013-11-03T08:42:15Z</time>
      </trkpt>
      <trkpt lat="28.41419" lon="83.81658">
        <ele>2116</ele>
        <time>2013-11-03T08:42:19Z</time>
      </trkpt>
      <trkpt lat="28.41416" lon="83.81664">
        <ele>2116</ele>
        <time>2013-11-03T08:42:23Z</time>
      </trkpt>
      <trkpt lat="28.41415" lon="83.81667">
        <ele>2116.96</ele>
        <time>2013-11-03T08:42:25Z</time>
      </trkpt>
      <trkpt lat="28.41412" lon="83.8167">
        <ele>2116.96</ele>
        <time>2013-11-03T08:42:29Z</time>
      </trkpt>
      <trkpt lat="28.41406" lon="83.81683">
        <ele>2117.44</ele>
        <time>2013-11-03T08:42:42Z</time>
      </trkpt>
      <trkpt lat="28.41402" lon="83.81684">
        <ele>2116.48</ele>
        <time>2013-11-03T08:42:45Z</time>
      </trkpt>
      <trkpt lat="28.41396" lon="83.81679">
        <ele>2113.6</ele>
        <time>2013-11-03T08:42:58Z</time>
      </trkpt>
      <trkpt lat="28.41391" lon="83.81687">
        <ele>2112.15</ele>
        <time>2013-11-03T08:43:10Z</time>
      </trkpt>
      <trkpt lat="28.41389" lon="83.81688">
        <ele>2111.67</ele>
        <time>2013-11-03T08:43:26Z</time>
      </trkpt>
      <trkpt lat="28.41387" lon="83.81691">
        <ele>2111.67</ele>
        <time>2013-11-03T08:43:30Z</time>
      </trkpt>
      <trkpt lat="28.41383" lon="83.81696">
        <ele>2109.75</ele>
        <time>2013-11-03T08:43:42Z</time>
      </trkpt>
      <trkpt lat="28.41377" lon="83.81698">
        <ele>2108.79</ele>
        <time>2013-11-03T08:43:56Z</time>
      </trkpt>
      <trkpt lat="28.41374" lon="83.81702">
        <ele>2107.83</ele>
        <time>2013-11-03T08:44:05Z</time>
      </trkpt>
      <trkpt lat="28.4136" lon="83.81708">
        <ele>2105.91</ele>
        <time>2013-11-03T08:44:19Z</time>
      </trkpt>
      <trkpt lat="28.41357" lon="83.81708">
        <ele>2102.54</ele>
        <time>2013-11-03T08:44:37Z</time>
      </trkpt>
      <trkpt lat="28.41347" lon="83.81715">
        <ele>2101.1</ele>
        <time>2013-11-03T08:44:47Z</time>
      </trkpt>
      <trkpt lat="28.41346" lon="83.81718">
        <ele>2100.62</ele>
        <time>2013-11-03T08:44:49Z</time>
      </trkpt>
      <trkpt lat="28.41343" lon="83.81725">
        <ele>2100.62</ele>
        <time>2013-11-03T08:44:54Z</time>
      </trkpt>
      <trkpt lat="28.41337" lon="83.81732">
        <ele>2100.62</ele>
        <time>2013-11-03T08:45:09Z</time>
      </trkpt>
      <trkpt lat="28.41332" lon="83.81737">
        <ele>2100.14</ele>
        <time>2013-11-03T08:45:27Z</time>
      </trkpt>
      <trkpt lat="28.41334" lon="83.81735">
        <ele>2099.66</ele>
        <time>2013-11-03T08:45:48Z</time>
      </trkpt>
      <trkpt lat="28.41328" lon="83.81737">
        <ele>2099.18</ele>
        <time>2013-11-03T08:45:59Z</time>
      </trkpt>
      <trkpt lat="28.41322" lon="83.81744">
        <ele>2098.7</ele>
        <time>2013-11-03T08:46:11Z</time>
      </trkpt>
      <trkpt lat="28.4132" lon="83.81752">
        <ele>2098.7</ele>
        <time>2013-11-03T08:46:24Z</time>
      </trkpt>
      <trkpt lat="28.4132" lon="83.81754">
        <ele>2097.25</ele>
        <time>2013-11-03T08:46:46Z</time>
      </trkpt>
      <trkpt lat="28.41319" lon="83.81756">
        <ele>2095.81</ele>
        <time>2013-11-03T08:47:13Z</time>
      </trkpt>
      <trkpt lat="28.41317" lon="83.8176">
        <ele>2093.89</ele>
        <time>2013-11-03T08:47:26Z</time>
      </trkpt>
      <trkpt lat="28.41311" lon="83.81759">
        <ele>2092.45</ele>
        <time>2013-11-03T08:47:46Z</time>
      </trkpt>
      <trkpt lat="28.41313" lon="83.81754">
        <ele>2091.97</ele>
        <time>2013-11-03T08:48:00Z</time>
      </trkpt>
      <trkpt lat="28.41313" lon="83.81752">
        <ele>2091.49</ele>
        <time>2013-11-03T08:48:19Z</time>
      </trkpt>
      <trkpt lat="28.4131" lon="83.81752">
        <ele>2089.56</ele>
        <time>2013-11-03T08:48:32Z</time>
      </trkpt>
      <trkpt lat="28.41311" lon="83.81752">
        <ele>2089.56</ele>
        <time>2013-11-03T08:48:53Z</time>
      </trkpt>
      <trkpt lat="28.41311" lon="83.81752">
        <ele>2087.64</ele>
        <time>2013-11-03T08:49:10Z</time>
      </trkpt>
      <trkpt lat="28.41308" lon="83.81755">
        <ele>2086.2</ele>
        <time>2013-11-03T08:49:27Z</time>
      </trkpt>
      <trkpt lat="28.41306" lon="83.81751">
        <ele>2084.28</ele>
        <time>2013-11-03T08:49:39Z</time>
      </trkpt>
      <trkpt lat="28.41302" lon="83.81748">
        <ele>2082.35</ele>
        <time>2013-11-03T08:49:58Z</time>
      </trkpt>
      <trkpt lat="28.41298" lon="83.81748">
        <ele>2080.91</ele>
        <time>2013-11-03T08:50:14Z</time>
      </trkpt>
      <trkpt lat="28.41296" lon="83.81748">
        <ele>2079.95</ele>
        <time>2013-11-03T08:50:30Z</time>
      </trkpt>
      <trkpt lat="28.41296" lon="83.81749">
        <ele>2078.51</ele>
        <time>2013-11-03T08:50:47Z</time>
      </trkpt>
      <trkpt lat="28.41292" lon="83.81757">
        <ele>2077.55</ele>
        <time>2013-11-03T08:51:00Z</time>
      </trkpt>
      <trkpt lat="28.41291" lon="83.81765">
        <ele>2076.1</ele>
        <time>2013-11-03T08:51:15Z</time>
      </trkpt>
      <trkpt lat="28.41291" lon="83.81765">
        <ele>2076.1</ele>
        <time>2013-11-03T08:51:16Z</time>
      </trkpt>
      <trkpt lat="28.4129" lon="83.81771">
        <ele>2075.14</ele>
        <time>2013-11-03T08:51:21Z</time>
      </trkpt>
      <trkpt lat="28.41288" lon="83.81776">
        <ele>2074.18</ele>
        <time>2013-11-03T08:51:26Z</time>
      </trkpt>
      <trkpt lat="28.41287" lon="83.81778">
        <ele>2074.18</ele>
        <time>2013-11-03T08:51:28Z</time>
      </trkpt>
      <trkpt lat="28.41283" lon="83.81789">
        <ele>2072.74</ele>
        <time>2013-11-03T08:51:39Z</time>
      </trkpt>
      <trkpt lat="28.41279" lon="83.81793">
        <ele>2072.26</ele>
        <time>2013-11-03T08:51:46Z</time>
      </trkpt>
      <trkpt lat="28.41271" lon="83.81805">
        <ele>2070.82</ele>
        <time>2013-11-03T08:51:59Z</time>
      </trkpt>
      <trkpt lat="28.41267" lon="83.81812">
        <ele>2070.82</ele>
        <time>2013-11-03T08:52:21Z</time>
      </trkpt>
      <trkpt lat="28.4127" lon="83.81818">
        <ele>2069.38</ele>
        <time>2013-11-03T08:52:35Z</time>
      </trkpt>
      <trkpt lat="28.4127" lon="83.81822">
        <ele>2066.49</ele>
        <time>2013-11-03T08:52:54Z</time>
      </trkpt>
      <trkpt lat="28.41272" lon="83.81831">
        <ele>2065.05</ele>
        <time>2013-11-03T08:53:06Z</time>
      </trkpt>
      <trkpt lat="28.41269" lon="83.81839">
        <ele>2063.13</ele>
        <time>2013-11-03T08:53:19Z</time>
      </trkpt>
      <trkpt lat="28.41271" lon="83.81845">
        <ele>2062.65</ele>
        <time>2013-11-03T08:53:31Z</time>
      </trkpt>
      <trkpt lat="28.41271" lon="83.81859">
        <ele>2060.24</ele>
        <time>2013-11-03T08:53:46Z</time>
      </trkpt>
      <trkpt lat="28.4127" lon="83.81863">
        <ele>2060.24</ele>
        <time>2013-11-03T08:53:53Z</time>
      </trkpt>
      <trkpt lat="28.4127" lon="83.81865">
        <ele>2059.76</ele>
        <time>2013-11-03T08:53:55Z</time>
      </trkpt>
      <trkpt lat="28.41272" lon="83.8187">
        <ele>2058.32</ele>
        <time>2013-11-03T08:54:04Z</time>
      </trkpt>
      <trkpt lat="28.41272" lon="83.81877">
        <ele>2057.84</ele>
        <time>2013-11-03T08:54:17Z</time>
      </trkpt>
      <trkpt lat="28.41271" lon="83.81879">
        <ele>2057.84</ele>
        <time>2013-11-03T08:54:22Z</time>
      </trkpt>
      <trkpt lat="28.41268" lon="83.81887">
        <ele>2057.84</ele>
        <time>2013-11-03T08:54:35Z</time>
      </trkpt>
      <trkpt lat="28.41268" lon="83.81894">
        <ele>2056.4</ele>
        <time>2013-11-03T08:54:44Z</time>
      </trkpt>
      <trkpt lat="28.41267" lon="83.819">
        <ele>2055.44</ele>
        <time>2013-11-03T08:54:48Z</time>
      </trkpt>
      <trkpt lat="28.41264" lon="83.81914">
        <ele>2053.03</ele>
        <time>2013-11-03T08:55:03Z</time>
      </trkpt>
      <trkpt lat="28.41265" lon="83.81923">
        <ele>2050.15</ele>
        <time>2013-11-03T08:55:15Z</time>
      </trkpt>
      <trkpt lat="28.41261" lon="83.81926">
        <ele>2048.71</ele>
        <time>2013-11-03T08:55:21Z</time>
      </trkpt>
      <trkpt lat="28.41254" lon="83.81928">
        <ele>2045.34</ele>
        <time>2013-11-03T08:55:37Z</time>
      </trkpt>
      <trkpt lat="28.41244" lon="83.81932">
        <ele>2041.98</ele>
        <time>2013-11-03T08:55:50Z</time>
      </trkpt>
      <trkpt lat="28.41234" lon="83.81933">
        <ele>2039.57</ele>
        <time>2013-11-03T08:56:06Z</time>
      </trkpt>
      <trkpt lat="28.41234" lon="83.81931">
        <ele>2039.09</ele>
        <time>2013-11-03T08:56:25Z</time>
      </trkpt>
      <trkpt lat="28.41231" lon="83.81928">
        <ele>2036.69</ele>
        <time>2013-11-03T08:56:41Z</time>
      </trkpt>
      <trkpt lat="28.41231" lon="83.81927">
        <ele>2035.25</ele>
        <time>2013-11-03T08:56:54Z</time>
      </trkpt>
      <trkpt lat="28.41231" lon="83.81927">
        <ele>2032.84</ele>
        <time>2013-11-03T08:57:10Z</time>
      </trkpt>
      <trkpt lat="28.41228" lon="83.81926">
        <ele>2032.36</ele>
        <time>2013-11-03T08:57:27Z</time>
      </trkpt>
      <trkpt lat="28.41221" lon="83.81921">
        <ele>2031.88</ele>
        <time>2013-11-03T08:57:45Z</time>
      </trkpt>
      <trkpt lat="28.41219" lon="83.81919">
        <ele>2031.4</ele>
        <time>2013-11-03T08:58:03Z</time>
      </trkpt>
      <trkpt lat="28.4122" lon="83.81917">
        <ele>2031.4</ele>
        <time>2013-11-03T08:58:26Z</time>
      </trkpt>
      <trkpt lat="28.4122" lon="83.81916">
        <ele>2031.4</ele>
        <time>2013-11-03T08:58:52Z</time>
      </trkpt>
      <trkpt lat="28.41221" lon="83.81916">
        <ele>2030.92</ele>
        <time>2013-11-03T08:59:18Z</time>
      </trkpt>
      <trkpt lat="28.41221" lon="83.81916">
        <ele>2030.92</ele>
        <time>2013-11-03T08:59:44Z</time>
      </trkpt>
      <trkpt lat="28.41221" lon="83.81916">
        <ele>2029</ele>
        <time>2013-11-03T09:00:05Z</time>
      </trkpt>
      <trkpt lat="28.41221" lon="83.81916">
        <ele>2029</ele>
        <time>2013-11-03T09:00:07Z</time>
      </trkpt>
      <trkpt lat="28.41223" lon="83.8192">
        <ele>2027.56</ele>
        <time>2013-11-03T09:00:12Z</time>
      </trkpt>
      <trkpt lat="28.41226" lon="83.81927">
        <ele>2026.6</ele>
        <time>2013-11-03T09:00:19Z</time>
      </trkpt>
      <trkpt lat="28.41226" lon="83.81937">
        <ele>2024.19</ele>
        <time>2013-11-03T09:00:32Z</time>
      </trkpt>
      <trkpt lat="28.41226" lon="83.81937">
        <ele>2023.23</ele>
        <time>2013-11-03T09:00:34Z</time>
      </trkpt>
      <trkpt lat="28.41225" lon="83.81939">
        <ele>2023.23</ele>
        <time>2013-11-03T09:00:55Z</time>
      </trkpt>
      <trkpt lat="28.41224" lon="83.81939">
        <ele>2023.23</ele>
        <time>2013-11-03T09:01:08Z</time>
      </trkpt>
      <trkpt lat="28.41225" lon="83.8194">
        <ele>2023.23</ele>
        <time>2013-11-03T09:01:25Z</time>
      </trkpt>
      <trkpt lat="28.41224" lon="83.81941">
        <ele>2022.75</ele>
        <time>2013-11-03T09:01:36Z</time>
      </trkpt>
      <trkpt lat="28.41225" lon="83.81944">
        <ele>2020.83</ele>
        <time>2013-11-03T09:01:45Z</time>
      </trkpt>
      <trkpt lat="28.41226" lon="83.81948">
        <ele>2018.43</ele>
        <time>2013-11-03T09:01:58Z</time>
      </trkpt>
      <trkpt lat="28.41223" lon="83.81951">
        <ele>2016.5</ele>
        <time>2013-11-03T09:02:12Z</time>
      </trkpt>
      <trkpt lat="28.41223" lon="83.81953">
        <ele>2016.5</ele>
        <time>2013-11-03T09:02:31Z</time>
      </trkpt>
      <trkpt lat="28.41221" lon="83.81953">
        <ele>2015.06</ele>
        <time>2013-11-03T09:02:47Z</time>
      </trkpt>
      <trkpt lat="28.41223" lon="83.81954">
        <ele>2012.66</ele>
        <time>2013-11-03T09:03:04Z</time>
      </trkpt>
      <trkpt lat="28.41225" lon="83.81957">
        <ele>2010.73</ele>
        <time>2013-11-03T09:03:22Z</time>
      </trkpt>
      <trkpt lat="28.41227" lon="83.81968">
        <ele>2008.33</ele>
        <time>2013-11-03T09:03:36Z</time>
      </trkpt>
      <trkpt lat="28.41224" lon="83.81974">
        <ele>2006.41</ele>
        <time>2013-11-03T09:03:45Z</time>
      </trkpt>
      <trkpt lat="28.41218" lon="83.81975">
        <ele>2004.01</ele>
        <time>2013-11-03T09:03:58Z</time>
      </trkpt>
      <trkpt lat="28.41218" lon="83.81976">
        <ele>2003.04</ele>
        <time>2013-11-03T09:04:18Z</time>
      </trkpt>
      <trkpt lat="28.41219" lon="83.81975">
        <ele>2003.04</ele>
        <time>2013-11-03T09:04:42Z</time>
      </trkpt>
      <trkpt lat="28.41219" lon="83.81975">
        <ele>2003.04</ele>
        <time>2013-11-03T09:04:49Z</time>
      </trkpt>
      <trkpt lat="28.41212" lon="83.81974">
        <ele>2000.64</ele>
        <time>2013-11-03T09:04:59Z</time>
      </trkpt>
      <trkpt lat="28.41212" lon="83.81976">
        <ele>1998.24</ele>
        <time>2013-11-03T09:05:11Z</time>
      </trkpt>
      <trkpt lat="28.41212" lon="83.81978">
        <ele>1997.28</ele>
        <time>2013-11-03T09:05:27Z</time>
      </trkpt>
      <trkpt lat="28.41208" lon="83.81978">
        <ele>1994.87</ele>
        <time>2013-11-03T09:05:38Z</time>
      </trkpt>
      <trkpt lat="28.41204" lon="83.81982">
        <ele>1992.47</ele>
        <time>2013-11-03T09:05:50Z</time>
      </trkpt>
      <trkpt lat="28.412" lon="83.81986">
        <ele>1990.07</ele>
        <time>2013-11-03T09:06:02Z</time>
      </trkpt>
      <trkpt lat="28.41203" lon="83.81988">
        <ele>1988.14</ele>
        <time>2013-11-03T09:06:10Z</time>
      </trkpt>
      <trkpt lat="28.41205" lon="83.81988">
        <ele>1988.14</ele>
        <time>2013-11-03T09:06:12Z</time>
      </trkpt>
      <trkpt lat="28.41209" lon="83.81993">
        <ele>1985.74</ele>
        <time>2013-11-03T09:06:26Z</time>
      </trkpt>
      <trkpt lat="28.41209" lon="83.81995">
        <ele>1984.78</ele>
        <time>2013-11-03T09:06:30Z</time>
      </trkpt>
      <trkpt lat="28.41218" lon="83.82002">
        <ele>1981.41</ele>
        <time>2013-11-03T09:06:42Z</time>
      </trkpt>
      <trkpt lat="28.41216" lon="83.82007">
        <ele>1978.53</ele>
        <time>2013-11-03T09:06:55Z</time>
      </trkpt>
      <trkpt lat="28.41212" lon="83.82009">
        <ele>1975.17</ele>
        <time>2013-11-03T09:07:08Z</time>
      </trkpt>
      <trkpt lat="28.41211" lon="83.82012">
        <ele>1972.76</ele>
        <time>2013-11-03T09:07:22Z</time>
      </trkpt>
      <trkpt lat="28.41219" lon="83.82017">
        <ele>1970.84</ele>
        <time>2013-11-03T09:07:33Z</time>
      </trkpt>
      <trkpt lat="28.41212" lon="83.82019">
        <ele>1967.96</ele>
        <time>2013-11-03T09:07:47Z</time>
      </trkpt>
      <trkpt lat="28.4121" lon="83.82025">
        <ele>1966.51</ele>
        <time>2013-11-03T09:08:02Z</time>
      </trkpt>
      <trkpt lat="28.41214" lon="83.82024">
        <ele>1965.55</ele>
        <time>2013-11-03T09:08:24Z</time>
      </trkpt>
      <trkpt lat="28.41213" lon="83.82031">
        <ele>1963.15</ele>
        <time>2013-11-03T09:08:36Z</time>
      </trkpt>
      <trkpt lat="28.41207" lon="83.82036">
        <ele>1960.27</ele>
        <time>2013-11-03T09:08:50Z</time>
      </trkpt>
      <trkpt lat="28.41212" lon="83.82038">
        <ele>1957.38</ele>
        <time>2013-11-03T09:09:03Z</time>
      </trkpt>
      <trkpt lat="28.4121" lon="83.8204">
        <ele>1955.46</ele>
        <time>2013-11-03T09:09:11Z</time>
      </trkpt>
      <trkpt lat="28.41203" lon="83.82044">
        <ele>1952.09</ele>
        <time>2013-11-03T09:09:26Z</time>
      </trkpt>
      <trkpt lat="28.41197" lon="83.82044">
        <ele>1948.73</ele>
        <time>2013-11-03T09:09:40Z</time>
      </trkpt>
      <trkpt lat="28.41196" lon="83.82046">
        <ele>1947.77</ele>
        <time>2013-11-03T09:09:46Z</time>
      </trkpt>
      <trkpt lat="28.412" lon="83.82048">
        <ele>1945.85</ele>
        <time>2013-11-03T09:09:57Z</time>
      </trkpt>
      <trkpt lat="28.41206" lon="83.82052">
        <ele>1942.48</ele>
        <time>2013-11-03T09:10:12Z</time>
      </trkpt>
      <trkpt lat="28.41208" lon="83.82052">
        <ele>1942</ele>
        <time>2013-11-03T09:10:15Z</time>
      </trkpt>
      <trkpt lat="28.41213" lon="83.82059">
        <ele>1941.52</ele>
        <time>2013-11-03T09:10:21Z</time>
      </trkpt>
      <trkpt lat="28.41217" lon="83.8206">
        <ele>1940.56</ele>
        <time>2013-11-03T09:10:25Z</time>
      </trkpt>
      <trkpt lat="28.41214" lon="83.8206">
        <ele>1938.64</ele>
        <time>2013-11-03T09:10:38Z</time>
      </trkpt>
      <trkpt lat="28.41203" lon="83.82063">
        <ele>1936.71</ele>
        <time>2013-11-03T09:10:53Z</time>
      </trkpt>
      <trkpt lat="28.41203" lon="83.82066">
        <ele>1936.71</ele>
        <time>2013-11-03T09:11:16Z</time>
      </trkpt>
      <trkpt lat="28.41211" lon="83.8207">
        <ele>1934.79</ele>
        <time>2013-11-03T09:11:29Z</time>
      </trkpt>
      <trkpt lat="28.41212" lon="83.8207">
        <ele>1933.35</ele>
        <time>2013-11-03T09:11:33Z</time>
      </trkpt>
      <trkpt lat="28.41217" lon="83.82077">
        <ele>1931.91</ele>
        <time>2013-11-03T09:11:45Z</time>
      </trkpt>
      <trkpt lat="28.41215" lon="83.82078">
        <ele>1929.5</ele>
        <time>2013-11-03T09:11:53Z</time>
      </trkpt>
      <trkpt lat="28.41209" lon="83.82084">
        <ele>1927.1</ele>
        <time>2013-11-03T09:12:06Z</time>
      </trkpt>
      <trkpt lat="28.41209" lon="83.82084">
        <ele>1927.1</ele>
        <time>2013-11-03T09:12:07Z</time>
      </trkpt>
      <trkpt lat="28.41201" lon="83.82088">
        <ele>1925.18</ele>
        <time>2013-11-03T09:12:22Z</time>
      </trkpt>
      <trkpt lat="28.41201" lon="83.8209">
        <ele>1923.74</ele>
        <time>2013-11-03T09:12:33Z</time>
      </trkpt>
      <trkpt lat="28.41203" lon="83.8209">
        <ele>1923.74</ele>
        <time>2013-11-03T09:12:49Z</time>
      </trkpt>
      <trkpt lat="28.41202" lon="83.8209">
        <ele>1922.77</ele>
        <time>2013-11-03T09:13:07Z</time>
      </trkpt>
      <trkpt lat="28.41201" lon="83.82091">
        <ele>1921.81</ele>
        <time>2013-11-03T09:13:21Z</time>
      </trkpt>
      <trkpt lat="28.41202" lon="83.82088">
        <ele>1918.45</ele>
        <time>2013-11-03T09:13:35Z</time>
      </trkpt>
      <trkpt lat="28.41202" lon="83.82085">
        <ele>1915.56</ele>
        <time>2013-11-03T09:13:49Z</time>
      </trkpt>
      <trkpt lat="28.41197" lon="83.82093">
        <ele>1912.68</ele>
        <time>2013-11-03T09:14:02Z</time>
      </trkpt>
      <trkpt lat="28.41194" lon="83.82102">
        <ele>1909.8</ele>
        <time>2013-11-03T09:14:13Z</time>
      </trkpt>
      <trkpt lat="28.4119" lon="83.82109">
        <ele>1909.32</ele>
        <time>2013-11-03T09:14:32Z</time>
      </trkpt>
      <trkpt lat="28.4119" lon="83.82109">
        <ele>1909.8</ele>
        <time>2013-11-03T09:14:44Z</time>
      </trkpt>
      <trkpt lat="28.41189" lon="83.8211">
        <ele>1907.87</ele>
        <time>2013-11-03T09:14:57Z</time>
      </trkpt>
      <trkpt lat="28.41191" lon="83.82109">
        <ele>1906.91</ele>
        <time>2013-11-03T09:15:19Z</time>
      </trkpt>
      <trkpt lat="28.41194" lon="83.82114">
        <ele>1904.51</ele>
        <time>2013-11-03T09:15:27Z</time>
      </trkpt>
      <trkpt lat="28.41193" lon="83.82113">
        <ele>1901.63</ele>
        <time>2013-11-03T09:15:38Z</time>
      </trkpt>
      <trkpt lat="28.41186" lon="83.82122">
        <ele>1900.18</ele>
        <time>2013-11-03T09:15:44Z</time>
      </trkpt>
      <trkpt lat="28.41182" lon="83.82124">
        <ele>1899.22</ele>
        <time>2013-11-03T09:15:57Z</time>
      </trkpt>
      <trkpt lat="28.41179" lon="83.82127">
        <ele>1899.22</ele>
        <time>2013-11-03T09:16:17Z</time>
      </trkpt>
      <trkpt lat="28.41175" lon="83.82132">
        <ele>1896.82</ele>
        <time>2013-11-03T09:16:26Z</time>
      </trkpt>
      <trkpt lat="28.41173" lon="83.82137">
        <ele>1895.38</ele>
        <time>2013-11-03T09:16:38Z</time>
      </trkpt>
      <trkpt lat="28.41172" lon="83.82144">
        <ele>1892.97</ele>
        <time>2013-11-03T09:16:52Z</time>
      </trkpt>
      <trkpt lat="28.41171" lon="83.82145">
        <ele>1892.97</ele>
        <time>2013-11-03T09:17:11Z</time>
      </trkpt>
      <trkpt lat="28.4117" lon="83.82145">
        <ele>1892.97</ele>
        <time>2013-11-03T09:17:29Z</time>
      </trkpt>
      <trkpt lat="28.4117" lon="83.82145">
        <ele>1892.49</ele>
        <time>2013-11-03T09:17:56Z</time>
      </trkpt>
      <trkpt lat="28.4117" lon="83.82145">
        <ele>1892.49</ele>
        <time>2013-11-03T09:18:14Z</time>
      </trkpt>
      <trkpt lat="28.41171" lon="83.82149">
        <ele>1891.05</ele>
        <time>2013-11-03T09:18:28Z</time>
      </trkpt>
      <trkpt lat="28.41171" lon="83.82148">
        <ele>1889.61</ele>
        <time>2013-11-03T09:18:46Z</time>
      </trkpt>
      <trkpt lat="28.41171" lon="83.82148">
        <ele>1890.09</ele>
        <time>2013-11-03T09:18:56Z</time>
      </trkpt>
      <trkpt lat="28.41165" lon="83.82153">
        <ele>1889.13</ele>
        <time>2013-11-03T09:19:11Z</time>
      </trkpt>
      <trkpt lat="28.41165" lon="83.82159">
        <ele>1886.72</ele>
        <time>2013-11-03T09:19:22Z</time>
      </trkpt>
      <trkpt lat="28.41166" lon="83.82161">
        <ele>1885.76</ele>
        <time>2013-11-03T09:19:39Z</time>
      </trkpt>
      <trkpt lat="28.41164" lon="83.82163">
        <ele>1885.76</ele>
        <time>2013-11-03T09:19:42Z</time>
      </trkpt>
      <trkpt lat="28.4116" lon="83.82167">
        <ele>1883.84</ele>
        <time>2013-11-03T09:19:53Z</time>
      </trkpt>
      <trkpt lat="28.41157" lon="83.82171">
        <ele>1882.4</ele>
        <time>2013-11-03T09:20:10Z</time>
      </trkpt>
      <trkpt lat="28.41156" lon="83.82172">
        <ele>1882.4</ele>
        <time>2013-11-03T09:20:28Z</time>
      </trkpt>
      <trkpt lat="28.41155" lon="83.82174">
        <ele>1882.88</ele>
        <time>2013-11-03T09:20:48Z</time>
      </trkpt>
      <trkpt lat="28.41155" lon="83.82174">
        <ele>1882.4</ele>
        <time>2013-11-03T09:21:06Z</time>
      </trkpt>
      <trkpt lat="28.41153" lon="83.82177">
        <ele>1882.4</ele>
        <time>2013-11-03T09:21:33Z</time>
      </trkpt>
      <trkpt lat="28.41154" lon="83.82174">
        <ele>1882.4</ele>
        <time>2013-11-03T09:21:49Z</time>
      </trkpt>
      <trkpt lat="28.41154" lon="83.82174">
        <ele>1882.4</ele>
        <time>2013-11-03T09:22:19Z</time>
      </trkpt>
      <trkpt lat="28.41154" lon="83.82174">
        <ele>1882.4</ele>
        <time>2013-11-03T09:22:46Z</time>
      </trkpt>
      <trkpt lat="28.41152" lon="83.82175">
        <ele>1881.92</ele>
        <time>2013-11-03T09:23:18Z</time>
      </trkpt>
      <trkpt lat="28.41144" lon="83.8218">
        <ele>1879.51</ele>
        <time>2013-11-03T09:23:31Z</time>
      </trkpt>
      <trkpt lat="28.41142" lon="83.82185">
        <ele>1877.59</ele>
        <time>2013-11-03T09:23:42Z</time>
      </trkpt>
      <trkpt lat="28.41141" lon="83.82189">
        <ele>1877.59</ele>
        <time>2013-11-03T09:24:04Z</time>
      </trkpt>
      <trkpt lat="28.41144" lon="83.8219">
        <ele>1876.15</ele>
        <time>2013-11-03T09:24:26Z</time>
      </trkpt>
      <trkpt lat="28.41141" lon="83.82189">
        <ele>1874.71</ele>
        <time>2013-11-03T09:24:40Z</time>
      </trkpt>
      <trkpt lat="28.4114" lon="83.82188">
        <ele>1871.82</ele>
        <time>2013-11-03T09:24:56Z</time>
      </trkpt>
      <trkpt lat="28.41142" lon="83.82191">
        <ele>1868.94</ele>
        <time>2013-11-03T09:25:12Z</time>
      </trkpt>
      <trkpt lat="28.41144" lon="83.82198">
        <ele>1865.58</ele>
        <time>2013-11-03T09:25:24Z</time>
      </trkpt>
      <trkpt lat="28.41145" lon="83.82202">
        <ele>1863.65</ele>
        <time>2013-11-03T09:25:34Z</time>
      </trkpt>
      <trkpt lat="28.41139" lon="83.82202">
        <ele>1860.77</ele>
        <time>2013-11-03T09:25:44Z</time>
      </trkpt>
      <trkpt lat="28.41134" lon="83.82202">
        <ele>1858.37</ele>
        <time>2013-11-03T09:25:52Z</time>
      </trkpt>
      <trkpt lat="28.41128" lon="83.82201">
        <ele>1855</ele>
        <time>2013-11-03T09:26:06Z</time>
      </trkpt>
      <trkpt lat="28.41125" lon="83.82201">
        <ele>1852.12</ele>
        <time>2013-11-03T09:26:20Z</time>
      </trkpt>
      <trkpt lat="28.41124" lon="83.82201">
        <ele>1850.68</ele>
        <time>2013-11-03T09:26:36Z</time>
      </trkpt>
      <trkpt lat="28.4112" lon="83.82202">
        <ele>1850.68</ele>
        <time>2013-11-03T09:27:08Z</time>
      </trkpt>
      <trkpt lat="28.41119" lon="83.82199">
        <ele>1849.71</ele>
        <time>2013-11-03T09:27:33Z</time>
      </trkpt>
      <trkpt lat="28.41119" lon="83.82198">
        <ele>1849.71</ele>
        <time>2013-11-03T09:27:34Z</time>
      </trkpt>
      <trkpt lat="28.41125" lon="83.82188">
        <ele>1847.31</ele>
        <time>2013-11-03T09:27:47Z</time>
      </trkpt>
      <trkpt lat="28.41126" lon="83.82187">
        <ele>1847.79</ele>
        <time>2013-11-03T09:27:49Z</time>
      </trkpt>
      <trkpt lat="28.41131" lon="83.82184">
        <ele>1844.91</ele>
        <time>2013-11-03T09:27:56Z</time>
      </trkpt>
      <trkpt lat="28.41131" lon="83.82184">
        <ele>1844.91</ele>
        <time>2013-11-03T09:27:57Z</time>
      </trkpt>
      <trkpt lat="28.41132" lon="83.82183">
        <ele>1843.95</ele>
        <time>2013-11-03T09:27:59Z</time>
      </trkpt>
      <trkpt lat="28.41133" lon="83.8218">
        <ele>1840.58</ele>
        <time>2013-11-03T09:28:10Z</time>
      </trkpt>
      <trkpt lat="28.41135" lon="83.82177">
        <ele>1837.22</ele>
        <time>2013-11-03T09:28:22Z</time>
      </trkpt>
      <trkpt lat="28.41135" lon="83.82172">
        <ele>1834.33</ele>
        <time>2013-11-03T09:28:33Z</time>
      </trkpt>
      <trkpt lat="28.41135" lon="83.82174">
        <ele>1833.37</ele>
        <time>2013-11-03T09:28:38Z</time>
      </trkpt>
      <trkpt lat="28.41126" lon="83.82186">
        <ele>1831.93</ele>
        <time>2013-11-03T09:28:52Z</time>
      </trkpt>
      <trkpt lat="28.41123" lon="83.82194">
        <ele>1830.97</ele>
        <time>2013-11-03T09:28:59Z</time>
      </trkpt>
      <trkpt lat="28.41114" lon="83.82204">
        <ele>1830.97</ele>
        <time>2013-11-03T09:29:15Z</time>
      </trkpt>
      <trkpt lat="28.41112" lon="83.82209">
        <ele>1827.6</ele>
        <time>2013-11-03T09:29:27Z</time>
      </trkpt>
      <trkpt lat="28.4111" lon="83.82216">
        <ele>1824.72</ele>
        <time>2013-11-03T09:29:37Z</time>
      </trkpt>
      <trkpt lat="28.41106" lon="83.8222">
        <ele>1822.32</ele>
        <time>2013-11-03T09:29:48Z</time>
      </trkpt>
      <trkpt lat="28.41102" lon="83.82218">
        <ele>1818.95</ele>
        <time>2013-11-03T09:30:01Z</time>
      </trkpt>
      <trkpt lat="28.41105" lon="83.82225">
        <ele>1817.03</ele>
        <time>2013-11-03T09:30:11Z</time>
      </trkpt>
      <trkpt lat="28.41102" lon="83.8223">
        <ele>1813.66</ele>
        <time>2013-11-03T09:30:23Z</time>
      </trkpt>
      <trkpt lat="28.41095" lon="83.82229">
        <ele>1810.78</ele>
        <time>2013-11-03T09:30:35Z</time>
      </trkpt>
      <trkpt lat="28.41094" lon="83.82233">
        <ele>1807.9</ele>
        <time>2013-11-03T09:30:45Z</time>
      </trkpt>
      <trkpt lat="28.41093" lon="83.82235">
        <ele>1805.97</ele>
        <time>2013-11-03T09:30:50Z</time>
      </trkpt>
      <trkpt lat="28.41083" lon="83.82242">
        <ele>1803.09</ele>
        <time>2013-11-03T09:31:02Z</time>
      </trkpt>
      <trkpt lat="28.41077" lon="83.82245">
        <ele>1802.61</ele>
        <time>2013-11-03T09:31:16Z</time>
      </trkpt>
      <trkpt lat="28.41077" lon="83.82245">
        <ele>1802.13</ele>
        <time>2013-11-03T09:31:40Z</time>
      </trkpt>
      <trkpt lat="28.41078" lon="83.82244">
        <ele>1802.13</ele>
        <time>2013-11-03T09:32:10Z</time>
      </trkpt>
      <trkpt lat="28.4108" lon="83.82242">
        <ele>1802.13</ele>
        <time>2013-11-03T09:32:38Z</time>
      </trkpt>
      <trkpt lat="28.41077" lon="83.82246">
        <ele>1801.65</ele>
        <time>2013-11-03T09:32:50Z</time>
      </trkpt>
      <trkpt lat="28.41072" lon="83.82254">
        <ele>1799.24</ele>
        <time>2013-11-03T09:33:02Z</time>
      </trkpt>
      <trkpt lat="28.41064" lon="83.82262">
        <ele>1796.84</ele>
        <time>2013-11-03T09:33:15Z</time>
      </trkpt>
      <trkpt lat="28.4106" lon="83.82266">
        <ele>1796.36</ele>
        <time>2013-11-03T09:33:20Z</time>
      </trkpt>
      <trkpt lat="28.41049" lon="83.82276">
        <ele>1792.52</ele>
        <time>2013-11-03T09:33:36Z</time>
      </trkpt>
      <trkpt lat="28.41049" lon="83.82276">
        <ele>1792.52</ele>
        <time>2013-11-03T09:33:37Z</time>
      </trkpt>
      <trkpt lat="28.41044" lon="83.82283">
        <ele>1791.07</ele>
        <time>2013-11-03T09:33:42Z</time>
      </trkpt>
      <trkpt lat="28.41036" lon="83.82293">
        <ele>1789.15</ele>
        <time>2013-11-03T09:33:56Z</time>
      </trkpt>
      <trkpt lat="28.41031" lon="83.82305">
        <ele>1785.79</ele>
        <time>2013-11-03T09:34:11Z</time>
      </trkpt>
      <trkpt lat="28.41031" lon="83.82313">
        <ele>1783.38</ele>
        <time>2013-11-03T09:34:25Z</time>
      </trkpt>
      <trkpt lat="28.4103" lon="83.82313">
        <ele>1783.38</ele>
        <time>2013-11-03T09:34:45Z</time>
      </trkpt>
      <trkpt lat="28.41028" lon="83.82318">
        <ele>1781.94</ele>
        <time>2013-11-03T09:35:01Z</time>
      </trkpt>
      <trkpt lat="28.41022" lon="83.82327">
        <ele>1779.54</ele>
        <time>2013-11-03T09:35:16Z</time>
      </trkpt>
      <trkpt lat="28.41018" lon="83.82333">
        <ele>1778.1</ele>
        <time>2013-11-03T09:35:34Z</time>
      </trkpt>
      <trkpt lat="28.41015" lon="83.82335">
        <ele>1775.69</ele>
        <time>2013-11-03T09:35:46Z</time>
      </trkpt>
      <trkpt lat="28.41012" lon="83.82344">
        <ele>1774.73</ele>
        <time>2013-11-03T09:36:00Z</time>
      </trkpt>
      <trkpt lat="28.41016" lon="83.82356">
        <ele>1772.81</ele>
        <time>2013-11-03T09:36:13Z</time>
      </trkpt>
      <trkpt lat="28.41016" lon="83.8236">
        <ele>1771.37</ele>
        <time>2013-11-03T09:36:34Z</time>
      </trkpt>
      <trkpt lat="28.41011" lon="83.82367">
        <ele>1768.48</ele>
        <time>2013-11-03T09:36:47Z</time>
      </trkpt>
      <trkpt lat="28.41005" lon="83.82374">
        <ele>1767.52</ele>
        <time>2013-11-03T09:37:05Z</time>
      </trkpt>
      <trkpt lat="28.41005" lon="83.82374">
        <ele>1767.52</ele>
        <time>2013-11-03T09:37:07Z</time>
      </trkpt>
      <trkpt lat="28.41004" lon="83.82374">
        <ele>1767.52</ele>
        <time>2013-11-03T09:37:20Z</time>
      </trkpt>
      <trkpt lat="28.41004" lon="83.82377">
        <ele>1767.04</ele>
        <time>2013-11-03T09:37:32Z</time>
      </trkpt>
      <trkpt lat="28.41009" lon="83.82384">
        <ele>1764.16</ele>
        <time>2013-11-03T09:37:46Z</time>
      </trkpt>
      <trkpt lat="28.4101" lon="83.82384">
        <ele>1764.16</ele>
        <time>2013-11-03T09:38:04Z</time>
      </trkpt>
      <trkpt lat="28.41011" lon="83.8239">
        <ele>1762.23</ele>
        <time>2013-11-03T09:38:21Z</time>
      </trkpt>
      <trkpt lat="28.41009" lon="83.82394">
        <ele>1761.75</ele>
        <time>2013-11-03T09:38:40Z</time>
      </trkpt>
      <trkpt lat="28.41009" lon="83.82398">
        <ele>1758.39</ele>
        <time>2013-11-03T09:38:54Z</time>
      </trkpt>
      <trkpt lat="28.41012" lon="83.8241">
        <ele>1756.47</ele>
        <time>2013-11-03T09:39:07Z</time>
      </trkpt>
      <trkpt lat="28.4101" lon="83.82417">
        <ele>1755.5</ele>
        <time>2013-11-03T09:39:18Z</time>
      </trkpt>
      <trkpt lat="28.41007" lon="83.82414">
        <ele>1752.14</ele>
        <time>2013-11-03T09:39:27Z</time>
      </trkpt>
      <trkpt lat="28.41006" lon="83.82412">
        <ele>1751.18</ele>
        <time>2013-11-03T09:39:30Z</time>
      </trkpt>
      <trkpt lat="28.41002" lon="83.82403">
        <ele>1751.18</ele>
        <time>2013-11-03T09:39:40Z</time>
      </trkpt>
      <trkpt lat="28.40998" lon="83.82399">
        <ele>1750.7</ele>
        <time>2013-11-03T09:39:45Z</time>
      </trkpt>
      <trkpt lat="28.40994" lon="83.82398">
        <ele>1750.7</ele>
        <time>2013-11-03T09:39:49Z</time>
      </trkpt>
      <trkpt lat="28.40986" lon="83.82394">
        <ele>1747.81</ele>
        <time>2013-11-03T09:40:02Z</time>
      </trkpt>
      <trkpt lat="28.40979" lon="83.8239">
        <ele>1744.93</ele>
        <time>2013-11-03T09:40:16Z</time>
      </trkpt>
      <trkpt lat="28.40969" lon="83.82389">
        <ele>1742.05</ele>
        <time>2013-11-03T09:40:31Z</time>
      </trkpt>
      <trkpt lat="28.40964" lon="83.82394">
        <ele>1742.05</ele>
        <time>2013-11-03T09:40:47Z</time>
      </trkpt>
      <trkpt lat="28.40962" lon="83.82395">
        <ele>1743.01</ele>
        <time>2013-11-03T09:41:09Z</time>
      </trkpt>
      <trkpt lat="28.40962" lon="83.82394">
        <ele>1742.05</ele>
        <time>2013-11-03T09:41:33Z</time>
      </trkpt>
      <trkpt lat="28.40963" lon="83.82394">
        <ele>1742.53</ele>
        <time>2013-11-03T09:41:56Z</time>
      </trkpt>
      <trkpt lat="28.40963" lon="83.82394">
        <ele>1742.53</ele>
        <time>2013-11-03T09:42:27Z</time>
      </trkpt>
      <trkpt lat="28.40961" lon="83.82394">
        <ele>1743.01</ele>
        <time>2013-11-03T09:42:56Z</time>
      </trkpt>
      <trkpt lat="28.40961" lon="83.82394">
        <ele>1743.01</ele>
        <time>2013-11-03T09:43:17Z</time>
      </trkpt>
      <trkpt lat="28.40958" lon="83.82394">
        <ele>1743.01</ele>
        <time>2013-11-03T09:43:37Z</time>
      </trkpt>
      <trkpt lat="28.40961" lon="83.82396">
        <ele>1743.01</ele>
        <time>2013-11-03T09:43:56Z</time>
      </trkpt>
      <trkpt lat="28.40962" lon="83.82402">
        <ele>1744.45</ele>
        <time>2013-11-03T09:44:16Z</time>
      </trkpt>
      <trkpt lat="28.40957" lon="83.82403">
        <ele>1746.37</ele>
        <time>2013-11-03T09:44:32Z</time>
      </trkpt>
      <trkpt lat="28.40955" lon="83.824">
        <ele>1745.89</ele>
        <time>2013-11-03T09:44:45Z</time>
      </trkpt>
      <trkpt lat="28.40959" lon="83.82397">
        <ele>1745.89</ele>
        <time>2013-11-03T09:44:59Z</time>
      </trkpt>
      <trkpt lat="28.40957" lon="83.82396">
        <ele>1745.89</ele>
        <time>2013-11-03T09:45:14Z</time>
      </trkpt>
      <trkpt lat="28.40957" lon="83.82393">
        <ele>1745.41</ele>
        <time>2013-11-03T09:45:37Z</time>
      </trkpt>
      <trkpt lat="28.40956" lon="83.82395">
        <ele>1746.37</ele>
        <time>2013-11-03T09:45:39Z</time>
      </trkpt>
      <trkpt lat="28.40949" lon="83.82407">
        <ele>1745.89</ele>
        <time>2013-11-03T09:45:59Z</time>
      </trkpt>
      <trkpt lat="28.40952" lon="83.8241">
        <ele>1746.37</ele>
        <time>2013-11-03T09:46:19Z</time>
      </trkpt>
      <trkpt lat="28.40952" lon="83.82409">
        <ele>1746.37</ele>
        <time>2013-11-03T09:46:38Z</time>
      </trkpt>
      <trkpt lat="28.40962" lon="83.82415">
        <ele>1746.37</ele>
        <time>2013-11-03T09:47:00Z</time>
      </trkpt>
      <trkpt lat="28.40961" lon="83.82416">
        <ele>1746.37</ele>
        <time>2013-11-03T09:47:03Z</time>
      </trkpt>
      <trkpt lat="28.40962" lon="83.82414">
        <ele>1745.89</ele>
        <time>2013-11-03T09:47:16Z</time>
      </trkpt>
      <trkpt lat="28.40968" lon="83.82414">
        <ele>1746.37</ele>
        <time>2013-11-03T09:47:22Z</time>
      </trkpt>
      <trkpt lat="28.4098" lon="83.82422">
        <ele>1746.37</ele>
        <time>2013-11-03T09:47:40Z</time>
      </trkpt>
      <trkpt lat="28.40979" lon="83.8241">
        <ele>1746.85</ele>
        <time>2013-11-03T09:47:53Z</time>
      </trkpt>
      <trkpt lat="28.40973" lon="83.82403">
        <ele>1746.37</ele>
        <time>2013-11-03T09:48:17Z</time>
      </trkpt>
      <trkpt lat="28.40967" lon="83.82399">
        <ele>1746.37</ele>
        <time>2013-11-03T09:48:32Z</time>
      </trkpt>
      <trkpt lat="28.40956" lon="83.82401">
        <ele>1746.85</ele>
        <time>2013-11-03T09:48:56Z</time>
      </trkpt>
      <trkpt lat="28.40956" lon="83.82407">
        <ele>1746.85</ele>
        <time>2013-11-03T09:49:15Z</time>
      </trkpt>
      <trkpt lat="28.40957" lon="83.82409">
        <ele>1746.85</ele>
        <time>2013-11-03T09:49:33Z</time>
      </trkpt>
      <trkpt lat="28.40957" lon="83.8241">
        <ele>1746.85</ele>
        <time>2013-11-03T09:49:34Z</time>
      </trkpt>
      <trkpt lat="28.4097" lon="83.82411">
        <ele>1746.85</ele>
        <time>2013-11-03T09:49:53Z</time>
      </trkpt>
      <trkpt lat="28.40972" lon="83.8241">
        <ele>1746.37</ele>
        <time>2013-11-03T09:49:55Z</time>
      </trkpt>
      <trkpt lat="28.40977" lon="83.82402">
        <ele>1746.85</ele>
        <time>2013-11-03T09:50:13Z</time>
      </trkpt>
      <trkpt lat="28.40973" lon="83.82404">
        <ele>1746.85</ele>
        <time>2013-11-03T09:50:35Z</time>
      </trkpt>
      <trkpt lat="28.40973" lon="83.8241">
        <ele>1746.85</ele>
        <time>2013-11-03T09:50:48Z</time>
      </trkpt>
      <trkpt lat="28.40971" lon="83.82412">
        <ele>1746.85</ele>
        <time>2013-11-03T09:51:10Z</time>
      </trkpt>
      <trkpt lat="28.40967" lon="83.82404">
        <ele>1746.85</ele>
        <time>2013-11-03T09:51:32Z</time>
      </trkpt>
      <trkpt lat="28.40967" lon="83.82403">
        <ele>1746.85</ele>
        <time>2013-11-03T09:51:50Z</time>
      </trkpt>
      <trkpt lat="28.40967" lon="83.82398">
        <ele>1746.85</ele>
        <time>2013-11-03T09:52:11Z</time>
      </trkpt>
      <trkpt lat="28.40969" lon="83.82396">
        <ele>1746.85</ele>
        <time>2013-11-03T09:52:27Z</time>
      </trkpt>
      <trkpt lat="28.40968" lon="83.82387">
        <ele>1746.85</ele>
        <time>2013-11-03T09:52:46Z</time>
      </trkpt>
      <trkpt lat="28.40967" lon="83.82387">
        <ele>1746.85</ele>
        <time>2013-11-03T09:52:54Z</time>
      </trkpt>
      <trkpt lat="28.40949" lon="83.82388">
        <ele>1746.85</ele>
        <time>2013-11-03T09:53:08Z</time>
      </trkpt>
      <trkpt lat="28.40938" lon="83.82404">
        <ele>1746.85</ele>
        <time>2013-11-03T09:53:25Z</time>
      </trkpt>
      <trkpt lat="28.40954" lon="83.82397">
        <ele>1746.85</ele>
        <time>2013-11-03T09:53:43Z</time>
      </trkpt>
      <trkpt lat="28.4096" lon="83.82396">
        <ele>1746.85</ele>
        <time>2013-11-03T09:54:00Z</time>
      </trkpt>
      <trkpt lat="28.40961" lon="83.82419">
        <ele>1746.85</ele>
        <time>2013-11-03T09:54:27Z</time>
      </trkpt>
    </trkseg>
  </trk>
</gpx>